     2              OBSERVATION DATA    GPS                 RINEX VERSION / TYPE
teqc 2000Jul20 Karen Wendt 20030616 22:35:33UTC             PGM / RUN BY / DATE
                                                            COMMENT
L2: 1 -> 1; 150 -> 5; 250 -> 9                              COMMENT
L2: 1 -> 1; 150 -> 5; 250 -> 9                              COMMENT
L2: 1 -> 1; 150 -> 5; 250 -> 9                              COMMENT
L2: 1 -> 1; 150 -> 5; 250 -> 9                              COMMENT
L2: 1 -> 1; 150 -> 5; 250 -> 9                              COMMENT
L2: 1 -> 1; 150 -> 5; 250 -> 9                              COMMENT
L2: 1 -> 1; 150 -> 5; 250 -> 9                              COMMENT
L2: 1 -> 1; 150 -> 5; 250 -> 9                              COMMENT
L2: 1 -> 1; 150 -> 5; 250 -> 9                              COMMENT
L2: 1 -> 1; 150 -> 5; 250 -> 9                              COMMENT
L2: 1 -> 1; 150 -> 5; 250 -> 9                              COMMENT
L2: 1 -> 1; 150 -> 5; 250 -> 9                              COMMENT
L2: 1 -> 1; 150 -> 5; 250 -> 9                              COMMENT
L2: 1 -> 1; 150 -> 5; 250 -> 9                              COMMENT
Original Marker Name: jctn Junction_1950                    COMMENT
Campaign Name: USGS Death Valley 2003                       COMMENT
4-Character Station Name: JCTN                              COMMENT
6-Character Antenna Code: DMRCHT                            COMMENT
Vertical Measurement Point: BCR                             COMMENT
Vertical Offset to Rinex Ref. Point: 0.0348                 COMMENT
Radial Measurement Point: ECF                               COMMENT
Radial Offset to Rinex Ref. Point: 0.1897                   COMMENT
Antenna Height from Field Measurement: 1.2890 m             COMMENT
Additional Antenna Identification Info.:                    COMMENT
Turborogue and Ashtech Choke Ring                           COMMENT
Original XYZ: -2289641.2720 -4609186.2685 3755826.6621      COMMENT
New XYZ position is based on association with SCEC monument COMMENT
E1F4X3K1+0011. Position of that monument is believed to be  COMMENT
valid to within 1 m horizontally; vertical accuracy         COMMENT
should be no worse than 3-times this value.                 COMMENT
                                                            COMMENT
Revised Rinex header created by UCSD GPS archive for        COMMENT
GSAC on 20-Apr-2005 (2005:110) 16:32:41 GMT                 COMMENT
For assistance contact dagnew@ucsd.edu                      COMMENT
or anderson@python.ucsd.edu                                 COMMENT
                                                            COMMENT
JUNCTION 1950                                               MARKER NAME
JLS US GEOLOGICAL SURVEY                                    OBSERVER / AGENCY
LP019992809 ASHTECH Z-XII3 CD00                             REC # / TYPE / VERS
CR14333 DORNE-MARGOL. TYPE T                                ANT # / TYPE
 -2289662.0000 -4609168.0000  3755819.0000                  APPROX POSITION XYZ
        1.2402        0.0000        0.0000                  ANTENNA: DELTA H/E/N
     1     1     0                                          WAVELENGTH FACT L1/2
     5    C1    L1    L2    P1    P2                        # / TYPES OF OBSERV
    30                                                      INTERVAL
  2003     6    10    15    51   30.000000                  TIME OF FIRST OBS
  2003     6    10    22    30   30.000000                  TIME OF LAST OBS
                                                            END OF HEADER
 03  6 10 15 51 30.0000000  0  9G 5G26G30G21G29G18G 6G10G17
  23960070.764      316683.46549    227145.82745  23960068.839    23960077.479
  23563683.865     -237891.70749   -171439.13145  23563683.691    23563692.051
  22074565.285      253731.66649    182740.74247  22074565.177    22074571.077
  21884720.937     -181433.41049   -129808.82847  21884720.253    21884725.015
  23413039.870     -190491.40049   -137594.05745  23413039.671    23413046.990
  24313755.439     -354675.42049   -254461.40945                  24313753.569
  24313759.898     -114892.01649    -84973.93643
  21715361.283      219927.89349    160637.82447  21715360.089    21715366.244
  21183804.729     -101293.44949    -74421.08847  21183804.267    21183810.550
 03  6 10 15 52  0.0000000  0  9G 5G26G30G21G29G18G 6G10G17
  23926738.052      141523.44049     90657.37145  23926737.404    23926745.745
  23492690.313     -610965.03849   -462145.57845  23492689.890    23492698.172
  22037564.132       59290.51649     31228.09747  22037564.292    22037570.193
  21821134.731     -515579.11749   -390182.10047  21821134.453    21821139.229
  23348842.767     -527848.11249   -400469.32745  23348842.784    23348850.197
  24239549.042     -744622.02849   -558315.88845                  24239548.469
  24239556.280     -427949.91249   -238466.11147                  20497044.559
  21675632.283       11153.26949     -2043.73047  21675631.622    21675637.779
  21124931.444     -410674.38649   -315497.14047  21124931.035    21124937.300
 03  6 10 15 52 30.0000000  0  9G 5G26G30G21G29G18G 6G10G17
  23946917.148      247563.64149    173285.95845  23946916.454    23946924.665
  23475228.959     -702726.18749   -533647.72745  23475228.458    23475236.563
  22054126.911      146327.55549     99049.08947  22054126.925    22054132.858
  21811091.256     -568359.26249   -431309.47847  21811090.756    21811095.505
  23338214.241     -583702.26649   -443991.98445  23338214.072    23338221.494
  24218869.819     -853293.06149   -642994.57745  24218869.566    24218877.056
  20491036.262     -459497.28449   -263048.49247  20491036.051    20491041.345
  21689487.586       83962.20949     54690.47547  21689486.721    21689492.949
  21119604.016     -438671.46249   -337313.07847  21119603.373    21119609.652
 03  6 10 15 53  0.0000000  0  9G 5G26G30G21G29G18G 6G10G17
  23967102.653      353638.37149    255941.47645  23967101.910    23967110.147
  23457795.956     -794335.82449   -605031.81845  23457795.606    23457803.778
  22070748.988      233676.40049    167113.05647  22070748.898    22070754.857
  21801085.914     -620938.20249   -472280.07547  21801085.293    21801090.090
  23327650.478     -639215.70649   -487249.13345  23327650.224    23327657.645
  24198211.936     -961851.08649   -727585.21145  24198211.608    24198219.126
  20485099.317     -490696.59149   -287359.64848  20485099.031    20485104.298
  21703422.160      157188.43549    111749.84147  21703421.224    21703427.492
  21114318.256     -466448.65749   -358957.68447  21114317.582    21114323.863
 03  6 10 15 53 30.0000000  0  9G 5G26G30G21G29G18G 6G10G17
  23987294.118      459744.57349    338621.49845  23987293.342    23987301.656
  23440392.609     -885790.58049   -676295.23945  23440392.394    23440400.486
  22087429.784      321334.16549    235417.73347  22087429.680    22087435.646
  21791118.874     -673315.69049   -513093.70047  21791118.223    21791123.028
  23317152.002     -694385.61549   -530238.62945  23317151.751    23317159.130
  24177575.977    -1070293.91749   -812086.06645  24177575.423    24177583.297
  20479228.896     -521545.94349   -311398.11148  20479228.605    20479233.871
  21717435.575      230828.96249    169132.02847  21717434.603    21717440.880
  21109074.284     -494006.14749   -380431.02747  21109073.582    21109079.868
 03  6 10 15 54  0.0000000  0  9G 5G26G30G21G29G18G 6G10G17
  24007491.270      565880.51849    421324.71645  24007490.460    24007498.779
  23423019.600     -977086.37349   -747434.78745  23423019.442    23423027.484
  22104168.925      409298.61049    303961.37847  22104168.852    22104174.811
  21781190.196     -725491.49249   -553750.16747  21781189.536    21781194.293
  23306719.534     -749208.62049   -572957.78445  23306719.234    23306726.536
  24156962.607    -1178618.58849   -896494.87245  24156962.033    24156969.775
  20473425.569     -552043.01049   -335162.07348  20473425.233    20473430.510
  21731527.475      304881.95549    226835.62247  21731526.497    21731532.735
  21103872.043     -521344.34049   -401733.48847  21103871.334    21103877.615
 03  6 10 15 54 30.0000000  0  9G 5G26G30G21G29G18G 6G10G17
  24027693.462      672042.82349    504048.45945  24027692.654    24027700.971
  23405677.332    -1068220.20349   -818448.14645  23405677.167    23405685.269
  22120965.707      497566.03249    372741.12147  22120965.634    22120971.583
  21771299.749     -777466.39449   -594250.09147  21771299.054    21771303.805
  23296353.542     -803682.69449   -615405.07445  23296353.210    23296360.448
  24136371.864    -1286824.03749   -980810.77845  24136371.308    24136379.088
  20467689.370     -582187.01149   -358650.91448  20467689.024    20467694.310
  21745697.187      379344.08849    284858.02647  21745696.198    21745702.448
  21098711.342     -548464.25449   -422865.87747  21098710.607    21098716.877
 03  6 10 15 55  0.0000000  0  9G 5G26G30G21G29G18G 6G10G17
  24047900.129      778228.27949    586790.24145  24047899.195    24047907.550
  23388366.505    -1159189.24949   -889333.09245  23388366.281    23388374.453
  22137819.555      586133.03749    441754.29047  22137819.496    22137825.405
  21761447.449     -829240.62349   -634593.64447  21761446.774    21761451.521
  23286054.138     -857806.10049   -657579.11245  23286053.850    23286061.041
  24115804.289    -1394908.36449  -1065032.30745  24115803.606    24115811.333
  20462020.579     -611976.82549   -381863.76848  20462020.218    20462025.501
  21759944.138      454211.85449    343196.50247  21759943.125    21759949.374
  21093592.072     -575366.40249   -443828.58947  21093591.341    21093597.617
 03  6 10 15 55 30.0000000  0  9G 5G26G30G21G29G18G 6G10G17
  24068110.945      884436.05349    669549.39845  24068109.884    24068118.397
  23371088.085    -1249988.17849   -960085.47845  23371087.802    23371095.975
  22154730.196      674998.55649    511000.07346  22154730.129    22154736.025
  21751633.626     -880812.76849   -674779.72847  21751632.938    21751637.702
  23275822.485     -911574.09449   -699476.20545  23275822.104    23275829.291
  24095260.451    -1502867.49649  -1149156.26945  24095259.779    24095267.318
  20456419.867     -641408.91949   -404797.87548  20456419.486    20456424.799
  21774268.060      529484.37149    401850.37747  21774267.058    21774273.306
  21088514.462     -602049.44249   -464620.57147  21088513.726    21088520.012
 03  6 10 15 56  0.0000000  0  9G 5G26G30G21G29G18G 6G10G17
  24088325.185      990662.26549    752322.93545  24088324.180    24088332.740
  23353842.413    -1340614.48249  -1030703.36145  23353842.132    23353850.379
  22171696.778      764158.27249    580475.10246  22171696.744    22171702.656
  21741857.983     -932184.13949   -714809.36547  21741857.275    21741862.016
  23265658.642     -964985.48349   -741095.43045  23265658.240    23265665.403
  24074740.442    -1610700.95849  -1233182.29345  24074739.865    24074747.345
  20450887.283     -670483.00649   -427453.02148  20450886.905    20450892.223
  21788668.303      605157.87049    460816.68947  21788667.289    21788673.561
  21083478.243     -628515.22749   -485243.26647  21083477.482    21083483.768
 03  6 10 15 56 30.0000000  0  9G 5G26G30G21G29G18G 6G10G17
  24108542.474     1096904.61349    835109.03945  24108541.603    24108550.123
  23336630.390    -1431064.38449  -1101183.79545  23336630.097    23336638.415
  22188718.838      853609.48049    650177.26246  22188718.809    22188724.712
  21732120.611     -983354.56249   -754682.42747  21732119.926    21732124.663
  23255563.156    -1018037.23649   -782434.40345  23255562.829    23255569.978
  24054244.839    -1718406.12349  -1317108.34545  24054244.213    24054251.809
  20445423.189     -699197.14449   -449827.69248  20445422.818    20445428.112
  21803144.370      681229.85949    520093.51847  21803143.348    21803149.636
  21078483.339     -654763.79749   -505696.71447  21078482.590    21078488.871
 03  6 10 15 57  0.0000000  0  9G 5G26G30G21G29G18G 6G10G17
  24128762.340     1203160.39649    917905.62745  24128761.525    24128770.138
  23319452.623    -1521334.39449  -1171524.05645  23319452.329    23319460.661
  22205795.841      943349.29549    720104.31346  22205795.787    22205801.739
  21722421.483    -1034324.21849   -794399.04147  21722420.771    21722425.472
  23245536.608    -1070726.69149   -823491.07145  23245536.271    23245543.493
  24033773.993    -1825980.86649  -1400932.75145  24033773.455    24033781.004
  20440027.900     -727549.68449   -471920.59148  20440027.523    20440032.839
  21817695.721      757697.35349    579678.54247  21817694.694    21817701.000
  21073529.753     -680795.23649   -525980.96947  21073528.999    21073535.283
 03  6 10 15 57 30.0000000  0  9G 5G26G30G21G29G18G 6G10G17
  24148984.335     1309427.10049   1000710.71445  24148983.576    24148992.205
  23302309.654    -1611420.87749  -1241721.29645  23302309.497    23302317.710
  22222927.113     1033374.78249    790253.95446  22222927.108    22222933.142
  21712760.497    -1085092.98549   -833959.10847  21712759.779    21712764.525
  23235579.609    -1123051.31749   -864263.47045  23235579.273    23235586.391
  24013328.359    -1933423.07349  -1484653.89845  24013327.869    24013335.448
  20434701.788     -755538.91049   -493730.39348  20434701.420    20434706.727
  21832321.788      834557.62449    639569.61947  21832320.789    21832327.074
  21068617.326     -706610.16449   -546096.48947  21068616.570    21068622.875
 03  6 10 15 58  0.0000000  0  9G 5G26G30G21G29G18G 6G10G17
  24169207.913     1415701.99049   1083522.19845  24169207.105    24169215.722
  23285202.321    -1701320.39249  -1311772.83245  23285202.080    23285210.387
  22240112.306     1123683.04649    860623.93646  22240112.290    22240118.372
  21703137.760    -1135661.01449   -873362.76447  21703137.031    21703141.760
  23225692.531    -1175008.51749   -904749.56246  23225692.168    23225699.271
  23992908.525    -2040730.41049  -1568269.94045  23992907.996    23992915.657
  20429445.081     -783163.21049   -515255.83448  20429444.710    20429450.012
  21847022.086      911807.90449    699764.60047  21847021.062    21847027.373
  21063746.003     -732209.32049   -566043.89747  21063745.243    21063751.566
 03  6 10 15 58 30.0000000  0  9G 5G26G30G21G29G18G 6G10G17
  24189432.483     1521982.64449   1166338.15445  24189431.556    24189440.372
  23268131.307    -1791029.20749  -1381675.80045  23268131.058    23268139.283
  22257350.758     1214271.19949    931212.02646  22257350.716    22257356.808
  21693553.213    -1186028.27249   -912609.97347  21693552.496    21693557.223
  23215875.824    -1226595.67349   -944947.30346  23215875.494    23215882.559
  23972514.707    -2147900.73349  -1651779.24145  23972514.114    23972521.745
  20424258.177     -810420.73549   -536495.48148  20424257.800    20424263.111
  21861796.134      989445.76249    760261.59247  21861795.124    21861801.473
  21058915.771     -757592.55149   -585823.03147  21058915.006    21058921.316
 03  6 10 15 59  0.0000000  0 10G 5G26G30G21G29G18G15G 6G10G17
  24209657.076     1628263.07449   1249153.91245  24209656.124    24209665.057
  23251096.608    -1880547.13049  -1451429.95645  23251096.471    23251104.568
  22274641.209     1305132.86449   1002013.24246  22274641.217    22274647.348
  21684006.221    -1236198.34449   -951703.53647  21684005.476    21684010.206
  23206129.412    -1277813.52149   -984857.28346  23206129.052    23206136.098
  23952146.595    -2254935.41049  -1735182.84845  23952146.084    23952153.570
  24744155.345    -1805730.02049  -1392352.82445  24744154.317    24744164.272
  20419140.724     -837313.26149   -557450.69747  20419140.343    20419145.677
  21876642.710     1067464.86949    821055.66647  21876641.686    21876648.055
  21054125.871     -782763.69849   -605436.90947  21054125.112    21054131.437
 03  6 10 15 59 30.0000000  0 10G 5G26G30G21G29G18G15G 6G10G17
  24229880.142     1734535.42149   1331963.37745  24229879.233    24229888.324
  23234097.916    -1969876.04749  -1521036.86845  23234097.839    23234105.742
  22291982.164     1396259.72449   1073021.09446  22291982.171    22291988.325
  21674495.741    -1286176.36149   -990647.44547  21674495.009    21674499.735
  23196452.774    -1328664.96249  -1024481.74446  23196452.390    23196459.415
  23931803.734    -2361837.67749  -1818483.24445  23931803.237    23931810.668
  24728412.050    -1888461.75249  -1456819.09445  24728411.127    24728420.697
  20414092.031     -863844.39249   -578124.32048  20414091.668    20414097.004
  21891560.272     1145856.98449    882140.38747  21891559.259    21891565.635
  21049375.263     -807728.42249   -624889.95447  21049374.491    21049380.828
 03  6 10 16  0  0.0000000  0 10G 5G26G30G21G29G18G15G 6G10G17
  24250103.809     1840810.89049   1414775.28845  24250102.973    24250111.945
  23217138.604    -2058998.11949  -1590482.59645  23217138.439    23217146.483
  22309375.696     1487662.82649   1144244.20146  22309375.700    22309381.867
  21665024.278    -1335949.30249  -1029431.55347  21665023.536    21665028.295
  23186848.898    -1379133.46149  -1063807.81746  23186848.509    23186855.551
  23911489.148    -2468591.62049  -1901668.06845  23911488.532    23911496.026
  24712685.561    -1971104.85449  -1521216.29145  24712684.914    24712694.316
  20409115.036     -889998.83449   -598504.41448  20409114.664    20409119.999
  21906550.991     1224633.53649    943524.67147  21906549.961    21906556.382
  21044666.492     -832473.47249   -644171.81847  21044665.711    21044672.044
 03  6 10 16  0 30.0000000  0 10G 5G26G30G21G29G18G15G 6G10G17
  24270327.250     1947084.67049   1497585.87945  24270326.432    24270335.394
  23200218.791    -2147912.33149  -1659766.34245  23200218.693    23200226.647
  22326820.745     1579336.84749   1215678.41546  22326820.794    22326826.946
  21655591.565    -1385518.45649  -1068056.86547  21655590.836    21655595.611
  23177317.924    -1429218.83249  -1102835.35346  23177317.617    23177324.603
  23891202.678    -2575197.23749  -1984737.33145  23891202.105    23891209.618
  24696975.648    -2053661.31549  -1585545.97545  24696974.711    24696984.178
  20404209.610     -915777.15549   -618591.42648  20404209.240    20404214.581
  21921613.917     1303789.47549   1005204.58647  21921612.893    21921619.271
  21039999.083     -857000.90449   -663284.10347  21039998.312    21040004.639
 03  6 10 16  1  0.0000000  0 10G 5G26G30G21G29G18G15G 6G10G17
  24290549.616     2053352.62849   1580391.94645  24290548.573    24290557.523
  23183338.839    -2236616.78949  -1728886.65045  23183338.848    23183346.658
  22344316.539     1671277.28149   1287320.21846  22344316.581    22344322.759
  21646197.301    -1434885.83749  -1106524.95047  21646196.570    21646201.304
  23167860.069    -1478920.10849  -1141563.57346  23167859.775    23167866.774
  23870944.616    -2681654.11949  -2067690.70445  23870944.020    23870951.684
  24681281.776    -2136132.51649  -1649809.18944  24681280.955    24681290.412
  20399375.796     -941179.25049   -638385.28248  20399375.416    20399380.756
  21936748.248     1383320.48049   1067176.76647  21936747.196    21936753.606
  21035372.663     -881313.15149   -682228.71647  21035371.885    21035378.206
 03  6 10 16  1 30.0000000  0 11G 5G16G26G30G21G29G18G15G 6G10G17
  24310770.769     2159614.63949   1663193.37545  24310769.914    24310778.545
  24740784.758     -928775.90949   -711262.80244  24740783.912    24740789.582
  23166500.037    -2325105.24649  -1797838.61245  23166499.976    23166507.827
  22361862.915     1763483.62449   1359169.21846  22361862.944    22361869.141
  21636841.814    -1484049.18849  -1144834.04347  21636841.097    21636845.814
  23158476.281    -1528232.20749  -1179988.55846  23158476.011    23158482.907
  23850715.734    -2787957.51349  -2150524.47245  23850715.124    23850722.791
  24665604.701    -2218515.80649  -1714003.95045  24665603.988    24665613.369
  20394614.340     -966201.03849   -657882.78748  20394613.972    20394619.304
  21951953.832     1463226.12549   1129440.88147  21951952.769    21951959.181
  21030787.524     -905408.18049   -701004.06447  21030786.769    21030793.087
 03  6 10 16  2  0.0000000  0 11G 5G16G26G30G21G29G18G15G 6G10G17
  24330989.545     2265864.21749   1745985.12145  24330988.537    24330997.355
  24725229.042    -1010521.11949   -774960.34745  24725228.041    24725234.151
  23149702.257    -2413378.12249  -1866622.60045  23149702.174    23149710.084
  22379458.520     1855948.89749   1431219.99146  22379458.573    22379464.794
  21627524.401    -1533012.56849  -1182987.32647  21627523.697    21627528.411
  23149166.254    -1577156.69649  -1218111.48746  23149165.976    23149172.888
  23830515.735    -2894109.38149  -2233240.17945  23830515.127    23830522.740
  24649943.699    -2300815.26049  -1778133.34745  24649942.919    24649952.417
  20389924.769     -990845.02349   -677085.90848  20389924.389    20389929.745
  21967229.352     1543499.47849   1191991.50647  21967228.294    21967234.736
  21026242.957     -929290.08449   -719613.34947  21026242.195    21026248.509
 03  6 10 16  2 30.0000000  0 11G 5G16G26G30G21G29G18G15G 6G10G17
  24351205.344     2372098.31249   1828764.80545  24351204.531    24351213.128
  24709738.549    -1091923.93149   -838391.14845  24709737.774    24709743.940
  23132946.092    -2501432.27349  -1935236.13145  23132945.965    23132953.793
  22397102.811     1948669.73649   1503469.90346  22397102.858    22397109.103
  21618244.936    -1581776.64449  -1220985.30147  21618244.211    21618248.947
  23139930.404    -1625691.55649  -1255930.83446  23139930.080    23139936.984
  23810344.936    -3000107.99349  -2315836.44245  23810344.352    23810351.792
  24634298.556    -2383031.07549  -1842197.60445  24634297.881    24634307.146
  20385307.344    -1015109.90249   -695993.62248  20385306.976    20385312.315
  21982574.339     1624137.67649   1254826.43347  21982573.271    21982579.750
  21021738.792     -952959.68749   -738057.19547  21021738.034    21021744.366
 03  6 10 16  3  0.0000000  0 11G 5G16G26G30G21G29G18G15G 6G10G17
  24371417.369     2478313.30849   1911529.58445  24371416.659    24371425.254
  24694313.514    -1172982.87249   -901553.93945  24694312.753    24694319.103
  23116232.077    -2589265.17549  -2003677.27445  23116231.955    23116239.721
  22414795.012     2041641.98049   1575915.71146  22414795.010    22414801.265
  21609003.172    -1630342.42149  -1258828.75847  21609002.469    21609007.222
  23130768.925    -1673835.31149  -1293445.42346  23130768.653    23130775.493
  23790203.443    -3105952.50349  -2398312.64445  23790202.746    23790210.216
  24618669.086    -2465164.41649  -1906197.60845  24618668.520    24618677.805
  20380762.129    -1038995.21449   -714605.56548  20380761.762    20380767.101
  21997987.950     1705136.72549   1317942.53347  21997986.881    21997993.411
  21017274.810     -976418.20949   -756336.56547  21017274.054    21017280.396
 03  6 10 16  3 30.0000000  0 11G 5G16G26G30G21G29G18G15G 6G10G17
  24391625.604     2584508.20449   1994278.68045  24391624.859    24391633.643
  24678954.745    -1253694.05349   -964445.76845  24678953.935    24678960.302
  23099561.052    -2676871.78749  -2071942.08645  23099560.927    23099568.674
  22432534.687     2134864.23149   1648556.32546  22432534.689    22432540.958
  21599799.454    -1678708.34249  -1296516.49047  21599798.750    21599803.476
  23121682.652    -1721584.15049  -1330652.28646  23121682.342    23121689.219
  23770091.851    -3211639.20149  -2480665.91045  23770091.118    23770098.584
  24603055.747    -2547213.55049  -1970131.93845  24603054.989    24603064.271
  20376289.716    -1062497.93149   -732919.39048  20376289.368    20376294.711
  22013469.925     1786495.11949   1381338.63347  22013468.893    22013475.439
  21012851.152     -999664.88549   -774450.86847  21012850.376    21012856.700
 03  6 10 16  4  0.0000000  0 11G 5G16G26G30G21G29G18G15G 6G10G17
  24411829.747     2690681.20249   2077010.72245  24411829.072    24411837.852
  24663662.662    -1334054.50249  -1027064.30345  24663662.092    24663668.321
  23082933.963    -2764247.66449  -2140027.08245  23082933.827    23082941.552
  22450321.501     2228334.34949   1721390.08146  22450321.536    22450327.813
  21590633.885    -1726873.94349  -1334048.12647  21590633.176    21590637.866
  23112672.067    -1768934.79749  -1367548.87246  23112671.760    23112678.639
  23750010.880    -3317165.25449  -2562894.02145  23750010.250    23750017.604
  24587458.420    -2629177.34349  -2033999.77545  24587457.617    24587466.903
  20371890.629    -1085615.53549   -750933.12248  20371890.264    20371895.610
  22029020.063     1868211.07949   1445013.35447  22029018.997    22029025.541
  21008467.909    -1022699.03049   -792399.56447  21008467.141    21008473.454
 03  6 10 16  4 30.0000000  0 11G 5G16G26G30G21G29G18G15G 6G10G17
  24432029.247     2796830.39349   2159724.22845  24432028.589    24432037.709
  24648437.873    -1414060.90249  -1089406.94745  24648437.222    24648443.703
  23066351.580    -2851388.71549  -2207929.09745  23066351.457    23066359.197
  22468155.073     2322050.02049   1794415.17746  22468155.100    22468161.380
  21581506.533    -1774838.54049  -1371423.13347  21581505.814    21581510.504
  23103737.902    -1815883.95049  -1404132.60246  23103737.586    23103744.517
  23729961.051    -3422527.51049  -2644994.38545  23729960.480    23729967.817
  24571877.596    -2711054.96249  -2097800.48745  24571876.794    24571886.231
  20367565.215    -1108345.89549   -768645.10648  20367564.868    20367570.190
  22044637.832     1950282.52649   1508965.08347  22044636.716    22044643.224
  21004125.110    -1045520.63049   -810182.63047  21004124.357    21004130.645
 03  6 10 16  5  0.0000000  0 11G 5G16G26G30G21G29G18G15G 6G10G17
  24452223.759     2902952.50049   2242416.62845  24452223.187    24452232.055
  24633280.781    -1493711.74449  -1151472.54745  24633280.244    24633286.835
  23049814.336    -2938292.00249  -2275645.83245  23049814.226    23049822.051
  22486034.632     2416007.41749   1867628.64146  22486034.642    22486040.943
  21572417.353    -1822602.62449  -1408641.89347  21572416.637    21572421.318
  23094880.455    -1862430.08049  -1440402.28646  23094880.098    23094886.982
  23709942.674    -3527725.28449  -2726966.65045  23709941.959    23709949.330
  24556313.036    -2792847.13849  -2161534.58945  24556312.249    24556321.563
  20363313.645    -1130688.26049   -786054.75348  20363313.262    20363318.610
  22060322.534     2032705.87849   1573191.02546  22060321.437    22060327.896
  20999822.605    -1068130.68949   -827800.86047  20999821.826    20999828.113
 03  6 10 16  5 30.0000000  0 11G 5G16G26G30G21G29G18G15G 6G10G17
  24472412.302     3009041.99749   2325083.57545  24472411.651    24472420.417
  24618191.374    -1573007.68149  -1213261.61445  24618190.741    24618197.281
  23033322.378    -3024957.10949  -2343176.98545  23033322.293    23033330.148
  22503959.068     2510200.53849   1941025.78246  22503959.123    22503965.419
  21563365.662    -1870169.83449  -1445707.24847  21563364.923    21563369.585
  23086099.658    -1908573.88349  -1476358.47246  23086099.266    23086106.148
  23689955.389    -3632759.09149  -2808811.10545  23689954.646    23689961.983
  24540764.176    -2874556.77549  -2225204.43545  24540763.473    24540772.573
  20359135.634    -1152643.96849   -803163.11648  20359135.254    20359140.573
  22076073.142     2115475.37149   1637686.68046  22076072.063    22076078.465
  20995559.746    -1090532.31849   -845256.67947  20995558.977    20995565.248
 03  6 10 16  6  0.0000000  0 11G 5G16G26G30G21G29G18G15G 6G10G17
  24492594.478     3115098.70949   2407725.01045  24492593.709    24492602.496
  24603170.276    -1651944.13349  -1274770.57645  24603169.780    24603176.254
  23016876.981    -3111378.03049  -2410517.85845  23016876.848    23016884.743
  22521928.251     2604628.62849   2014606.01246  22521928.253    22521934.571
  21554351.858    -1917537.57849  -1482617.17147  21554351.143    21554355.821
  23077396.236    -1954310.73249  -1511997.55646  23077395.891    23077402.737
  23670000.051    -3737624.45049  -2890524.32645  23669999.391    23670006.745
  24525231.545    -2956181.43449  -2288808.05945  24525230.776    24525239.952
  20355031.940    -1174209.11549   -819967.14348  20355031.575    20355036.883
  22091889.429     2198590.24949   1702451.46446  22091888.354    22091894.750
  20991336.797    -1112724.00749   -862548.90947  20991336.020    20991342.303
 03  6 10 16  6 30.0000000  0 11G 5G16G26G30G21G29G18G15G 6G10G17
  24512770.077     3221120.12249   2490338.92045  24512769.093    24512777.936
  24588218.149    -1730518.48549  -1335997.38045  24588217.581    24588224.075
  23000478.658    -3197551.30149  -2477665.77745  23000478.540    23000486.427
  22539941.554     2699288.82549   2088367.11646  22539941.563    22539947.964
  21545376.000    -1964705.94449  -1519371.73747  21545375.297    21545379.991
  23068770.732    -1999638.08349  -1547317.54546  23068770.373    23068777.148
  23650077.067    -3842319.54749  -2972104.86245  23650076.503    23650083.893
  24509715.128    -3037720.73549  -2352345.14845  24509714.357    24509723.682
  20351002.899    -1195382.05249   -836465.55048  20351002.544    20351007.862
  22107770.871     2282047.71849   1767483.20646  22107769.829    22107776.241
  20987153.837    -1134705.77249   -879677.56247  20987153.076    20987159.362
 03  6 10 16  7  0.0000000  0 11G 5G16G26G30G21G29G18G15G 6G10G17
  24532938.392     3327104.16349   2572923.69545  24532937.341    24532946.250
  24573335.311    -1808728.13449  -1396939.93145  24573334.784    24573341.201
  22984128.319    -3283472.76949  -2544617.49645  22984128.239    22984135.985
  22557998.528     2794178.55249   2162307.05846  22557998.553    22558004.947
  21536438.166    -2011674.70849  -1555970.75747  21536437.454    21536442.140
  23060223.621    -2044553.26549  -1582316.35146  23060223.299    23060230.028
  23630187.141    -3946841.86749  -3053550.77645  23630186.562    23630193.886
  24494214.985    -3119174.22049  -2415815.31445  24494214.149    24494223.552
  20347048.813    -1216161.03149   -852656.97648  20347048.451    20347053.768
  22123717.102     2365845.53649   1832780.14546  22123716.070    22123722.501
  20983010.767    -1156477.60949   -896642.63647  20983010.024    20983016.312
 03  6 10 16  7 30.0000000  0 11G 5G16G26G30G21G29G18G15G 6G10G17
  24553098.994     3433047.77049   2655476.98745  24553097.864    24553106.971
  24558522.302    -1886571.04949  -1457596.71245  24558521.759    24558528.387
  22967826.426    -3369139.45249  -2611370.67845  22967826.345    22967834.141
  22576098.586     2889294.33249   2236423.15846  22576098.572    22576105.002
  21527538.067    -2058444.99349  -1592415.12447  21527537.346    21527542.035
  23051755.362    -2089054.34349  -1616992.49246  23051754.992    23051761.740
  23610330.390    -4051189.81049  -3134860.81345  23610329.779    23610337.176
  24478731.183    -3200542.33849  -2479218.97845  24478730.317    24478739.619
  20343169.916    -1236544.89849   -868540.52248  20343169.567    20343174.881
  22139727.565     2449980.69549   1898339.97446  22139726.516    22139732.981
  20978907.554    -1178040.33949   -913444.76547  20978906.815    20978913.090
 03  6 10 16  8  0.0000000  0 11G 5G16G26G30G21G29G18G15G 6G10G17
  24573251.463     3538948.40549   2737996.76245  24573250.272    24573259.216
  24543779.366    -1964045.37249  -1517966.29045  24543778.765    24543785.332
  22951573.658    -3454547.84649  -2677922.58245  22951573.587    22951581.402
  22594241.022     2984633.04549   2310712.96446  22594241.022    22594247.480
  21518675.877    -2105016.08849  -1628704.29347  21518675.171    21518679.861
  23043366.219    -2133139.20749  -1651344.30246  23043365.870    23043372.688
  23590507.245    -4155361.11849  -3216033.21545  23590506.682    23590514.026
  24463263.556    -3281825.06149  -2542556.09845  24463262.745    24463272.084
  20339366.439    -1256532.33649   -884115.16848  20339366.080    20339371.427
  22155801.547     2534450.08749   1964160.24446  22155800.508    22155807.030
  20974844.057    -1199394.24349   -930084.17747  20974843.328    20974849.591
 03  6 10 16  8 30.0000000  0 11G 5G16G26G30G21G29G18G15G 6G10G17
  24593395.210     3644803.91649   2820481.38945  24593393.917    24593403.083
  24529107.284    -2041147.98149  -1578046.20745  24529106.783    24529113.304
  22935370.794    -3539693.90849  -2744270.10045  22935370.724    22935378.539
  22612425.380     3080192.21749   2385174.55846  22612425.393    22612431.918
  21509851.643    -2151387.96449  -1664838.21247  21509850.920    21509855.615
  23035056.817    -2176804.85649  -1685369.45346  23035056.492    23035063.380
  23570718.076    -4259353.57949  -3297066.24845  23570717.482    23570724.865
  24447812.390    -3363021.77849  -2605826.20345  24447811.562    24447820.752
  20335638.788    -1276121.23949   -899379.26148  20335638.440    20335643.795
  22171938.769     2619251.46149   2030239.20246  22171937.727    22171944.259
  20970820.247    -1220539.51849   -946561.02147  20970819.504    20970825.779
 03  6 10 16  9  0.0000000  0 11G 5G16G26G30G21G29G18G15G 6G10G17
  24613529.866     3750611.54849   2902928.72645  24613528.539    24613537.682
  24514506.115    -2117876.95449  -1637834.95045  24514505.531    24514512.172
  22919218.442    -3624574.44449  -2810410.72545  22919218.366    22919226.174
  22630651.071     3175968.28849   2459805.14546  22630651.106    22630657.606
  21501065.154    -2197561.10149  -1700817.26747  21501064.453    21501069.149
  23026827.585    -2220049.50549  -1719066.55346  23026827.279    23026834.211
  23550963.189    -4363165.61049  -3377958.69345  23550962.678    23550970.033
  24432377.371    -3444132.77249  -2669029.50745  24432376.638    24432385.771
  20331987.225    -1295310.51149   -914331.95448  20331986.878    20331992.221
  22188138.507     2704381.46349   2096574.22846  22188137.462    22188144.037
  20966836.037    -1241476.77749   -962875.77047  20966835.302    20966841.569
 03  6 10 16  9 30.0000000  0 11G 5G16G26G30G21G29G18G15G 6G10G17
  24633654.851     3856369.15249   2985337.06045  24633653.546    24633662.850
  24499976.640    -2194229.64349  -1697330.51945  24499976.110    24499982.730
  22903117.405    -3709185.46349  -2876341.32945  22903117.382    22903125.194
  22648917.548     3271958.90249   2534602.93746  22648917.610    22648924.106
  21492316.565    -2243535.13549  -1736641.18947  21492315.899    21492320.573
  23018679.063    -2262870.54149  -1752433.56946  23018678.721    23018685.681
  23531243.303    -4466794.38749  -3458708.35045  23531242.679    23531250.080
  24416958.732    -3525157.47249  -2732165.56545  24416957.992    24416967.333
  20328412.067    -1314098.21849   -928971.74148  20328411.723    20328417.090
  22204400.311     2789837.62349   2163163.40846  22204399.284    22204405.861
  20962891.437    -1262205.85749   -979028.30647  20962890.693    20962896.960
 03  6 10 16 10  0.0000000  0 11G 5G16G26G30G21G29G18G15G 6G10G17
  24653770.326     3962076.61249   3067706.34745  24653769.190    24653778.469
  24485519.616    -2270201.47649  -1756529.32845  24485519.188    24485525.731
  22887068.917    -3793521.06749  -2942057.34045  22887068.792    22887076.680
  22667224.684     3368163.15049   2609567.19246  22667224.707    22667231.204
  21483606.373    -2289307.60349  -1772308.03247  21483605.689    21483610.387
  23010611.893    -2305263.47649  -1785466.98446  23010611.625    23010618.524
  23511559.135    -4570235.85849  -3539312.05145  23511558.457    23511565.770
  24401557.101    -3606093.47749  -2795232.50745  24401556.494    24401565.646
  20324913.995    -1332480.69349   -943295.75848  20324913.655    20324919.032
  22220724.146     2875619.58949   2230006.46246  22220723.103    22220729.654
  20958986.761    -1282725.12049   -995017.35147  20958986.036    20958992.313
 03  6 10 16 10 30.0000000  0 11G 5G16G26G30G21G29G18G15G 6G10G17
  24673875.002     4067727.56149   3150031.57545  24673874.002    24673883.261
  24471134.750    -2345794.18949  -1815432.75345  24471134.446    24471141.117
  22871072.684    -3877581.79949  -3007559.17545  22871072.616    22871080.335
  22685571.181     3464574.17249   2684692.55746  22685571.205    22685577.759
  21474933.687    -2334882.83649  -1807821.19447  21474933.013    21474937.711
  23002626.059    -2347229.72249  -1818167.92946  23002625.723    23002632.587
  23491910.222    -4673491.73749  -3619771.13845  23491909.550    23491916.740
  24386171.593    -3686944.69549  -2858233.39245  24386170.925    24386180.037
  20321492.635    -1350460.13749   -957305.72448  20321492.284    20321497.661
  22237108.734     2961720.73249   2297098.22846  22237107.670    22237114.226
  20955121.276    -1303038.44449  -1010845.92247  20955120.542    20955126.827
 03  6 10 16 11  0.0000000  0 11G 5G16G26G30G21G29G18G15G 6G10G17
  24693968.661     4173320.37849   3232311.52845  24693967.900    24693977.050
  24456822.685    -2421004.28949  -1874037.94545  24456822.344    24456828.940
  22855129.690    -3961362.94149  -3072843.16645  22855129.593    22855137.243
  22703956.580     3561189.90449   2759977.44546  22703956.618    22703963.255
  21466298.640    -2380260.24149  -1843180.20347  21466297.971    21466302.665
  22994721.892    -2388766.34149  -1850534.07846  22994721.555    22994728.418
  23472297.123    -4776559.06749  -3700083.29345  23472296.497    23472303.689
  24370802.444    -3767710.23149  -2921167.50445  24370801.695    24370810.845
  20318148.449    -1368034.19049   -970999.80048  20318148.099    20318153.468
  22253553.603     3048139.16949   2364437.23146  22253552.586    22253559.158
  20951295.093    -1323145.12349  -1026513.46847  20951294.371    20951300.653
 03  6 10 16 11 30.0000000  0 11G 5G16G26G30G21G29G18G15G 6G10G17
  24714050.767     4278852.83649   3314544.43545  24714050.349    24714059.387
  24442583.906    -2495829.50049  -1932343.28345  24442583.642    24442590.174
  22839240.493    -4044860.85249  -3137906.46745  22839240.403    22839248.082
  22722380.461     3658007.54349   2835419.65246  22722380.523    22722387.260
  21457701.416    -2425439.04349  -1878384.45247  21457700.753    21457705.439
  22986900.043    -2429870.72749  -1882563.45246  22986899.671    22986906.518
  23452720.325    -4879435.70749  -3780246.84745  23452719.650    23452726.920
  24355449.706    -3848389.61949  -2984034.46745  24355448.904    24355458.146
  20314881.651    -1385201.32449   -984376.79748  20314881.300    20314886.677
  22270058.409     3134872.21749   2432021.37346  22270057.370    22270063.972
  20947508.200    -1343045.51549  -1042020.27347  20947507.462    20947513.746
 03  6 10 16 12  0.0000000  0 11G 5G16G26G30G21G29G18G15G 6G10G17
  24734120.866     4384321.74549   3396727.82845  24734120.494    24734129.721
  24428418.734    -2570268.26949  -1990347.52245  24428418.377    24428424.931
  22823405.834    -4128072.62949  -3202746.79545  22823405.715    22823413.396
  22740842.082     3755023.28849   2911016.23646  22740842.103    22740848.861
  21449141.687    -2470420.75449  -1913435.13047  21449141.009    21449145.676
  22979160.579    -2470541.64449  -1914255.04546  22979160.188    22979167.124
  23433180.063    -4982120.44649  -3860260.83445  23433179.348    23433186.619
  24340113.127    -3928983.60449  -3046834.91045  24340112.321    24340121.653
  20311692.496    -1401960.71149   -997436.07148  20311692.138    20311697.536
  22286622.379     3221916.35449   2499847.93346  22286621.373    22286627.944
  20943760.262    -1362741.07949  -1057367.47547  20943759.547    20943765.842
 03  6 10 16 12 30.0000000  0 11G 5G16G26G30G21G29G18G15G 6G10G17
  24754178.655     4489725.81849   3478860.67445  24754178.418    24754187.743
  24414327.844    -2644317.17349  -2048047.96845  24414327.483    24414333.862
  22807626.533    -4210993.59949  -3267360.50545  22807626.379    22807634.085
  22759341.018     3852235.31849   2986765.75446  22759341.045    22759347.785
  21440619.833    -2515203.59449  -1948330.84047  21440619.158    21440623.791
  22971504.212    -2510775.52049  -1945606.09346  22971503.819    22971510.804
  23413676.854    -5084609.95249  -3940122.69345  23413676.200    23413683.573
  24324793.172    -4009490.89949  -3109567.80945  24324792.317    24324801.547
  20308581.351    -1418309.93549  -1010175.73548  20308581.002    20308586.411
  22303245.208     3309269.73549   2567915.46746  22303244.215    22303250.810
  20940051.546    -1382230.63649  -1072554.14947  20940050.824    20940057.108
 03  6 10 16 13  0.0000000  0 11G 5G16G26G30G21G29G18G15G 6G10G17
  24774223.833     4595062.33249   3560940.91045  24774223.482    24774232.750
  24400311.436    -2717974.31749  -2105443.11045  24400311.007    24400317.324
  22791903.146    -4293620.45049  -3331745.06545  22791903.044    22791910.710
  22777876.605     3949640.36049   3062665.68846  22777876.674    22777883.407
  21432135.711    -2559787.80549  -1983071.77247  21432135.022    21432139.670
  22963931.397    -2550570.73349  -1976615.31746  22963931.002    22963937.989
  23394211.108    -5186902.36249  -4019830.97146  23394210.595    23394217.931
  24309489.529    -4089911.56549  -3172233.21545  24309488.652    24309497.960
  20305548.488    -1434247.73749  -1022594.81348  20305548.131    20305553.544
  22319926.363     3396929.48749   2636221.73746  22319925.387    22319931.978
  20936381.964    -1401514.53549  -1087580.57647  20936381.235    20936387.542
 03  6 10 16 13 30.0000000  0 11G 5G16G26G30G21G29G18G15G 6G10G17
  24794255.610     4700328.53549   3642966.31345  24794255.124    24794264.602
  24386369.961    -2791237.54749  -2162531.31545  24386369.457    24386375.800
  22776236.408    -4375949.94949  -3395897.91745  22776236.220    22776243.848
  22796448.339     4047235.20949   3138713.50946  22796448.427    22796455.209
  21423689.281    -2604174.06449  -2017658.45947  21423688.619    21423693.275
  22956442.517    -2589925.15849  -2007281.06346  22956442.115    22956449.059
  23374783.289    -5288996.16149  -4099384.49446  23374782.745    23374790.025
  24294202.338    -4170245.73549  -3234831.22245  24294201.534    24294210.893
  20302594.181    -1449772.84849  -1034692.31348  20302593.827    20302599.239
  22336665.224     3484892.78149   2704764.52346  22336664.259    22336670.822
  20932751.364    -1420593.56049  -1102447.35947  20932750.628    20932756.936
 03  6 10 16 14  0.0000000  0 11G 5G16G26G30G21G29G18G15G 6G10G17
  24814273.650     4805522.55449   3724935.49645  24814272.946    24814282.516
  24372503.964    -2864104.20849  -2219310.53145  24372503.357    24372509.798
  22760626.974    -4457977.98149  -3459815.86345  22760626.885    22760634.381
  22815055.795     4145017.31649   3214907.25146  22815055.855    22815062.687
  21415280.486    -2648362.51049  -2052091.00447  21415279.810    21415284.479
  22949037.993    -2628836.12949  -2037601.27546  22949037.612    22949044.489
  23355393.782    -5390888.85649  -4178781.31846  23355393.198    23355400.414
  24278931.781    -4250492.91149  -3297361.46045  24278930.996    24278940.419
  20299718.776    -1464883.33649  -1046466.72848  20299718.427    20299723.849
  22353461.424     3573157.04649   2773541.83846  22353460.421    22353467.013
  20929159.714    -1439467.78749  -1117154.55547  20929158.975    20929165.296
 03  6 10 16 14 30.0000000  0 10G16G26G30G21G29G18G15G 6G10G17
  24358713.828    -2936571.75449  -2275778.76745  24358713.253    24358719.715
  22745075.615    -4539700.60849  -3523495.81045  22745075.512    22745083.106
  22833698.353     4242984.15649   3291244.94246  22833698.409    22833705.306
  21406909.539    -2692352.11049  -2086368.61447  21406908.855    21406913.541
  22941718.360    -2667301.19349  -2067574.02346  22941717.979    22941724.830
  23336042.922    -5492577.82249  -4258019.38546  23336042.354    23336049.568
  24263677.851    -4330652.47649  -3359823.41845  24263677.086    24263686.491
  20296922.575    -1479577.52549  -1057916.76348  20296922.213    20296927.624
  22370314.336     3661719.76149   2842551.71146  22370313.334    22370319.964
  20925607.107    -1458136.89449  -1131701.92447  20925606.384    20925612.721
 03  6 10 16 15  0.0000000  0 10G16G26G30G21G29G18G15G 6G10G17
  24344999.996    -3008638.62349  -2331934.80845  24344999.458    24345005.836
  22729582.975    -4621115.09449  -3586935.64946  22729582.867    22729590.367
  22852375.291     4341131.90849   3367723.59946  22852375.379    22852382.327
  21398576.295    -2736143.55649  -2120491.80647  21398575.624    21398580.306
  22934483.835    -2705318.99049  -2097198.23846  22934483.448    22934490.311
  23316731.050    -5594061.85349  -4337097.74646  23316730.513    23316737.781
  24248440.516    -4410724.95249  -3422217.52345  24248439.754    24248449.295
  20294205.745    -1493854.63349  -1069041.79348  20294205.404    20294210.803
  22387223.402     3750577.38149   2911791.38346  22387222.378    22387229.055
  20922093.407    -1476601.70249  -1146090.09047  20922092.677    20922099.015
 03  6 10 16 15 30.0000000  0 10G16G26G30G21G29G18G15G 6G10G17
  24331362.775    -3080302.59849  -2387776.84345  24331362.179    24331368.638
  22714149.691    -4702217.79349  -3650132.52946  22714149.591    22714157.056
  22871086.095     4439457.64649   3444340.94646  22871086.167    22871093.147
  21390280.715    -2779737.23749  -2154460.90247  21390280.047    21390284.724
  22927334.780    -2742887.36449  -2126472.26346  22927334.397    22927341.239
  23297458.595    -5695339.05449  -4416014.95846  23297458.056    23297465.295
  24233219.828    -4490710.48949  -3484543.88045  24233219.012    24233228.472
  20291568.592    -1507713.22149  -1079840.70648  20291568.220    20291573.623
  22404188.148     3839727.43849   2981258.92246  22404187.114    22404193.788
  20918618.428    -1494862.78649  -1160319.51447  20918617.722    20918624.033
 03  6 10 16 16  0.0000000  0 10G16G26G30G21G29G18G15G 6G10G17
  24317802.688    -3151561.37349  -2443303.17245  24317802.056    24317808.488
  22698776.419    -4783004.91049  -3713083.50046  22698776.294    22698783.831
  22889830.356     4537958.60949   3521094.83346  22889830.410    22889837.373
  21382022.730    -2823133.37349  -2188276.08247  21382022.054    21382026.708
  22920271.713    -2780004.14049  -2155394.41246  22920271.286    22920278.136
  23278225.991    -5796407.09949  -4494769.20146  23278225.440    23278232.622
  24218015.703    -4570608.63549  -3546802.12645  24218014.867    24218024.233
  20289011.355    -1521151.71849  -1090312.28948  20289010.980    20289016.401
  22421207.947     3929167.23649   3050952.22646  22421206.951    22421213.641
  20915182.280    -1512920.02049  -1174390.10447  20915181.571    20915187.884
 03  6 10 16 16 30.0000000  0 10G16G26G30G21G29G18G15G 6G10G17
  24304320.032    -3222413.34349  -2498512.50345  24304319.419    24304325.899
  22683463.684    -4863473.61749  -3775786.34046  22683463.526    22683471.147
  22908607.212     4636631.09749   3597982.36946  22908607.261    22908614.181
  21373802.376    -2866331.70349  -2221937.11847  21373801.685    21373806.336
  22913294.764    -2816667.85049  -2183963.49946  22913294.397    22913301.189
  23259033.309    -5897264.63049  -4573359.38246  23259032.737    23259039.931
  24202828.066    -4650420.11249  -3608992.85845  24202827.252    24202836.530
  20286534.175    -1534169.38449  -1100455.94548  20286533.805    20286539.230
  22438282.299     4018893.50149   3120868.75446  22438281.301    22438288.049
  20911784.705    -1530774.47449  -1188302.67347  20911783.983    20911790.302
 03  6 10 16 17  0.0000000  0 10G16G26G30G21G29G18G15G 6G10G17
  24290915.183    -3292856.10149  -2553402.97445  24290914.689    24290920.973
  22668212.254    -4943620.00249  -3838238.01546  22668212.123    22668219.815
  22927416.178     4735472.47149   3675001.52646  22927416.279    22927423.204
  21365619.598    -2909332.66649  -2255444.36247  21365618.920    21365623.546
  22906404.554    -2852876.09449  -2212177.68646  22906404.146    22906410.970
  23239881.092    -5997909.37949  -4651783.77146  23239880.565    23239887.729
  24187657.011    -4730144.32649  -3671115.60945  24187656.214    24187665.423
  20284137.405    -1546764.53149  -1110270.35748  20284137.044    20284142.488
  22455410.777     4108903.90749   3191006.68946  22455409.753    22455416.505
  20908425.674    -1548426.45949  -1202057.46947  20908424.939    20908431.257
 03  6 10 16 17 30.0000000  0 10G16G26G30G21G29G18G15G 6G10G17
  24277588.756    -3362887.12449  -2607972.61745  24277588.235    24277594.445
  22653022.923    -5023440.40649  -3900435.67646  22653022.759    22653030.414
  22946256.762     4834479.96749   3752150.10446  22946256.847    22946263.799
  21357474.371    -2952135.95849  -2288797.57947  21357473.669    21357478.327
  22899601.375    -2888626.75749  -2240035.30646  22899600.996    22899607.894
  23220769.886    -6098339.35449  -4730040.81346  23220769.307    23220776.415
  24172502.727    -4809780.82449  -3733169.98145  24172502.005    24172511.087
  20281821.338    -1558935.73349  -1119754.42948  20281820.977    20281826.413
  22472592.763     4199195.63749   3261363.82946  22472591.749    22472598.522
  20905105.180    -1565875.79249  -1215654.35547  20905104.467    20905110.770
 03  6 10 16 18  0.0000000  0 10G16G26G30G21G29G18G15G 6G10G17
  24264340.988    -3432504.64749  -2662220.03145  24264340.387    24264346.720
  22637896.221    -5102931.62649  -3962376.83546  22637896.081    22637903.683
  22965128.365     4933650.27849   3829425.55846  22965128.422    22965135.470
  21349366.729    -2994741.95649  -2321997.05947  21349366.061    21349370.701
  22892885.615    -2923917.96549  -2267534.92146  22892885.266    22892892.144
  23201699.968    -6198552.55849  -4808128.93146  23201699.348    23201706.444
  24157365.069    -4889329.93049  -3795156.26245  24157364.314    24157373.192
  20279586.129    -1570681.84849  -1128907.25848  20279585.775    20279591.226
  22489827.647     4289765.62349   3331937.80046  22489826.637    22489833.494
  20901823.156    -1583122.93249  -1229093.68747  20901822.449    20901828.745
 03  6 10 16 18 30.0000000  0 10G16G26G30G21G29G18G15G 6G10G17
  24251172.288    -3501706.44649  -2716143.50045  24251171.633    24251177.911
  22622832.874    -5182089.85849  -4024058.50646  22622832.759    22622840.321
  22984030.382     5032980.72249   3906825.79146  22984030.527    22984037.468
  21341296.723    -3037150.24249  -2355042.48147  21341296.038    21341300.682
  22886257.820    -2958747.46349  -2294674.75246  22886257.514    22886264.273
  23182671.638    -6298546.85149  -4886046.48246  23182671.081    23182678.124
  24142244.086    -4968791.06449  -3857073.98345  24142243.392    24142252.273
  20277432.155    -1582001.12249  -1137727.48848  20277431.826    20277437.251
  22507114.963     4380611.24549   3402726.53846  22507113.999    22507120.901
  20898579.576    -1600168.18149  -1242375.70447  20898578.845    20898585.167
 03  6 10 16 19  0.0000000  0 10G16G26G30G21G29G18G15G 6G10G17
  24238083.208    -3570490.11349  -2769741.14045  24238082.605    24238089.051
  22607833.526    -5260911.65649  -4085478.03146  22607833.433    22607841.004
  23002962.354     5132468.17749   3984348.38546  23002962.480    23002969.414
  21333264.275    -3079361.11549  -2387934.06847  21333263.579    21333268.231
  22879718.187    -2993113.48949  -2321453.45546  22879717.861    22879724.567
  23163685.318    -6398320.27849  -4963791.91446  23163684.715    23163691.794
  24127139.875    -5048164.42849  -3918923.31245  24127139.059    24127148.003
  20275359.665    -1592892.22449  -1146214.08048  20275359.331    20275364.794
  22524454.328     4471729.73549   3473727.91246  22524453.345    22524460.205
  20895374.400    -1617011.39449  -1255500.29347  20895373.694    20895380.017
 03  6 10 16 19 30.0000000  0 10G16G26G30G21G29G18G15G 6G10G17
  24225073.957    -3638854.12149  -2823011.77045  24225073.361    24225079.694
  22592898.775    -5339393.91749  -4146632.96546  22592898.712    22592906.260
  23021923.600     5232109.27149   4061990.70046  23021923.684    23021930.550
  21325269.303    -3121374.88449  -2420672.06647  21325268.624    21325273.293
  22873267.087    -3027014.40749  -2347869.72846  22873266.756    22873273.393
  23144741.296    -6497871.48749  -5041364.19546  23144740.640    23144747.759
  24112052.217    -5127450.47149  -3980704.59445  24112051.433    24112060.191
  20273368.763    -1603354.39049  -1154366.43648  20273368.449    20273373.907
  22541844.997     4563117.92149   3544939.41646  22541843.956    22541850.841
  20892207.528    -1633653.52249  -1268468.19147  20892206.806    20892213.148
 03  6 10 16 20  0.0000000  0 10G16G26G30G21G29G18G15G 6G10G17
  24212145.016    -3706795.81649  -2875953.35445  24212144.422    24212150.661
  22578029.464    -5417532.45349  -4207520.04346  22578029.396    22578036.999
  23040913.547     5331901.84349   4139751.02646  23040913.617    23040920.584
  21317312.049    -3163190.53549  -2453255.68547  21317311.372    21317316.066
  22866905.020    -3060447.57949  -2373921.52646  22866904.622    22866911.263
  23125840.102    -6597197.57649  -5118761.05846  23125839.495    23125846.531
  24096981.246    -5206647.90449  -4042416.84845  24096980.398    24096989.262
  20271459.941    -1613385.54049  -1162182.93148  20271459.621    20271465.089
  22559286.604     4654774.00849   3616359.70046  22559285.582    22559292.456
  20889078.929    -1650094.29949  -1281279.19047  20889078.212    20889084.555
 03  6 10 16 20 30.0000000  0 10G16G26G30G21G29G18G15G 6G10G17
  24199296.842    -3774313.10649  -2928564.26445  24199296.196    24199302.352
  22563226.184    -5495324.04849  -4268136.79346  22563226.114    22563233.709
  23059931.643     5431842.47449   4217626.71046  23059931.712    23059938.841
  21309392.317    -3204808.87949  -2485685.56847  21309391.655    21309396.331
  22860632.146    -3093411.50149  -2399607.67246  22860631.813    22860638.439
  23106982.056    -6696296.92449  -5195981.26346  23106981.490    23106988.419
  24081927.212    -5285757.21449  -4104060.42145  24081926.440    24081935.313
  20269633.269    -1622984.74449  -1169662.85348  20269632.965    20269638.432
  22576778.616     4746694.69649   3687986.15146  22576777.582    22576784.408
  20885988.655    -1666333.98349  -1293933.49947  20885987.941    20885994.271
 03  6 10 16 21  0.0000000  0 10G16G26G30G21G29G18G15G 6G10G17
  24186529.788    -3841404.00049  -2980842.89745  24186529.215    24186535.344
  22548489.576    -5572765.27649  -4328480.53546  22548489.476    22548497.103
  23078977.378     5531928.22149   4295615.47646  23078977.466    23078984.604
  21301510.132    -3246230.08449  -2517961.83247  21301509.472    21301514.153
  22854448.978    -3125904.21249  -2424926.65246  22854448.625    22854455.260
  23088167.593    -6795167.80649  -5273023.43046  23088166.994    23088173.844
  24066890.079    -5364778.32249  -4165635.26745  24066889.219    24066898.030
  20267889.116    -1632150.66749  -1176805.15848  20267888.793    20267894.248
  22594320.415     4838877.29349   3759816.67546  22594319.408    22594326.187
  20882936.539    -1682373.09649  -1306431.52247  20882935.824    20882942.144
 03  6 10 16 21 30.0000000  0 10G16G26G30G21G29G18G15G 6G10G17
  24173844.272    -3908066.92749  -3032788.03645  24173843.726    24173849.920
  22533820.129    -5649853.26649  -4388549.03046  22533820.071    22533827.696
  23098050.114     5632155.36449   4373714.42346  23098050.183    23098057.362
  21293665.353    -3287454.76649  -2550084.96547  21293664.693    21293669.369
  22848355.682    -3157924.44649  -2449877.47246  22848355.313    22848361.986
  23069396.783    -6893808.67849  -5349886.36446  23069396.160    23069403.021
  24051869.546    -5443711.81449  -4227141.84645  24051868.688    24051877.422
  20266227.504    -1640882.50549  -1183609.20848  20266227.193    20266232.650
  22611911.375     4931318.26949   3831848.56346  22611910.351    22611917.193
  20879922.405    -1698212.56749  -1318773.97647  20879921.691    20879928.011
 03  6 10 16 22  0.0000000  0 10G16G26G30G21G29G18G15G 6G10G17
  24161240.797    -3974298.77849  -3084397.25145  24161240.291    24161246.458
  22519218.929    -5726583.31749  -4448338.60946  22519218.859    22519226.317
  23117149.450     5732522.31449   4451922.30746  23117149.510    23117156.703
  21285858.243    -3328481.45349  -2582053.81847  21285857.587    21285862.269
  22842352.950    -3189469.04649  -2474457.68746  22842352.589    22842359.264
  23050670.256    -6992216.67849  -5426567.85246  23050669.654    23050676.541
  24036865.924    -5522556.40849  -4288579.17045  24036864.984    24036873.765
  20264649.005    -1649177.81449  -1190073.11948  20264648.665    20264654.113
  22629551.238     5024016.30849   3904080.76146  22629550.228    22629557.108
  20876946.475    -1713851.20949  -1330959.95047  20876945.761    20876952.085
 03  6 10 16 22 30.0000000  0 10G16G26G30G21G29G18G15G 6G10G17
  24148719.629    -4040098.33749  -3135669.62145  24148719.019    24148725.230
  22504686.231    -5802952.74549  -4507847.19546  22504686.220    22504693.665
  23136274.554     5833025.24349   4530236.15946  23136274.670    23136281.902
  21278088.634    -3369311.11049  -2613869.13547  21278087.956    21278092.643
  22836440.808    -3220537.00149  -2498666.48146  22836440.521    22836447.256
  23031988.350    -7090390.52449  -5503066.88146  23031987.757    23031994.627
  24021878.981    -5601312.84749  -4349947.78745  24021878.069    24021886.745
  20263153.653    -1657036.24049  -1196196.59648  20263153.311    20263158.757
  22647239.360     5116967.88849   3976510.50146  22647238.363    22647245.237
  20874008.518    -1729290.34649  -1342990.45747  20874007.815    20874014.143
 03  6 10 16 23  0.0000000  0 10G16G26G30G21G29G18G15G 6G10G17
  24136281.064    -4105463.32449  -3186603.39345  24136280.502    24136286.810
  22490222.882    -5878957.72949  -4567071.77646  22490222.853    22490230.327
  23155425.083     5933661.62249   4608653.97546  23155425.192    23155432.415
  21270356.580    -3409943.45749  -2645530.70147  21270355.889    21270360.589
  22830619.945    -3251126.25749  -2522502.26046  22830619.611    22830626.310
  23013351.420    -7188327.98549  -5579381.72546  23013350.839    23013357.669
  24006908.872    -5679980.60549  -4411247.32145  24006908.163    24006916.652
  20261741.730    -1664456.08549  -1201978.32148  20261741.388    20261746.830
  22664975.291     5210170.47649   4049135.84446  22664974.325    22664981.146
  20871108.580    -1744529.80249  -1354865.37647  20871107.873    20871114.182
 03  6 10 16 23 30.0000000  0 10G16G26G30G21G29G18G15G 6G10G17
  24123925.519    -4170392.26449  -3237197.36945  24123924.924    24123931.234
  22475829.454    -5954595.67249  -4626010.37046  22475829.427    22475836.927
  23174600.368     6034427.73649   4687172.89946  23174600.398    23174607.682
  21262661.831    -3450379.56749  -2677039.34947  21262661.126    21262665.828
  22824890.317    -3281235.56749  -2545964.06846  22824890.038    22824896.701
  22994759.712    -7286027.78849  -5655511.37246  22994759.110    22994765.960
  23991955.596    -5758560.29149  -4472478.21445  23991954.945    23991963.418
  20260413.332    -1671436.87349  -1207417.91948  20260412.978    20260418.466
  22682758.384     5303620.66549   4121954.12646  22682757.454    22682764.230
  20868246.440    -1759570.43849  -1366585.36147  20868245.744    20868252.057
 03  6 10 16 24  0.0000000  0 10G16G26G30G21G29G18G15G 6G10G17
  24111653.440    -4234882.98349  -3287449.86945  24111652.830    24111659.154
  22461506.625    -6029862.50149  -4684659.79046  22461506.602    22461514.051
  23193799.752     6135320.84449   4765790.77846  23193799.806    23193807.174
  21255004.634    -3490618.36649  -2708394.25047  21255003.967    21255008.671
  22819252.396    -3310862.93049  -2569050.31546  22819252.110    22819258.771
  22976213.603    -7383487.59049  -5731453.98946  22976213.049    22976219.914
  23977019.033    -5837051.59549  -4533640.21645  23977018.455    23977027.161
  20259168.823    -1677976.99049  -1212514.14448  20259168.450    20259173.944
  22700588.132     5397316.34249   4194963.69146  22700587.180    22700593.981
  20865422.145    -1774412.30249  -1378150.45747  20865421.459    20865427.742
 03  6 10 16 24 30.0000000  0 10G16G26G30G21G29G18G15G 6G10G17
  24099465.157    -4298932.92249  -3337358.91745  24099464.598    24099470.798
  22447255.138    -6104754.48849  -4743017.12546  22447255.089    22447262.488
  23213022.940     6236338.55449   4844505.75346  23213023.019    23213030.373
  21247385.005    -3530659.63849  -2739595.23947  21247384.362    21247389.059
  22813706.659    -3340006.01849  -2591759.21546  22813706.350    22813713.022
  22957713.683    -7480705.26349  -5807207.94646  22957713.146    22957719.988
  23962099.559    -5915453.84649  -4594732.82145  23962098.875    23962107.889
  20258008.437    -1684074.89949  -1217265.78948  20258008.093    20258013.622
  22718464.120     5491254.96149   4268162.57246  22718463.135    22718469.983
  20862635.754    -1789055.05149  -1389560.40047  20862635.058    20862641.349
 03  6 10 16 25  0.0000000  0 10G16G26G30G21G29G18G15G 6G10G17
  24087360.971    -4362540.69249  -3386923.39645  24087360.507    24087366.733
  22433075.416    -6179268.90749  -4801080.25846  22433075.425    22433082.791
  23232269.149     6337477.20649   4923314.98046  23232269.144    23232276.577
  21239802.795    -3570504.64249  -2770643.28147  21239802.121    21239806.831
  22808253.326    -3368663.72749  -2614089.90646  22808253.015    22808259.645
  22939260.135    -7577679.52749  -5882772.24546  22939259.531    22939266.311
  23947196.987    -5993767.64349  -4655756.49845  23947196.231    23947205.305
  20256932.388    -1689729.85549  -1221672.26948  20256932.028    20256937.544
  22736385.694     5585433.07149   4341548.06346  22736384.688    22736391.587
  20859886.980    -1803499.88549  -1400816.11647  20859886.291    20859892.606
 03  6 10 16 25 30.0000000  0 10G16G26G30G21G29G18G15G 6G10G17
  24075341.345    -4425704.19949  -3436141.69545  24075340.838    24075347.094
  22418968.370    -6253401.91549  -4858846.18646  22418968.342    22418975.724
  23251537.770     6438734.28149   5002216.47646  23251537.795    23251545.253
  21232258.018    -3610152.57149  -2801537.75947  21232257.344    21232262.063
  22802892.672    -3396834.14049  -2636040.88046  22802892.366    22802898.985
  22920853.314    -7674407.90049  -5958144.93946  22920852.734    22920859.449
  23932311.158    -6071992.46849  -4716710.82745  23932310.346    23932319.644
  20255940.826    -1694940.45649  -1225732.50248  20255940.474    20255946.000
  22754352.375     5679848.33249   4415118.34746  22754351.360    22754358.274
  20857175.987    -1817746.26049  -1411917.19347  20857175.318    20857181.652
 03  6 10 16 26  0.0000000  0 10G16G26G30G21G29G18G15G 6G10G17
  24063406.570    -4488421.43649  -3485012.25445  24063406.080    24063412.501
  22404934.493    -6327150.27649  -4916312.39246  22404934.427    22404941.767
  23270828.350     6540106.45749   5081207.64646  23270828.421    23270835.886
  21224750.706    -3649603.82749  -2832278.98747  21224750.051    21224754.760
  22797625.091    -3424515.55249  -2657610.82646  22797624.793    22797631.419
  22902493.539    -7770888.78449  -6033324.79146  22902492.934    22902499.631
  23917442.337    -6150128.29249  -4777595.82445  23917441.589    23917450.914
  20255034.096    -1699705.67549  -1229445.68548  20255033.752    20255039.278
  22772363.699     5774498.10749   4488871.37746  22772362.671    22772369.602
  20854502.727    -1831794.41049  -1422863.80447  20854502.039    20854508.369
 03  6 10 16 26 30.0000000  0 10G16G26G30G21G29G18G15G 6G10G17
  24051557.179    -4550690.45749  -3533533.53645  24051556.613    24051563.025
  22390974.511    -6400510.65449  -4973476.29746  22390974.391    22390981.755
  23290140.298     6641591.07649   5160286.43446  23290140.331    23290147.869
  21217280.837    -3688858.12649  -2862866.74647  21217280.173    21217284.881
  22792450.877    -3451706.37449  -2678798.47646  22792450.535    22792457.175
  22884181.193    -7867120.43249  -6108310.42846  22884180.612    22884187.269
  23902590.480    -6228175.19449  -4838411.51845  23902589.732    23902599.002
  20254212.298    -1704024.31249  -1232810.88348  20254211.961    20254217.501
  22790419.045     5869379.52849   4562804.90246  22790418.032    22790424.999
  20851867.039    -1845645.04249  -1433656.50447  20851866.353    20851872.679
 03  6 10 16 27  0.0000000  0 10G16G26G30G21G29G18G15G 6G10G17
  24039793.458    -4612509.18149  -3581703.95045  24039792.917    24039799.192
  22377089.001    -6473479.29849  -5030334.95146  22377088.874    22377096.240
  23309473.188     6743185.29249   5239450.64246  23309473.218    23309480.757
  21209848.502    -3727915.25249  -2893300.86047  21209847.838    21209852.541
  22787370.349    -3478404.72249  -2699602.39546  22787370.042    22787376.654
  22865916.751    -7963100.49149  -6183100.01646  22865916.165    22865922.857
  23887755.589    -6306132.81649  -4899157.64245  23887754.741    23887764.166
  20253475.777    -1707894.94549  -1235826.98348  20253475.421    20253480.952
  22808518.031     5964490.13749   4636917.01846  22808517.002    22808523.993
  20849268.944    -1859298.23849  -1444295.35847  20849268.262    20849274.604
 03  6 10 16 27 30.0000000  0 10G16G26G30G21G29G18G15G 6G10G17
  24028115.742    -4673876.21649  -3629522.40045  24028115.202    24028121.488
  22363278.583    -6546053.34049  -5086886.11446  22363278.474    22363285.802
  23328826.226     6844885.72649   5318697.60746  23328826.290    23328833.855
  21202453.614    -3766775.79449  -2923581.79347  21202452.927    21202457.627
  22782383.840    -3504609.23249  -2720021.50646  22782383.534    22782390.131
  22847700.393    -8058827.87449  -6257692.72746  22847699.807    22847706.508
  23872937.745    -6384001.43749  -4959834.43045  23872936.840    23872946.199
  20252824.611    -1711316.94949  -1238493.50748  20252824.271    20252829.816
  22826660.040     6059826.93949   4711205.40146  22826659.013    22826666.055
  20846708.286    -1872754.58949  -1454780.82947  20846707.595    20846713.941
 03  6 10 16 28  0.0000000  0 10G16G26G30G21G29G18G15G 6G10G17
  24016524.303    -4734789.48349  -3676987.26045  24016523.807    24016530.046
  22349543.903    -6618229.21249  -5143127.02846  22349543.783    22349551.137
  23348198.897     6946689.64449   5398025.19646  23348199.038    23348206.630
  21195096.171    -3805439.50549  -2953709.34747  21195095.481    21195100.171
  22777491.543    -3530318.17049  -2740054.44246  22777491.261    22777497.829
  22829532.497    -8154300.39149  -6332086.83546  22829531.944    22829538.619
  23858136.744    -6461780.74749  -5020441.61045  23858135.916    23858145.145
  20252259.095    -1714288.85849  -1240809.30648  20252258.753    20252264.303
  22844844.609     6155387.29549   4785667.97246  22844843.574    22844850.644
  20844185.121    -1886013.84849  -1465112.72047  20844184.431    20844190.779
 03  6 10 16 28 30.0000000  0 10G16G26G30G21G29G18G15G 6G10G17
  24005019.678    -4795246.96649  -3724096.97745  24005019.151    24005025.333
  22335885.633    -6690003.44349  -5199054.98646  22335885.559    22335892.926
  23367590.709     7048594.03449   5477431.07646  23367590.874    23367598.509
  21187776.189    -3843906.16549  -2983683.36147  21187775.508    21187780.180
  22772693.919    -3555529.91149  -2759699.96546  22772693.652    22772700.225
  22811413.522    -8249516.10049  -6406280.85246  22811412.968    22811419.648
  23843352.809    -6539470.48549  -5080978.99345  23843352.011    23843361.175
  20251779.413    -1716809.57249  -1242773.52748  20251779.065    20251784.631
  22863071.178     6251168.44349   4860302.58746  22863070.115    22863077.235
  20841699.486    -1899076.09849  -1475291.09847  20841698.792    20841705.116
 03  6 10 16 29  0.0000000  0 10G16G26G30G21G29G18G15G 6G10G17
  23993602.038    -4855247.18049  -3770850.38645  23993601.455    23993607.739
  22322304.403    -6761373.01049  -5254667.61246  22322304.311    22322311.728
  23387001.187     7150595.81549   5556912.82946  23387001.335    23387008.886
  21180493.616    -3882176.33549  -3013504.26747  21180492.920    21180497.619
  22767991.158    -3580243.11349  -2778956.99946  22767990.878    22767997.467
  22793343.722    -8344473.42749  -6480273.55046  22793343.167    22793349.758
  23828585.974    -6617070.88249  -5141446.76045  23828585.184    23828594.286
  20251385.764    -1718878.35549  -1244385.59648  20251385.418    20251390.991
  22881339.243     6347167.62249   4935107.08746  22881338.179    22881345.320
  20839251.185    -1911942.21549  -1485316.65347  20839250.477    20839256.787
 03  6 10 16 29 30.0000000  0 10G16G26G30G21G29G18G15G 6G10G17
  23982272.047    -4914786.50649  -3817244.72245  23982271.409    23982277.728
  22308801.189    -6832332.58149  -5309960.81246  22308801.118    22308808.527
  23406430.057     7252694.07549   5636469.74446  23406430.105    23406437.690
  21173248.790    -3920248.08549  -3043170.58547  21173248.125    21173252.789
  22763383.954    -3604454.20349  -2797822.81346  22763383.687    22763390.231
  22775323.823    -8439168.48649  -6554061.91546  22775323.232    22775329.853
  23813836.476    -6694580.06049  -5201843.49045  23813835.654    23813844.690
  20251078.717    -1720492.06849  -1245643.08648  20251078.350    20251083.929
  22899648.624     6443383.96749   5010080.77846  22899647.604    22899654.678
  20836840.548    -1924610.21449  -1495187.85347  20836839.826    20836846.162
 03  6 10 16 30  0.0000000  0 10G16G26G30G21G29G18G15G 6G10G17
  23971029.032    -4973869.11849  -3863283.21045  23971028.412    23971034.725
  22295375.524    -6902885.23749  -5364936.94446  22295375.433    22295382.733
  23425875.323     7354879.15949   5716094.29446  23425875.394    23425882.960
  21166040.528    -3958127.83949  -3072687.30347  21166039.846    21166044.495
  22758871.344    -3628168.25849  -2816301.33546  22758871.071    22758877.658
  22757352.848    -8533606.19049  -6627649.74246  22757352.273    22757358.934
  23799103.111    -6772004.55049  -5262174.28045  23799102.254    23799111.250
  20250857.241    -1721656.16849  -1246550.23248  20250856.893    20250862.461
  22917997.700     6539808.64749   5085216.79646  22917996.651    22918003.752
  20834466.373    -1937086.74149  -1504909.85747  20834465.650    20834471.989
 03  6 10 16 30 30.0000000  0 10G16G26G30G21G29G18G15G 6G10G17
  23959874.657    -5032485.91449  -3908958.72045  23959874.114    23959880.261
  22282029.345    -6973020.41849  -5419587.78046  22282029.272    22282036.506
  23445338.006     7457155.79849   5795790.17745  23445338.180    23445345.683
  21158870.176    -3995808.34449  -3102048.75847  21158869.499    21158874.156
  22754455.035    -3651376.26049  -2834385.52346  22754454.769    22754461.366
  22739432.588    -8627777.31949  -6701029.84546  22739432.049    22739438.771
  23784387.328    -6849336.59249  -5322433.00345  23784386.492    23784395.430
  20250722.908    -1722362.14949  -1247100.40248  20250722.566    20250728.154
  22936387.306     6636446.28449   5160518.74946  22936386.240    22936393.310
  20832129.934    -1949364.90449  -1514477.29447  20832129.207    20832135.553
 03  6 10 16 31  0.0000000  0 10G16G26G30G21G29G18G15G 6G10G17
  23948808.681    -5090637.76849  -3954271.87245  23948808.126    23948814.378
  22268762.777    -7042737.16049  -5473912.52046  22268762.637    22268769.848
  23464817.116     7559518.51649   5875553.16445  23464817.305    23464824.843
  21151737.309    -4033291.75449  -3131256.61147  21151736.647    21151741.321
  22750134.799    -3674079.27249  -2852076.17046  22750134.510    22750141.197
  22721562.996    -8721682.55949  -6774202.74446  22721562.479    22721569.129
  23769688.615    -6926578.61449  -5382621.53345  23769687.808    23769696.782
  20250675.484    -1722611.60049  -1247294.82548  20250675.149    20250680.718
  22954816.420     6733291.57549   5235982.54546  22954815.401    22954822.450
  20829830.803    -1961447.14649  -1523892.04847  20829830.079    20829836.430
 03  6 10 16 31 30.0000000  0 10G16G26G30G21G29G18G15G 6G10G17
  23937831.533    -5148322.94049  -3999221.34845  23937831.044    23937837.432
  22255576.330    -7112032.30349  -5527908.73146  22255576.246    22255583.461
  23484312.091     7661964.33049   5955380.90945  23484312.189    23484319.766
  21144641.981    -4070578.10749  -3160310.90047  21144641.319    21144645.990
  22745910.944    -3696275.80349  -2869372.13446  22745910.664    22745917.330
  22703744.421    -8815319.94849  -6847166.90946  22703743.895    22703750.535
  23755007.087    -7003730.66349  -5442739.93445  23755006.311    23755015.222
  20250715.140    -1722403.32449  -1247132.55448  20250714.802    20250720.402
  22973284.588     6830342.04149   5311606.23246  22973283.507    22973290.623
  20827568.923    -1973333.32449  -1533154.01247  20827568.205    20827574.551
 03  6 10 16 32  0.0000000  0 10G16G26G30G21G29G18G15G 6G10G17
  23926943.366    -5205540.65949  -4043806.56945  23926942.821    23926949.185
  22242470.581    -7180903.48649  -5581574.57146  22242470.488    22242477.709
  23503822.082     7764489.41849   6035270.44945  23503822.132    23503829.826
  21137583.920    -4107668.66549  -3189212.61647  21137583.236    21137587.898
  22741783.545    -3717965.40049  -2886273.07546  22741783.271    22741789.909
  22685976.947    -8908688.58049  -6919921.63546  22685976.425    22685983.074
  23740342.524    -7080793.51649  -5502788.82045  23740341.774    23740350.524
  20250841.929    -1721737.22649  -1246613.53848  20250841.594    20250847.216
  22991791.067     6927593.88149   5387386.82946  22991789.955    22991797.074
  20825344.013    -1985025.49049  -1542264.78947  20825343.295    20825349.640
 03  6 10 16 32 30.0000000  0 10G16G26G30G21G29G18G15G 6G10G17
  23916144.802    -5262287.08449  -4088024.52945  23916144.338    23916150.706
  22229446.507    -7249345.53949  -5634906.03546  22229446.414    22229453.604
  23523346.916     7867092.71249   6115220.94845  23523347.036    23523354.725
  21130563.474    -4144561.32249  -3217960.11847  21130562.786    21130567.461
  22737753.292    -3739144.55249  -2902776.24946  22737753.041    22737759.624
  22668261.318    -9001785.06049  -6992464.28746  22668260.770    22668267.429
  23725695.239    -7157765.21549  -5562766.68445  23725694.484    23725703.289
  20251056.373    -1720610.51549  -1245735.59548  20251056.016    20251061.662
  23010335.740     7025046.38149   5463323.80846  23010334.667    23010341.745
  20823156.386    -1996521.60849  -1551222.80247  20823155.659    20823162.003
 03  6 10 16 33  0.0000000  0 10G16G26G30G21G29G18G15G 6G10G17
  23905435.845    -5318563.03549  -4131875.89945  23905435.412    23905441.884
  22216504.274    -7317357.61949  -5687902.44146  22216504.144    22216511.316
  23542885.661     7969768.76149   6195228.13945  23542885.759    23542893.523
  21123580.194    -4181258.64349  -3246555.41047  21123579.510    21123584.180
  22733819.935    -3759814.52649  -2918882.65446  22733819.654    22733826.238
  22650597.301    -9094609.96749  -7064795.32146  22650596.758    22650603.375
  23711064.858    -7234648.25949  -5622675.46145  23711064.112    23711072.943
  20251358.145    -1719024.64449  -1244499.86648  20251357.827    20251363.481
  23028917.457     7122694.23649   5539413.01346  23028916.482    23028923.582
  20821005.528    -2007824.50749  -1560030.25447  20821004.828    20821011.168
 03  6 10 16 33 30.0000000  0 10G16G26G30G21G29G18G15G 6G10G17
  23894817.105    -5374365.39149  -4175358.23445  23894816.613    23894823.121
  22203644.733    -7384935.13749  -5740560.23246  22203644.607    22203651.759
  23562437.976     8072516.05049   6275290.84945  23562438.064    23562445.838
  21116634.340    -4217759.27449  -3274997.43647  21116633.669    21116638.349
  22729983.980    -3779972.51149  -2934590.10946  22729983.680    22729990.291
  22632985.621    -9187160.20149  -7136912.35046  22632985.021    22632991.572
  23696451.580    -7311441.07849  -5682513.93145  23696450.838    23696459.697
  20251747.823    -1716977.20949  -1242904.48048  20251747.477    20251753.138
  23047536.242     7220536.39749   5615653.62746  23047535.313    23047542.352
  20818891.755    -2018932.51449  -1568685.84747  20818891.042    20818897.397
 03  6 10 16 34  0.0000000  0 10G16G26G30G21G29G18G15G 6G10G17
  23884288.774    -5429692.54449  -4218470.26645  23884288.221    23884294.722
  22190868.422    -7452074.96249  -5792876.94146  22190868.301    22190875.499
  23582003.269     8175331.79649   6355406.88945  23582003.279    23582011.135
  21109725.908    -4254063.17749  -3303286.16147  21109725.251    21109729.940
  22726245.711    -3799617.14549  -2949897.52946  22726245.398    22726252.015
  22615426.423    -9279434.07549  -7208814.01146  22615425.797    22615432.363
  23681855.492    -7388143.68449  -5742282.11245  23681854.803    23681863.596
  20252225.439    -1714467.46549  -1240948.84848  20252225.106    20252230.779
  23066191.533     7318570.20349   5692043.58046  23066190.588    23066197.601
  20816815.030    -2029845.86849  -1577189.75247  20816814.329    20816820.701
 03  6 10 16 34 30.0000000  0 10G16G26G30G21G29G18G15G 6G10G17
  23873851.162    -5484542.52049  -4261210.49245  23873850.567    23873857.106
  22178176.038    -7518773.45949  -5844849.75846  22178175.919    22178183.146
  23601580.979     8278213.32649   6435574.18345  23601581.065    23601589.031
  21102855.021    -4290170.07549  -3331421.38047  21102854.348    21102859.029
  22722605.387    -3818746.93049  -2964803.78346  22722605.098    22722611.676
  22597920.245    -9371429.35849  -7280498.58346  22597919.686    22597926.194
  23667276.673    -7464755.70549  -5801979.68945  23667275.986    23667284.713
  20252791.301    -1711494.06949  -1238631.93448  20252790.945    20252796.609
  23084882.765     7416793.28449   5768581.01746  23084881.849    23084888.832
  20814775.316    -2040564.59649  -1585542.00347  20814774.601    20814780.978
 03  6 10 16 35  0.0000000  0 10G16G26G30G21G29G18G15G 6G10G17
  23863504.544    -5538914.37549  -4303578.14645  23863503.900    23863510.539
  22165568.153    -7585028.15549  -5896476.76346  22165568.037    22165575.319
  23621170.534     8381156.98049   6515789.88145  23621170.614    23621178.716
  21096021.474    -4326080.51849  -3359403.52047  21096020.789    21096025.482
  22719063.130    -3837361.24049  -2979308.36246  22719062.810    22719069.436
  22580467.261    -9463145.19149  -7351965.41246  22580466.699    22580473.209
  23652714.926    -7541277.65949  -5861607.07145  23652714.238    23652722.905
  20253445.360    -1708056.86649  -1235953.61048  20253445.042    20253450.690
  23103609.437     7515202.40649   5845263.41846  23103608.455    23103615.475
  20812772.418    -2051089.94349  -1593743.57247  20812771.708    20812778.063
 03  6 10 16 35 30.0000000  0 10G16G26G30G21G29G18G15G 6G10G17
  23853249.313    -5592806.21149  -4345571.76045  23853248.750    23853255.270
  22153045.461    -7650835.45749  -5947755.14946  22153045.296    22153052.627
  23640771.511     8484160.35149   6596052.10145  23640771.654    23640779.797
  21089225.389    -4361794.14049  -3387232.29047  21089224.723    21089229.384
  22715619.300    -3855458.21149  -2993409.82146  22715619.034    22715625.605
  22563067.881    -9554579.28549  -7423212.69646  22563067.323    22563073.871
  23638170.425    -7617709.01949  -5921163.88545  23638169.696    23638178.438
  20254188.023    -1704154.37149  -1232912.72148  20254187.668    20254193.346
  23122371.134     7613795.44849   5922089.12746  23122370.126    23122377.182
  20810806.425    -2061421.34949  -1601794.01647  20810805.719    20810812.072
 03  6 10 16 36  0.0000000  0 10G16G26G30G21G29G18G15G 6G10G17
  23843085.626    -5646216.74249  -4387190.35545  23843085.075    23843091.499
  22140608.388    -7716192.79149  -5998682.92246  22140608.235    22140615.474
  23660383.263     8587219.95649   6676358.15445  23660383.387    23660391.502
  21082466.671    -4397311.56249  -3414908.18347  21082466.012    21082470.631
  22712274.070    -3873037.19149  -3007107.66546  22712273.790    22712280.375
  22545722.323    -9645730.69449  -7494239.71146  22545721.781    22545728.249
  23623643.136    -7694050.26749  -5980650.49745  23623642.393    23623651.001
  20255019.225    -1699786.31849  -1229509.06348  20255018.912    20255024.555
  23141167.219     7712569.03549   5999055.51646  23141166.184    23141173.184
  20808877.269    -2071559.14049  -1609693.59547  20808876.564    20808882.904
 03  6 10 16 36 30.0000000  0 10G16G26G30G21G29G18G15G 6G10G17
  23833013.659    -5699145.41449  -4428433.50545  23833013.058    23833019.594
  22128257.352    -7781097.80349  -6049258.21646  22128257.226    22128264.426
  23680005.075     8690332.02049   6756705.08245  23680005.113    23680013.167
  21075745.128    -4432633.34449  -3442431.63047  21075744.476    21075749.103
  22709027.534    -3890097.82049  -3020401.60646  22709027.267    22709033.847
  22528430.696    -9736598.55949  -7565045.78446  22528430.162    22528436.622
  23609132.806    -7770302.26249  -6040067.61645  23609131.978    23609140.563
  20255939.076    -1694952.70649  -1225742.62948  20255938.735    20255944.391
  23159996.906     7811519.54849   6076159.76646  23159995.839    23160002.929
  20806984.678    -2081504.95849  -1617443.57347  20806983.945    20806990.288
 03  6 10 16 37  0.0000000  0 10G16G26G30G21G29G18G15G 6G10G17
  23823034.032    -5751588.87049  -4469298.50745  23823033.417    23823039.821
  22115993.253    -7845545.74949  -6099477.36246  22115993.146    22116000.349
  23699636.581     8793495.24249   6837091.87045  23699636.562    23699644.611
  21069061.095    -4467757.98549  -3469801.46547  21069060.453    21069065.113
  22705880.067    -3906637.44849  -3033289.57546  22705879.807    22705886.418
  22511193.646    -9827179.71449  -7635628.45646  22511193.105    22511199.578
  23594639.816    -7846463.28949  -6099413.78045  23594638.922    23594647.476
  20256947.930    -1689651.09249  -1221611.52248  20256947.617    20256953.283
  23178859.975     7910646.01849   6153401.11646  23178859.000    23178866.089
  20805128.918    -2091256.97649  -1625042.54847  20805128.180    20805134.529
 03  6 10 16 37 30.0000000  0 10G16G26G30G21G29G18G15G 6G10G17
  23813147.085    -5803545.19749  -4509783.96445  23813146.541    23813152.918
  22103816.838    -7909532.99649  -6149337.51146  22103816.786    22103823.989
  23719277.258     8896707.29449   6917516.72045  23719277.296    23719285.290
  21062414.595    -4502685.30749  -3497017.54547  21062413.954    21062418.637
  22702832.169    -3922654.13649  -3045770.07546  22702831.877    22702838.517
  22494011.640    -9917471.81549  -7705985.89546  22494011.051    22494017.529
  23580164.156    -7922532.60649  -6158688.47045  23580163.233    23580171.861
  20258046.136    -1683880.15649  -1217114.71448  20258045.817    20258051.475
  23197756.299     8009946.68349   6230778.19346  23197755.248    23197762.418
  20803310.068    -2100815.00349  -1632490.36047  20803309.369    20803315.718
 03  6 10 16 38  0.0000000  0 11G16G26G30G21G29G18G15G 6G10G23G17
  23803352.692    -5855014.99749  -4549890.28445  23803352.202    23803358.587
  22091728.248    -7973058.81849  -6198838.09646  22091728.175    22091735.416
  23738926.127     8999962.97249   6997975.54245  23738926.293    23738934.338
  21055805.314    -4537417.34249  -3524081.45447  21055804.680    21055809.323
  22699883.530    -3938149.12449  -3057844.05446  22699883.208    22699889.860
  22476884.506   -10007475.30349  -7776118.44646  22476883.947    22476890.359
  23565705.591    -7998512.75849  -6217893.72645  23565704.752    23565713.280
  20259233.343    -1677641.36949  -1212253.34148  20259233.045    20259238.725
  23216684.804     8109416.63449   6308287.17446  23216683.834    23216691.071
  24531663.034    -4082118.15649  -3155976.09745  24531662.394    24531673.797
  20801527.595    -2110181.92249  -1639789.25647  20801526.903    20801533.227
 03  6 10 16 38 30.0000000  0 11G16G26G30G21G29G18G15G 6G10G23G17
  23793650.877    -5905997.90649  -4589617.21045  23793650.359    23793656.854
  22079727.875    -8036121.21349  -6247977.55046  22079727.773    22079734.987
  23758582.653     9103258.30049   7078465.27045  23758582.805    23758590.917
  21049233.011    -4571955.12449  -3550993.99747  21049232.370    21049236.982
  22697034.246    -3953122.25149  -3069511.40346  22697033.941    22697040.514
  22459812.355   -10097189.95649  -7846025.92646  22459811.806    22459818.216
  23551263.872    -8074404.76049  -6277030.29845  23551263.010    23551271.498
  20260509.550    -1670935.08349  -1207027.67648  20260509.231    20260514.919
  23235644.887     8209052.11649   6385925.15046  23235643.918    23235651.151
  24512444.109    -4183114.55149  -3234674.61445  24512443.538    24512454.802
  20799781.397    -2119358.38349  -1646939.73747  20799780.711    20799787.042
 03  6 10 16 39  0.0000000  0 11G16G26G30G21G29G18G15G 6G10G23G17
  23784042.938    -5956487.67449  -4628959.87345  23784042.460    23784048.974
  22067817.166    -8098712.18649  -6296749.67346  22067817.058    22067824.270
  23778247.179     9206595.05949   7158987.28845  23778247.132    23778255.410
  21042698.583    -4606293.78149  -3577751.37647  21042697.943    21042702.551
  22694285.373    -3967567.77149  -3080767.63146  22694285.063    22694291.583
  22442796.443   -10186609.10849  -7915703.14546  22442795.906    22442802.259
  23536839.712    -8150203.82249  -6336094.45145  23536838.885    23536847.350
  20261875.733    -1663755.71249  -1201433.38148  20261875.436    20261881.120
  23254636.787     8308855.00349   6463693.56846  23254635.791    23254643.049
  24493255.590    -4283950.56549  -3313248.14745  24493255.111    24493266.203
  20798072.238    -2128340.26449  -1653938.60047  20798071.525    20798077.862
 03  6 10 16 39 30.0000000  0 11G16G26G30G21G29G18G15G 6G10G23G17
  23774528.988    -6006483.59649  -4667917.73845  23774528.496    23774535.111
  22055996.632    -8160829.50749  -6345152.71146  22055996.541    22056003.635
  23797918.913     9309969.78749   7239538.86645  23797918.833    23797927.098
  21036201.908    -4640434.11749  -3604354.22547  21036201.261    21036205.888
  22691636.871    -3981485.32549  -3091612.46646  22691636.597    22691643.098
  22425836.889   -10275731.88049  -7985149.42646  22425836.377    22425842.752
  23522433.113    -8225910.37749  -6395086.52645  23522432.329    23522440.745
  20263332.029    -1656103.07149  -1195470.30748  20263331.717    20263337.388
  23273659.950     8408822.35949   6541590.15146  23273658.991    23273666.329
  24474097.961    -4384624.92349  -3391695.71245  24474097.624    24474108.435
  20796399.904    -2137128.36749  -1660786.47147  20796399.212    20796405.555
 03  6 10 16 40  0.0000000  0 11G16G26G30G21G29G18G15G 6G10G23G17
  23765109.229    -6055984.78749  -4706490.08445  23765108.708    23765115.353
  22044266.600    -8222470.88449  -6393184.86646  22044266.532    22044273.628
  23817597.013     9413378.97349   7320117.30845  23817597.041    23817605.459
  21029742.752    -4674377.05249  -3630803.25247  21029742.113    21029746.739
  22689089.011    -3994874.35949  -3102045.47246  22689088.721    22689095.232
  22408933.922   -10364557.32949  -8054364.00646  22408933.418    22408939.823
  23508044.007    -8301524.99249  -6454006.93545  23508043.250    23508051.592
  20264878.337    -1647977.16749  -1189138.44648  20264878.037    20264883.728
  23292713.805     8508950.95349   6619612.37746  23292712.850    23292720.236
  24454971.269    -4485136.51549  -3470016.46145  24454970.727    24454981.603
  20794764.371    -2145723.17249  -1667483.71747  20794763.685    20794770.031
 03  6 10 16 40 30.0000000  0 11G16G26G30G21G29G18G15G 6G10G23G17
  23755783.677    -6104990.84849  -4744676.62645  23755783.173    23755789.806
  22032627.605    -8283633.99949  -6440844.34446  22032627.579    22032634.636
  23837280.991     9516818.82149   7400719.63245  23837281.024    23837289.573
  21023321.097    -4708123.16649  -3657098.91547  21023320.448    21023325.083
  22686641.717    -4007734.92749  -3112066.68746  22686641.445    22686647.928
  22392087.715   -10453084.74149  -8123346.36446  22392087.180    22392093.581
  23493672.389    -8377048.48449  -6512856.32145  23493671.570    23493679.916
  20266514.722    -1639378.17749  -1182437.95948  20266514.414    20266520.082
  23311797.725     8609237.13649   6697757.39746  23311796.699    23311804.172
  24435875.600    -4585484.67349  -3548209.82145  24435875.147    24435885.939
  20793165.341    -2154126.13349  -1674031.47747  20793164.642    20793170.978
 03  6 10 16 41  0.0000000  0 11G16G26G30G21G29G18G15G 6G10G23G17
  23746552.681    -6153499.93449  -4782475.90545  23746552.234    23746558.824
  22021080.210    -8344315.72049  -6488128.70346  22021080.154    22021087.272
  23856970.221     9620286.61949   7481343.71645  23856970.402    23856978.982
  21016937.061    -4741671.51049  -3683240.47347  21016936.418    21016941.002
  22684295.277    -4020065.57149  -3121674.98346  22684294.980    22684301.489
  22375298.590   -10541312.25749  -8192095.04346  22375298.044    22375304.420
  23479318.081    -8452480.74449  -6571634.63245  23479317.297    23479325.654
  20268241.276    -1630305.22249  -1175368.14048  20268240.959    20268246.615
  23330911.176     8709678.84149   6776023.61646  23330910.167    23330917.637
  24416811.476    -4685667.21249  -3626274.09145  24416810.913    24416821.888
  20791602.816    -2162337.29549  -1680429.78947  20791602.113    20791608.442
 03  6 10 16 41 30.0000000  0 11G16G26G30G21G29G18G15G 6G10G23G17
  23737416.556    -6201510.59149  -4819886.80645  23737416.099    23737422.599
  22009624.989    -8404512.89649  -6535035.49946  22009624.934    22009632.081
  23876664.512     9723779.79149   7561987.58845  23876664.719    23876673.220
  21010590.556    -4775022.63049  -3709228.35247  21010589.911    21010594.465
  22682049.797    -4031865.27649  -3130869.56246  22682049.544    22682056.041
  22358566.781   -10629238.37949  -8260608.86046  22358566.227    22358572.603
  23464981.130    -8527821.42249  -6630341.58845  23464980.392    23464988.711
  20270058.221    -1620757.22949  -1167928.16248  20270057.891    20270063.555
  23350053.826     8810273.52449   6854409.02746  23350052.775    23350060.249
  24397779.296    -4785682.32349  -3704207.90445  24397778.739    24397789.833
  20790076.988    -2170355.60849  -1686677.82347  20790076.290    20790082.606
 03  6 10 16 42  0.0000000  0 11G16G26G30G21G29G18G15G 6G10G23G17
  23728375.495    -6249021.50149  -4856908.29945  23728375.058    23728381.644
  21998262.542    -8464222.46249  -6581562.33446  21998262.480    21998269.627
  23896363.072     9827295.44849   7642648.98645  23896363.272    23896371.762
  21004281.599    -4808176.51849  -3735062.54547  21004280.949    21004285.487
  22679905.657    -4043132.99649  -3139649.62146  22679905.368    22679911.867
  22341892.691   -10716861.04449  -8328886.20846  22341892.130    22341898.512
  23450661.693    -8603070.39549  -6688977.10445  23450661.025    23450669.395
  20271965.711    -1610733.35049  -1160117.36248  20271965.400    20271971.055
  23369225.081     8911018.78849   6932911.78446  23369224.013    23369231.476
  24378779.299    -4885528.11549  -3782009.74445  24378778.741    24378790.173
  20788587.723    -2178181.71649  -1692776.09747  20788587.011    20788593.330
 03  6 10 16 42 30.0000000  0 11G16G26G30G21G29G18G15G 6G10G23G17
  23719429.856    -6296031.08949  -4893539.14045  23719429.381    23719435.975
  21986993.428    -8523441.75849  -6627707.14446  21986993.382    21987000.533
  23916065.336     9930830.60449   7723325.59445  23916065.542    23916074.116
  20998010.160    -4841133.18149  -3760743.05647  20998009.500    20998014.025
  22677862.894    -4053867.83649  -3148014.45346  22677862.602    22677869.052
  22325276.573   -10804179.15849  -8396926.24146  22325276.003    22325282.372
  23436359.601    -8678227.74349  -6747541.18345  23436358.906    23436367.339
  20273963.845    -1600233.19349  -1151935.43948  20273963.537    20273969.204
  23388424.422     9011911.66249   7011529.56346  23388423.401    23388430.774
  24359811.770    -4985202.93949  -3859678.32545  24359811.234    24359822.711
  20787134.919    -2185816.30449  -1698725.13047  20787134.206    20787140.526
 03  6 10 16 43  0.0000000  0 11G16G26G30G21G29G18G15G 6G10G23G17
  23710579.861    -6342538.21349  -4929778.45245  23710579.347    23710585.923
  21975818.222    -8582167.65849  -6673467.49446  21975818.178    21975825.280
  23935770.700    10034382.44349   7804015.17645  23935770.960    23935779.570
  20991776.336    -4873892.02949  -3786269.42947  20991775.676    20991780.186
  22675921.676    -4064068.96249  -3155963.40246  22675921.416    22675927.849
  22308718.706   -10891191.11149  -8464727.71946  22308718.136    22308724.536
  23422075.096    -8753293.22449  -6806033.72245  23422074.446    23422082.712
  20276052.742    -1589255.97049  -1143381.78048  20276052.431    20276058.092
  23407651.402     9112949.68949   7090260.45246  23407650.291    23407657.749
  24340876.968    -5084705.03149  -3937212.28145  24340876.302    24340887.917
  20785718.576    -2193259.35349  -1704524.91547  20785717.867    20785724.180
 03  6 10 16 43 30.0000000  0 11G16G26G30G21G29G18G15G 6G10G23G17
  23701825.669    -6388541.89649  -4965625.46845  23701825.138    23701831.573
  21964737.359    -8640397.70649  -6718841.46546  21964737.279    21964744.389
  23955478.680    10137947.73449   7884715.23945  23955478.907    23955487.575
  20985579.996    -4906453.97949  -3811642.36847  20985579.316    20985583.841
  22674082.168    -4073735.89849  -3163496.09346  22674081.900    22674088.281
  22292219.322   -10977895.63349  -8532289.63046  22292218.788    22292225.159
  23407808.073    -8828267.30049  -6864455.02245  23407807.342    23407815.485
  20278232.519    -1577801.37549  -1134456.13648  20278232.212    20278237.863
  23426905.459     9214130.06349   7169102.24746  23426904.331    23426911.796
  24321975.354    -5184033.05549  -4014610.54245  24321974.697    24321986.285
  20784338.653    -2200510.86549  -1710175.45247  20784337.942    20784344.240
 03  6 10 16 44  0.0000000  0 11G16G26G30G21G29G18G15G 6G10G23G17
  23693167.699    -6434039.80449  -5001078.39145  23693167.162    23693173.633
  21953751.602    -8698127.80049  -6763825.87546  21953751.574    21953758.665
  23975188.907    10241524.83049   7965424.48145  23975189.142    23975197.805
  20979421.347    -4938817.95149  -3836861.04547  20979420.669    20979425.178
  22672344.764    -4082866.38449  -3170610.77646  22672344.453    22672350.805
  22275778.982   -11064289.98049  -8599609.85646  22275778.439    22275784.785
  23393558.466    -8903148.78349  -6922804.15345  23393557.757    23393565.991
  20280503.365    -1565867.99149  -1125157.41448  20280503.060    20280508.739
  23446186.318     9315451.58149   7248054.01846  23446185.204    23446192.692
  24303107.434    -5283184.03149  -4091870.83845  24303106.760    24303118.488
  20782995.327    -2207570.34149  -1715676.34847  20782994.602    20783000.896
 03  6 10 16 44 30.0000000  0 11G16G26G30G21G29G18G15G 6G10G23G17
  23684606.057    -6479031.86549  -5036137.14045  23684605.528    23684611.916
  21942861.340    -8755356.31149  -6808419.44946  21942861.293    21942868.423
  23994900.623    10345109.73849   8046139.80445  23994900.826    23994909.494
  20973300.121    -4970985.26049  -3861926.47547  20973299.427    20973303.946
  22670709.192    -4091461.07649  -3177307.96246  22670708.905    22670715.330
  22259397.700   -11150373.83649  -8666688.13846  22259397.200    22259403.520
  23379326.322    -8977938.85249  -6981082.08645  23379325.620    23379333.834
  20282865.241    -1553456.34149  -1115486.01948  20282864.935    20282870.624
  23465493.350     9416910.39749   7327112.78246  23465492.267    23465499.664
  24284273.318    -5382157.63549  -4168992.92745  24284272.668    24284284.305
  20781688.224    -2214439.07849  -1721028.62547  20781687.517    20781693.801
 03  6 10 16 45  0.0000000  0 11G16G26G30G21G29G18G15G 6G10G23G17
  23676141.052    -6523515.82049  -5070799.97645  23676140.509    23676146.890
  21932067.227    -8812079.33649  -6852619.14046  21932067.206    21932074.298
  24014613.453    10448700.48849   8126859.70545  24014613.599    24014622.359
  20967216.560    -5002954.55849  -3886837.61647  20967215.878    20967220.394
  22669175.999    -4099517.95749  -3183586.06646  22669175.706    22669182.178
  22243075.993   -11236144.81149  -8733522.61046  22243075.469    22243081.811
  23365111.783    -9052636.26949  -7039287.81445  23365111.120    23365119.312
  20285318.429    -1540564.76649  -1105440.65548  20285318.126    20285323.823
  23484826.129     9518505.02649   7406277.38545  23484825.123    23484832.513
  24265473.548    -5480951.07449  -4245974.61045  24265472.893    24265484.475
  20780417.587    -2221116.25749  -1726231.63147  20780416.887    20780423.178
 03  6 10 16 45 30.0000000  0 11G16G26G30G21G29G18G15G 6G10G23G17
  23667772.897    -6567490.91749  -5105066.29245  23667772.353    23667778.649
  21921369.814    -8868294.83649  -6896423.36946  21921369.731    21921376.741
  24034326.780    10552293.63949   8207581.46645  24034326.901    24034335.685
  20961170.591    -5034726.23549  -3911594.76447  20961169.954    20961174.440
  22667745.188    -4107036.98249  -3189445.07046  22667744.917    22667751.377
  22226813.971   -11321602.15949  -8800112.70346  22226813.427    22226819.758
  23350914.836    -9127241.69749  -7097421.85245  23350914.149    23350922.402
  20287862.945    -1527193.34149  -1095021.37748  20287862.635    20287868.349
  23504184.182     9620232.05649   7485545.13345  23504183.223    23504190.621
  24246708.163    -5579563.37149  -4322815.14245  24246707.524    24246718.931
  20779183.326    -2227602.48749  -1731285.84547  20779182.611    20779188.914
 03  6 10 16 46  0.0000000  0 11G16G26G30G21G29G18G15G 6G10G23G17
  23659501.836    -6610955.77849  -5138935.03645  23659501.248    23659507.654
  21910769.464    -8923999.83049  -6939829.80246  21910769.410    21910776.377
  24054040.068    10655886.44049   8288302.94045  24054040.055    24054048.841
  20955162.318    -5066300.12549  -3936197.79947  20955161.673    20955166.163
  22666416.952    -4114017.18849  -3194884.22646  22666416.667    22666423.089
  22210611.970   -11406744.13749  -8866457.05446  22210611.443    22210617.736
  23336735.414    -9201755.06849  -7155484.17645  23336734.695    23336742.881
  20290498.905    -1513341.36149  -1084227.64948  20290498.580    20290504.305
  23523566.826     9722089.11249   7564914.21045  23523565.914    23523573.369
  24227977.565    -5677992.81149  -4399513.18545  24227976.891    24227988.299
  20777985.343    -2233897.85949  -1736191.34147  20777984.651    20777990.949
 03  6 10 16 46 30.0000000  0 11G16G26G30G21G29G18G15G 6G10G23G17
  23651328.137    -6653908.99749  -5172405.09745  23651327.457    23651333.799
  21900266.934    -8979190.84049  -6982835.73646  21900266.881    21900273.804
  24073752.698    10759476.63149   8369022.37845  24073752.628    24073761.613
  20949191.660    -5097676.00649  -3960646.53947  20949191.017    20949195.520
  22665191.518    -4120457.36049  -3199902.56046  22665191.175    22665197.563
  22194470.393   -11491568.62849  -8932554.00646  22194469.838    22194476.123
  23322573.673    -9276175.60249  -7213474.16745  23322572.949    23322581.105
  20293226.505    -1499007.75249  -1073058.62348  20293226.192    20293231.925
  23542973.981     9824074.20749   7644383.06045  23542973.059    23542980.573
  24209282.207    -5776237.04949  -4476066.93245  24209281.563    24209292.835
  20776823.733    -2240002.20849  -1740947.98547  20776823.025    20776829.353
 03  6 10 16 47  0.0000000  0 11G16G26G30G21G29G18G15G 6G10G23G17
  23643251.965    -6696349.65849  -5205475.73745  23643251.318    23643257.683
  21889862.667    -9033865.48249  -7025439.31046  21889862.613    21889869.476
  24093464.224    10863061.07549   8449737.33645  24093464.252    24093473.274
  20943258.703    -5128854.06149  -3984941.13147  20943258.054    20943262.570
  22664068.836    -4126357.05649  -3204499.73946  22664068.492    22664074.904
  22178389.394   -11576074.54149  -8998402.72146  22178388.871    22178395.117
  23308429.540    -9350503.60949  -7271392.04045  23308428.801    23308436.953
  20296045.799    -1484192.43849  -1061514.23848  20296045.490    20296051.225
  23562405.020     9926184.86949   7723949.76045  23562404.137    23562411.625
  24190622.285    -5874294.81249  -4552475.38445  24190621.582    24190632.875
  20775698.482    -2245915.72849  -1745555.93047  20775697.744    20775704.071
 03  6 10 16 47 30.0000000  0 11G16G26G30G21G29G18G15G 6G10G23G17
  23635273.629    -6738276.16549  -5238145.76945  23635273.011    23635279.350
  21879557.126    -9088020.83649  -7067638.25546  21879557.098    21879563.972
  24113174.103    10966637.27749   8530445.90545  24113174.247    24113183.337
  20937363.440    -5159833.85049  -4009081.22047  20937362.775    20937367.304
  22663049.165    -4131715.46849  -3208675.13646  22663048.838    22663055.264
  22162369.339   -11660260.47749  -9064002.10546  22162368.801    22162375.018
  23294302.964    -9424738.98149  -7329237.74345  23294302.260    23294310.408
  20298956.889    -1468894.66549  -1049593.91448  20298956.565    20298962.325
  23581859.573    10028418.74949   7803612.47745  23581858.649    23581866.079
  24171998.276    -5972164.20949  -4628737.04745  24171997.515    24172008.775
  20774609.481    -2251638.38349  -1750015.14947  20774608.748    20774615.058
 03  6 10 16 48  0.0000000  0 11G16G26G30G21G29G18G15G 6G10G23G17
  23627393.292    -6779687.77349  -5270414.56745  23627392.746    23627399.014
  21869350.964    -9141654.27949  -7109430.52146  21869350.973    21869357.808
  24132881.995    11070202.21249   8611145.66445  24132882.033    24132891.152
  20931505.907    -5190615.30749  -4033066.76947  20931505.260    20931509.793
  22662132.667    -4136531.84249  -3212428.16846  22662132.332    22662138.745
  22146410.416   -11744125.01349  -9129351.04646  22146409.879    22146416.070
  23280194.196    -9498881.53449  -7387011.11145  23280193.358    23280201.487
  20301959.875    -1453114.00149  -1037297.31048  20301959.536    20301965.287
  23601337.052    10130773.36849   7883369.27145  23601336.135    23601343.584
  24153410.331    -6069843.68549  -4704850.77845  24153409.542    24153420.687
  20773556.828    -2257170.14249  -1754325.61747  20773556.116    20773562.433
 03  6 10 16 48 30.0000000  0 11G16G26G30G21G29G18G15G 6G10G23G17
  23619611.080    -6820583.64449  -5302281.49045  23619610.604    23619616.822
  21859244.637    -9194763.35349  -7150814.20146  21859244.620    21859251.433
  24152587.089    11173752.87949   8691834.28045  24152587.231    24152596.266
  20925686.061    -5221198.98549  -4056898.20547  20925685.399    20925689.920
  22661319.274    -4140805.99449  -3215758.67446  22661318.935    22661325.427
  22130512.829   -11827666.75449  -9194448.45646  22130512.325    22130518.533
  23266102.839    -9572931.49149  -7444712.31945  23266102.092    23266110.195
  20305054.722    -1436850.27949  -1024624.29948  20305054.413    20305060.191
  23620836.977    10233245.80749   7963217.87645  23620836.055    23620843.543
  24134858.816    -6167331.80249  -4780815.39945  24134858.136    24134869.041
  20772540.365    -2262511.50249  -1758487.72347  20772539.670    20772546.003
 03  6 10 16 49  0.0000000  0 11G16G26G30G21G29G18G15G 6G10G23G17
  23611927.427    -6860961.42849  -5333744.70945  23611926.874    23611933.158
  21849238.841    -9247344.29449  -7191786.34046  21849238.797    21849245.580
  24172289.144    11277287.47049   8772510.40345  24172289.193    24172298.221
  20919904.064    -5251583.71149  -4080574.61147  20919903.402    20919907.906
  22660609.441    -4144536.28749  -3218665.39946  22660609.096    22660615.580
  22114677.261   -11910883.32549  -9259292.49347  22114676.738    22114682.931
  23252029.402    -9646887.77549  -7502340.51046  23252028.626    23252036.776
  20308241.844    -1420102.09149  -1011573.78048  20308241.517    20308247.291
  23640359.061    10335834.61449   8043157.14945  23640358.061    23640365.588
  24116344.283    -6264625.97649  -4856628.90545  24116343.543    24116354.377
  20771560.296    -2267661.77249  -1762500.92747  20771559.618    20771565.950
 03  6 10 16 49 30.0000000  0 11G16G26G30G21G29G18G15G 6G10G23G17
  23604342.367    -6900821.26149  -5364804.32645  23604341.784    23604348.132
  21839333.801    -9299395.43249  -7232345.66046  21839333.744    21839340.596
  24191987.359    11380802.20249   8853171.02645  24191987.375    24191996.659
  20914159.690    -5281770.51249  -4104096.79147  20914159.019    20914163.528
  22660003.046    -4147723.01449  -3221148.56646  22660002.687    22660009.173
  22098903.641   -11993774.36249  -9323882.86447  22098903.098    22098909.262
  23237973.491    -9720751.50849  -7559896.61546  23237972.706    23237980.912
  20311521.012    -1402870.09049   -998146.27148  20311520.687    20311526.466
  23659902.573    10438536.18449   8123184.27945  23659901.561    23659909.087
  24097866.708    -6361725.63149  -4932290.85145  24097866.126    24097876.791
  20770616.527    -2272621.55849  -1766365.70547  20770615.832    20770622.155
 03  6 10 16 50  0.0000000  0 11G16G26G30G21G29G18G15G 6G10G23G17
  23596856.269    -6940161.05149  -5395458.73345  23596855.786    23596862.010
  21829530.257    -9350913.38749  -7272489.52046  21829530.191    21829537.023
  24211681.611    11484295.07049   8933814.63545  24211681.660    24211690.860
  20908453.217    -5311758.22149  -4127463.83847  20908452.549    20908457.064
  22659500.350    -4150364.83549  -3223207.12746  22659500.005    22659506.500
  22083192.297   -12076337.83349  -9388217.98247  22083191.764    22083197.953
  23223935.472    -9794521.68349  -7617379.81446  23223934.715    23223942.846
  20314892.491    -1385152.96749   -984340.74048  20314892.163    20314897.947
  23679467.230    10541349.10349   8203298.19045  23679466.316    23679473.833
  24079426.383    -6458628.31149  -5007799.26245  24079425.900    24079436.472
  20769709.028    -2277390.52849  -1770081.79747  20769708.340    20769714.664
 03  6 10 16 50 30.0000000  0 11G16G26G30G21G29G18G15G 6G10G23G17
  23589469.142    -6978980.41749  -5425707.59045  23589468.680    23589474.882
  21819828.637    -9401895.64849  -7312215.95546  21819828.557    21819835.387
  24231371.030    11587763.02349   9014438.83245  24231371.171    24231380.289
  20902784.544    -5341547.34149  -4150676.13747  20902783.874    20902788.404
  22659101.371    -4152461.47049  -3224840.87046  22659101.041    22659107.536
  22067543.590   -12158572.34449  -9452296.77147  22067543.078    22067549.248
  23209915.139    -9868198.71849  -7674790.44246  23209914.381    23209922.547
  20318356.256    -1366950.76549   -970157.22148  20318355.915    20318361.710
  23699052.546    10644270.55049   8283496.65645  23699051.678    23699059.126
  24061023.885    -6555332.61149  -5083153.10745  24061023.421    24061034.016
  20768837.824    -2281968.75949  -1773649.25647  20768837.143    20768843.490
 03  6 10 16 51  0.0000000  0 11G16G26G30G21G29G18G15G 6G10G23G17
  23582181.308    -7017278.17249  -5455549.99445  23582180.906    23582187.084
  21810229.391    -9452339.83949  -7351523.12346  21810229.302    21810236.155
  24251055.180    11691203.04249   9095041.25245  24251055.344    24251064.497
  20897153.676    -5371137.63349  -4173733.50547  20897153.022    20897157.548
  22658806.220    -4154012.55849  -3226049.50146  22658805.895    22658812.429
  22051957.666   -12240476.63549  -9516118.24047  22051957.138    22051963.307
  23195912.496    -9941782.62949  -7732128.49746  23195911.715    23195919.939
  20321912.424    -1348262.93149   -955595.28948  20321912.113    20321917.889
  23718658.132    10747298.16449   8363777.87045  23718657.215    23718664.730
  24042659.644    -6651837.01449  -5158351.20645  24042659.084    24042669.767
  20768002.895    -2286356.26649  -1777068.10047  20768002.231    20768008.569
 03  6 10 16 51 30.0000000  0 11G16G26G30G21G29G18G15G 6G10G23G17
  23574992.968    -7055053.14249  -5484985.04645  23574992.472    23574998.795
  21800733.091    -9502243.10549  -7390408.78846  21800733.016    21800739.847
  24270733.683    11794612.94949   9175620.20245  24270733.691    24270743.071
  20891560.847    -5400528.11649  -4196635.17647  20891560.184    20891564.729
  22658615.023    -4155017.30749  -3226832.41246  22658614.698    22658621.252
  22036434.869   -12322049.26049  -9579681.28347  22036434.344    22036440.495
  23181927.747   -10015272.76449  -7789393.48245  23181926.946    23181935.231
  20325561.101    -1329089.10249   -940654.67148  20325560.787    20325566.558
  23738283.395    10850429.72449   8444140.07245  23738282.459    23738290.000
  24024333.907    -6748139.55349  -5233392.02145  24024333.310    24024343.964
  20767204.161    -2290553.68749  -1780338.82947  20767203.484    20767209.840
 03  6 10 16 52  0.0000000  0 11G16G26G30G21G29G18G15G 6G10G23G17
  23567904.271    -7092304.38449  -5514011.99145  23567903.810    23567910.224
  21791340.274    -9551602.58949  -7428870.72046  21791340.209    21791347.031
  24290405.812    11897989.88549   9256173.45645  24290405.852    24290415.176
  20886005.764    -5429720.20349  -4219382.25547  20886005.110    20886009.652
  22658527.902    -4155475.14949  -3227189.16446  22658527.598    22658534.150
  22020975.506   -12403288.61849  -9642984.64347  22020974.996    22020981.095
  23167960.781   -10088669.08049  -7846585.35246  23167960.015    23167968.372
  20329302.391    -1309428.65449   -925334.85748  20329302.077    20329307.874
  23757928.095    10953663.25949   8524581.73545  23757927.209    23757934.706
  24006046.870    -6844238.43149  -5308274.15545  24006046.180    24006056.765
  20766441.732    -2294560.37249  -1783460.92847  20766441.062    20766447.399
 03  6 10 16 52 30.0000000  0 11G16G26G30G21G29G18G15G 6G10G23G17
  23560915.382    -7129031.22249  -5542630.30745  23560914.938    23560921.296
  21782051.364    -9600415.99749  -7466907.14546  21782051.300    21782058.139
  24310071.197    12001330.94649   9336698.76145  24310071.168    24310080.573
  20880488.600    -5458713.13449  -4241974.14347  20880487.939    20880492.487
  22658544.866    -4155385.92449  -3227119.64546  22658544.556    22658551.094
  22005579.748   -12484193.70949  -9706027.52547  22005579.254    22005585.344
  23154011.695   -10161971.76549  -7903704.24546  23154010.902    23154019.290
  20333136.253    -1289281.58749   -909635.86648  20333135.933    20333141.744
  23777591.617    11056995.68449   8605100.46345  23777590.716    23777598.329
  23987798.663    -6940132.56849  -5382996.75345  23987798.033    23987808.638
  20765715.470    -2298376.96849  -1786434.90447  20765714.775    20765721.115
 03  6 10 16 53  0.0000000  0 11G16G26G30G21G29G18G15G 6G10G23G17
  23554026.503    -7165232.49949  -5570839.07945  23554026.067    23554032.466
  21772866.887    -9648680.86149  -7504516.12046  21772866.838    21772873.633
  24329729.137    12104633.33649   9417193.93145  24329729.169    24329738.600
  20875009.370    -5487506.60049  -4264410.60447  20875008.722    20875013.263
  22658666.103    -4154748.96749  -3226623.30946  22658665.772    22658672.325
  21990247.844   -12564763.02249  -9768808.76747  21990247.359    21990253.491
  23140080.482   -10235180.63249  -7960750.05746  23140079.716    23140088.002
  20337062.778    -1268647.53549   -893557.40648  20337062.475    20337068.321
  23797273.571    11160424.89049   8685694.60945  23797272.700    23797280.319
  23969589.868    -7035820.27049  -5457558.48145  23969589.228    23969599.828
  20765025.419    -2302003.51849  -1789260.78347  20765024.693    20765031.053
 03  6 10 16 53 30.0000000  0 11G16G26G30G21G29G18G15G 6G10G23G17
  23547237.904    -7200906.77049  -5598637.22945  23547237.506    23547243.805
  21763787.346    -9696394.15649  -7541695.30846  21763787.303    21763794.154
  24349379.372    12207895.03849   9497657.38645  24349379.455    24349388.795
  20869568.160    -5516100.39849  -4286691.47447  20869567.519    20869572.049
  22658891.683    -4153563.51049  -3225699.57646  22658891.336    22658897.921
  21974980.227   -12644994.78349  -9831326.97347  21974979.728    21974985.872
  23126167.256   -10308295.00949  -8017722.21946  23126166.488    23126174.813
  20341082.157    -1247525.72949   -877098.87448  20341081.842    20341087.675
  23816973.619    11263949.00649   8766362.69245  23816972.813    23816980.430
  23951420.673    -7131299.34049  -5531957.62545  23951420.057    23951430.681
  20764371.542    -2305439.67449  -1791938.30747  20764370.825    20764377.181
 03  6 10 16 54  0.0000000  0 11G16G26G30G21G29G18G15G 6G10G23G17
  23540549.543    -7236054.23349  -5626024.87045  23540549.137    23540555.392
  21754813.072    -9743554.25249  -7578443.43346  21754813.016    21754819.860
  24369021.161    12311112.29149   9578086.19145  24369021.277    24369030.509
  20864164.828    -5544495.00849  -4308817.13647  20864164.200    20864168.721
  22659221.527    -4151830.00949  -3224348.79446  22659221.208    22659227.754
  21959776.891   -12724888.60149  -9893581.85547  21959776.403    21959782.547
  23112271.805   -10381315.78549  -8074621.45146  23112271.048    23112279.343
  20345194.190    -1225916.86249   -860260.81448  20345193.885    20345199.731
  23836691.114    11367564.90549   8847102.30245  23836690.303    23836697.995
  23933291.341    -7226569.10549  -5606193.67645  23933290.688    23933301.442
  20763753.811    -2308685.78249  -1794467.74547  20763753.113    20763759.462
 03  6 10 16 54 30.0000000  0 11G16G26G30G21G29G18G15G 6G10G23G17
  23533961.871    -7270673.01149  -5653000.56245  23533961.428    23533967.674
  21745944.729    -9790157.58249  -7614757.70246  21745944.666    21745951.535
  24388654.190    12414283.45849   9658479.10745  24388654.285    24388663.525
  20858799.610    -5572689.46249  -4330786.83447  20858798.994    20858803.503
  22659655.957    -4149547.05949  -3222569.87046  22659655.707    22659662.183
  21944638.395   -12804441.90749  -9955571.40847  21944637.893    21944644.008
  23098394.389   -10454241.83249  -8131446.87246  23098393.675    23098401.948
  20349399.218    -1203819.38049   -843042.02748  20349398.914    20349404.764
  23856425.803    11471271.21549   8927912.35545  23856424.991    23856432.719
  23915202.329    -7321626.83149  -5680264.50245  23915201.691    23915212.430
  20763172.454    -2311740.82549  -1796848.30247  20763171.765    20763178.108
 03  6 10 16 55  0.0000000  0 11G16G26G30G21G29G18G15G 6G10G23G17
  23527474.830    -7304762.86149  -5679564.10045  23527474.289    23527480.498
  21737182.723    -9836202.50449  -7650636.84646  21737182.622    21737189.496
  24408277.672    12517404.93949   9738833.28845  24408277.711    24408287.106
  20853472.345    -5600684.46849  -4352601.11947  20853471.722    20853476.234
  22660194.824    -4146715.21549  -3220363.23446  22660194.594    22660201.065
  21929564.746   -12883654.45449 -10017295.43347  21929564.239    21929570.319
  23084534.926   -10527073.83149  -8188199.00746  23084534.150    23084542.391
  20353697.059    -1181234.15149   -825443.17548  20353696.759    20353702.608
  23876177.091    11575064.48349   9008790.17245  23876176.307    23876183.955
  23897153.736    -7416472.03549  -5754169.71745  23897153.105    23897163.861
  20762627.239    -2314606.00949  -1799080.91947  20762626.553    20762632.888
 03  6 10 16 55 30.0000000  0 11G16G26G30G21G29G18G15G 6G10G23G17
  23521088.643    -7338322.52949  -5705714.47645  23521088.110    23521094.343
  21728527.411    -9881686.00549  -7686078.51646  21728527.373    21728534.257
  24427891.394    12620474.83249   9819147.27445  24427891.472    24427900.930
  20848183.142    -5628479.34249  -4374259.45247  20848182.514    20848187.021
  22660838.382    -4143333.39949  -3217728.05846  22660838.148    22660844.637
  21914556.202   -12962524.43649 -10078752.51447  21914555.699    21914561.784
  23070693.459   -10599810.94049  -8244877.22246  23070692.662    23070700.908
  20358087.927    -1158160.15049   -807463.45148  20358087.629    20358093.482
  23895944.479    11678942.94949   9089734.37245  23895943.703    23895951.465
  23879146.155    -7511102.51049  -5827907.62945  23879145.471    23879156.175
  20762118.266    -2317280.77649  -1801165.15447  20762117.575    20762123.901
 03  6 10 16 56  0.0000000  0 11G16G26G30G21G29G18G15G 6G10G23G17
  23514803.637    -7371350.79949  -5731450.79345  23514803.070    23514809.372
  21719979.550    -9926605.37949  -7721080.61846  21719979.491    21719986.424
  24447494.873    12723490.51949   9899418.99945  24447494.921    24447504.315
  20842932.161    -5656073.33549  -4395761.26147  20842931.549    20842936.055
  22661586.646    -4139401.18049  -3214664.00346  22661586.391    22661592.910
  21899613.224   -13041050.14849 -10139941.34947  21899612.723    21899618.765
  23056870.137   -10672452.76249  -8301481.16846  23056869.332    23056877.556
  20362571.882    -1134596.89349   -789102.49648  20362571.565    20362577.451
  23915727.827    11782904.85149   9170743.58445  23915727.027    23915734.859
  23861179.729    -7605516.33249  -5901476.74045  23861178.990    23861189.643
  20761645.576    -2319764.79649  -1803100.76547  20761644.882    20761651.205
 03  6 10 16 56 30.0000000  0 11G16G26G30G21G29G18G15G 6G10G23G17
  23508619.628    -7403847.81749  -5756773.15845  23508619.082    23508625.419
  21711539.307    -9970958.86149  -7755641.74446  21711539.274    21711546.190
  24467087.333    12826448.76149   9979645.98045  24467087.427    24467096.917
  20837719.297    -5683467.17949  -4417107.10847  20837718.687    20837723.185
  22662439.586    -4134918.84149  -3211171.28246  22662439.340    22662445.829
  21884735.872   -13119231.03649 -10200861.47647  21884735.363    21884741.446
  23043064.778   -10744999.94049  -8358011.37646  23043064.059    23043072.161
  20367148.824    -1110544.99249   -770360.77748  20367148.526    20367154.418
  23935526.557    11886947.34749   9251815.62545  23935525.740    23935533.521
  23843254.616    -7699712.63749  -5974876.33845  23843253.869    23843264.478
  20761208.999    -2322058.99749  -1804888.46347  20761208.315    20761214.637
 03  6 10 16 57  0.0000000  0 11G16G26G30G21G29G18G15G 6G10G23G17
  23502536.983    -7435812.51849  -5781680.73745  23502536.472    23502542.721
  21703207.315   -10014744.00449  -7789760.00946  21703207.253    21703214.155
  24486668.268    12929347.04849  10059826.22545  24486668.401    24486678.083
  20832544.561    -5710660.51949  -4438296.72047  20832543.950    20832548.448
  22663397.327    -4129886.05249  -3207249.63146  22663397.066    22663403.568
  21869924.442   -13197065.57349 -10261511.72547  21869923.937    21869929.979
  23029277.519   -10817452.22449  -8414467.65946  23029276.733    23029284.829
  20371818.841    -1086003.98449   -751237.94048  20371818.533    20371824.429
  23955340.154    11991068.08549   9332948.61945  23955339.334    23955347.065
  23825371.192    -7793689.73249  -6048105.11445  23825370.450    23825381.010
  20760808.642    -2324162.99349  -1806527.94747  20760807.962    20760814.300
 03  6 10 16 57 30.0000000  0 11G16G26G30G21G29G18G15G 6G10G23G17
  23496555.906    -7467243.38049  -5806172.33745  23496555.283    23496561.701
  21694983.992   -10057957.83249  -7823433.10446  21694983.945    21694990.795
  24506237.448    13032183.25349  10139958.11145  24506237.634    24506247.486
  20827408.100    -5737652.73049  -4459329.61047  20827407.476    20827412.007
  22664459.948    -4124302.06849  -3202898.48846  22664459.671    22664466.229
  21855179.278   -13274551.85949 -10321890.60747  21855178.765    21855184.816
  23015508.405   -10889809.00749  -8470849.49846  23015507.686    23015515.759
  20376582.086    -1060973.16149   -731733.42348  20376581.786    20376587.702
  23975168.382    12095265.49649   9414141.36645  23975167.556    23975175.224
  23807529.893    -7887445.61849  -6121161.50445  23807529.211    23807539.747
  20760444.630    -2326075.85849  -1808018.50047  20760443.944    20760450.297
 03  6 10 16 58  0.0000000  0 11G16G26G30G21G29G18G15G 6G10G23G17
  23490676.454    -7498140.30349  -5830247.89145  23490675.834    23490682.220
  21686869.736   -10100598.45149  -7856659.55046  21686869.683    21686876.523
  24525794.308    13134954.36149  10220039.26645  24525794.646    24525804.407
  20822309.884    -5764444.04749  -4480205.96047  20822309.275    20822313.803
  22665627.426    -4118166.99249  -3198117.92646  22665627.143    22665633.637
  21840500.475   -13351689.17749 -10381997.56747  21840499.987    21840506.010
  23001757.419   -10962070.71649  -8527157.28046  23001756.735    23001764.743
  20381438.489    -1035452.74249   -711847.41048  20381438.164    20381444.100
  23995010.604    12199536.93049   9495391.77845  23995009.771    23995017.510
  23789730.968    -7980979.09349  -6194044.60145  23789730.332    23789740.801
  20760116.807    -2327798.47749  -1809360.81247  20760116.151    20760122.508
 03  6 10 16 58 30.0000000  0 11G16G26G30G21G29G18G15G 6G10G23G17
  23484898.687    -7528502.68549  -5853906.90645  23484898.133    23484904.475
  21678865.010   -10142663.48949  -7889437.47746  21678864.974    21678871.785
  24545338.246    13237657.83949  10300067.73845  24545338.525    24545348.426
  20817249.935    -5791034.16749  -4500925.52847  20817249.338    20817253.864
  22666899.809    -4111480.58149  -3192907.74846  22666899.532    22666906.045
  21825888.338   -13428476.27649 -10441831.63247  21825887.852    21825893.864
  22988024.642   -11034236.83649  -8583390.56346  22988023.963    22988031.894
  20386388.096    -1009442.45249   -691579.67648  20386387.787    20386393.740
  24014866.506    12303880.15649   9576698.14845  24014865.664    24014873.400
  23771974.774    -8074288.62649  -6266753.21245  23771974.055    23771984.428
  20759825.255    -2329330.73449  -1810554.79447  20759824.592    20759830.953
 03  6 10 16 59  0.0000000  0 11G16G26G30G21G29G18G15G 6G10G23G17
  23479222.881    -7558329.62449  -5877148.69045  23479222.332    23479228.608
  21670970.327   -10184150.54749  -7921765.04846  21670970.270    21670977.089
  24564868.805    13340290.93249  10380041.35645  24564869.154    24564878.949
  20812228.296    -5817423.09549  -4521488.33047  20812227.685    20812232.235
  22668277.118    -4104242.74249  -3187267.88646  22668276.848    22668283.375
  21811343.101   -13504911.88649 -10501391.81347  21811342.592    21811348.549
  22974310.009   -11106307.44449  -8639549.44146  22974309.366    22974317.179
  20391430.956     -982942.20449   -670930.15848  20391430.636    20391436.570
  24034735.568    12408292.94049   9658058.71545  24034734.690    24034742.436
  23754261.436    -8167372.70349  -6339286.14145  23754260.668    23754271.081
  20759569.915    -2330672.65849  -1811600.45547  20759569.239    20759575.605
 03  6 10 16 59 30.0000000  0 11G16G26G30G21G29G18G15G 6G10G23G17
  23473649.073    -7587620.26849  -5899972.57045  23473648.561    23473654.775
  21663185.991   -10225057.44249  -7953640.52746  21663185.938    21663192.736
  24584385.500    13442851.21149  10459958.22945  24584385.813    24584395.798
  20807244.976    -5843610.41449  -4541894.03547  20807244.394    20807248.925
  22669759.404    -4096453.15549  -3181198.08646  22669759.133    22669765.698
  21796865.047   -13580994.56549 -10560676.98047  21796864.525    21796870.496
  22960613.665   -11178281.90949  -8695633.40046  22960613.038    22960620.849
  20396567.033     -955951.96349   -649898.82448  20396566.721    20396572.667
  24054617.467    12512773.05549   9739471.73845  24054616.545    24054624.393
  23736591.148    -8260229.64549  -6411642.09045  23736590.560    23736600.802
  20759350.833    -2331823.95149  -1812497.57447  20759350.141    20759356.527
 03  6 10 17  0  0.0000000  0 11G16G26G30G21G29G18G15G 6G10G23G17
  23468177.405    -7616374.20349  -5922378.25245  23468176.909    23468183.087
  21655512.482   -10265381.88649  -7985062.15846  21655512.411    21655519.181
  24603887.825    13545335.96849  10539816.27345  24603888.102    24603898.298
  20802300.113    -5869595.98949  -4562142.53547  20802299.508    20802304.027
  22671346.767    -4088111.65349  -3174698.23246  22671346.463    22671353.069
  21782454.347   -13656723.09949 -10619686.18647  21782453.821    21782459.820
  22946935.714   -11250160.22249  -8751642.43546  22946935.067    22946942.785
  20401796.393     -928471.65149   -628485.61448  20401796.080    20401802.020
  24074511.668    12617318.11449   9820935.33045  24074510.763    24074518.851
  23718964.518    -8352857.92449  -6483819.85245  23718963.893    23718974.238
  20759168.023    -2332784.64249  -1813246.17547  20759167.337    20759173.732
 03  6 10 17  0 30.0000000  0 11G16G26G30G21G29G18G15G 6G10G23G17
  23462807.964    -7644590.71549  -5944365.15345  23462807.487    23462813.681
  21647950.261   -10305121.50749  -8016028.08646  21647950.226    21647956.941
  24623375.405    13647742.83549  10619613.60545  24623375.712    24623385.943
  20797393.695    -5895379.60149  -4582233.66347  20797393.074    20797397.587
  22673039.146    -4079218.26549  -3167768.33646  22673038.852    22673045.433
  21768111.309   -13732096.22949 -10678418.45847  21768110.790    21768116.806
  22933276.032   -11321942.26749  -8807576.45646  22933275.324    22933283.070
  20407119.030     -900501.07949   -606690.38948  20407118.716    20407124.664
  24094417.973    12721926.24749   9902448.09845  24094417.143    24094425.055
  23701381.721    -8445255.98749  -6555818.21545  23701381.006    23701391.246
  20759021.596    -2333554.26749  -1813845.89847  20759020.899    20759027.273
 03  6 10 17  1  0.0000000  0 11G16G26G30G21G29G18G15G 6G10G23G17
  23457540.947    -7672269.41049  -5965932.98845  23457540.403    23457546.629
  21640499.727   -10344274.59349  -8046536.97146  21640499.684    21640506.347
  24642847.617    13750068.81849  10699347.91345  24642847.941    24642858.085
  20792525.656    -5920961.38249  -4602167.52547  20792525.024    20792529.517
  22674836.555    -4069773.12649  -3160408.49946  22674836.237    22674842.765
  21753836.003   -13807113.14049 -10736873.15347  21753835.503    21753841.507
  22919634.648   -11393628.31349  -8863435.66446  22919633.928    22919641.664
  20412534.937     -872040.51849   -584513.35848  20412534.626    20412540.575
  24114335.963    12826594.97149   9984008.07945  24114334.943    24114342.885
  23683842.889    -8537422.73849  -6627636.33245  23683842.167    23683852.331
  20758911.453    -2334133.19249  -1814297.02247  20758910.755    20758917.135
 03  6 10 17  1 30.0000000  0 11G16G26G30G21G29G18G15G 6G10G23G17
  23452376.328    -7699409.61249  -5987081.20145  23452375.778    23452382.044
  21633161.274   -10382838.57049  -8076586.81746  21633161.204    21633167.828
  24662303.931    13852311.51749  10779017.34245  24662304.292    24662314.582
  20787696.115    -5946340.79249  -4621943.69047  20787695.478    20787699.991
  22676739.029    -4059775.87849  -3152618.44746  22676738.721    22676745.236
  21739628.801   -13881772.72049 -10795049.43047  21739628.279    21739634.252
  22906011.622   -11465217.73049  -8919219.58346  22906010.878    22906018.613
  20418044.109     -843089.59249   -561954.22348  20418043.792    20418049.752
  24134264.962    12931322.29949  10065613.73045  24134264.066    24134271.768
  23666348.392    -8629356.34749  -6699272.77445  23666347.709    23666357.827
  20758837.659    -2334521.00449  -1814599.23247  20758836.966    20758843.348
 03  6 10 17  2  0.0000000  0 11G16G26G30G21G29G18G15G 6G10G23G17
  23447314.175    -7726011.48949  -6007809.96645  23447313.633    23447319.968
  21625935.110   -10420811.99449  -8106176.49046  21625935.017    21625941.701
  24681743.739    13954467.66349  10858619.28945  24681744.004    24681754.423
  20782905.025    -5971518.21649  -4641562.46447  20782904.395    20782908.887
  22678746.346    -4049227.19049  -3144398.70746  22678746.110    22678752.615
  21725489.659   -13956074.22049 -10852946.67547  21725489.137    21725495.100
  22892406.833   -11536710.97249  -8974928.55446  22892406.097    22892413.853
  20423646.498     -813648.98749   -539013.52548  20423646.204    20423652.160
  24154204.560    13036105.23549  10147262.73945  24154203.563    24154211.183
  23648898.318    -8721056.08149  -6770726.96045  23648897.719    23648907.862
  20758799.998    -2334718.87149  -1814753.43047  20758799.312    20758805.705
 03  6 10 17  2 30.0000000  0 11G16G26G30G21G29G18G15G 6G10G23G17
  23442354.969    -7752072.43049  -6028117.21345  23442354.396    23442360.770
  21618822.196   -10458190.75249  -8135302.77846  21618822.101    21618828.770
  24701167.099    14056536.76349  10938153.42545  24701167.178    24701177.831
  20778152.679    -5996491.96249  -4661022.52747  20778152.045    20778156.535
  22680858.986    -4038125.23549  -3135747.83446  22680858.709    22680865.255
  21711419.199   -14030014.66049 -10910562.55547  21711418.678    21711424.694
  22878820.746   -11608106.07949  -9030561.06346  22878819.963    22878827.780
  20429342.415     -783716.79649   -515689.77148  20429342.101    20429348.079
  24174154.799    13140943.80249  10228955.09945  24174153.832    24174161.482
  23631493.508    -8812518.61349  -6841996.30045  23631492.748    23631502.968
  20758798.805    -2334725.19449  -1814758.37347  20758798.113    20758804.494
 03  6 10 17  3  0.0000000  0 11G16G26G30G21G29G18G15G 6G10G23G17
  23437498.475    -7777593.56349  -6048003.83945  23437497.908    23437504.245
  21611822.400   -10494974.64049  -8163965.52746  21611822.327    21611829.041
  24720573.009    14158514.61849  11017616.48145  24720572.973    24720583.706
  20773438.948    -6021262.89649  -4680324.55647  20773438.278    20773442.770
  22683076.567    -4026471.51249  -3126667.02346  22683076.323    22683082.900
  21697417.370   -14103594.45749 -10967897.41947  21697416.871    21697422.922
  22865253.068   -11679404.63249  -9086118.34346  22865252.315    22865260.071
  20435131.583     -753294.63549   -491984.22048  20435131.273    20435137.288
  24194114.790    13245834.16449  10310687.79545  24194113.813    24194121.524
  23614133.799    -8903744.08149  -6913080.91845  23614133.026    23614143.271
  20758833.947    -2334540.56649  -1814614.52547  20758833.259    20758839.627
 03  6 10 17  3 30.0000000  0 11G16G26G30G21G29G18G15G 6G10G23G17
  23432744.893    -7802573.77949  -6067468.96045  23432744.329    23432750.690
  21604936.419   -10531160.70849  -8192162.45246  21604936.344    21604943.057
  24739961.235    14260399.17949  11097006.83445  24739961.360    24739971.889
  20768763.909    -6045830.37049  -4699468.03747  20768763.274    20768767.784
  22685399.309    -4014265.59449  -3117155.92446  22685399.055    22685405.547
  21683484.518   -14176811.88149 -11024949.91647  21683484.006    21683490.051
  22851703.945   -11750605.83449  -9141599.73846  22851703.185    22851710.862
  20441014.085     -722381.98349   -467896.47048  20441013.781    20441019.753
  24214084.360    13350774.61049  10392459.54545  24214083.308    24214091.165
  23596819.524    -8994730.41949  -6983979.20245  23596818.762    23596828.925
  20758905.519    -2334164.52949  -1814321.52347  20758904.839    20758911.224
 03  6 10 17  4  0.0000000  0 11G16G26G30G21G29G18G15G 6G10G23G17
  23428094.334    -7827012.72949  -6086512.31845  23428093.788    23428100.141
  21598164.503   -10566747.13049  -8219892.12146  21598164.442    21598171.177
  24759331.176    14362187.71349  11176322.35845  24759331.301    24759341.919
  20764127.553    -6070194.48249  -4718453.05747  20764126.924    20764131.410
  22687827.013    -4001507.70749  -3107214.71946  22687826.764    22687833.255
  21669620.861   -14249665.97449 -11081719.30447  21669620.364    21669626.321
  22838173.308   -11821709.64649  -9197005.28146  22838172.553    22838180.196
  20446989.850     -690979.22949   -443426.82948  20446989.564    20446995.545
  24234063.092    13455762.89449  10474268.55045  24234061.968    24234069.741
  23579550.983    -9085476.30349  -7054690.12745  23579550.367    23579560.370
  20759013.432    -2333597.41049  -1813879.63147  20759012.754    20759019.150
 03  6 10 17  4 30.0000000  0 11G16G26G30G21G29G18G15G 6G10G23G17
  23423546.783    -7850910.44549  -6105133.92045  23423546.216    23423552.634
  21591507.071   -10601732.20549  -8247153.20446  21591507.010    21591513.745
  24778682.248    14463877.51849  11255560.92945  24778682.394    24778693.023
  20759529.904    -6094355.34449  -4737279.69947  20759529.247    20759533.742
  22690359.728    -3988198.19749  -3096843.67246  22690359.551    22690365.972
  21655826.512   -14322155.90949 -11138204.92847  21655825.984    21655831.909
  22824661.199   -11892716.20549  -9252335.02046  22824660.506    22824668.106
  20453058.832     -659086.59649   -418575.45748  20453058.532    20453064.535
  24254050.421    13560796.61349  10556112.96545  24254049.260    24254057.048
  23562328.509    -9175980.70149  -7125212.86345  23562327.880    23562337.878
  20759157.706    -2332839.44149  -1813289.02247  20759157.035    20759163.422
 03  6 10 17  5  0.0000000  0 11G16G26G30G21G29G18G15G 6G10G23G17
  23419102.299    -7874266.25549  -6123333.27645  23419101.734    23419108.207
  21584964.548   -10636113.57449  -8273943.87246  21584964.460    21584971.194
  24798014.078    14565466.42849  11334720.91345  24798014.222    24798024.839
  20754971.098    -6118312.05249  -4755947.25647  20754970.423    20754974.916
  22692997.550    -3974336.66349  -3086042.47446  22692997.315    22693003.797
  21642101.730   -14394279.94049 -11194405.43547  21642101.205    21642107.129
  22811167.769   -11963624.76049  -9307588.39846  22811166.988    22811174.637
  20459221.149     -626703.64049   -393342.01348  20459220.846    20459226.867
  24274046.092    13665874.23949  10637991.59545  24274045.028    24274052.759
  23545152.306    -9266241.72549  -7195545.95145  23545151.711    23545161.640
  20759338.464    -2331889.61549  -1812548.91047  20759337.789    20759344.184
 03  6 10 17  5 30.0000000  0 10G16G26G21G29G18G15G 6G10G23G17
  23414761.629    -7897076.19149  -6141107.26445  23414761.158    23414767.648
  21578537.905   -10669885.96849  -8300260.01346  21578537.809    21578544.516
  20750451.840    -6142060.85149  -4774452.80247  20750451.192    20750455.705
  22695740.952    -3959920.16649  -3074808.84246  22695740.715    22695747.245
  21628447.356   -14466033.96949 -11250317.62447  21628446.838    21628452.747
  22797693.602   -12034431.87949  -9362762.72846  22797692.776    22797700.403
  20465477.312     -593827.33249   -367724.14048  20465477.005    20465483.028
  24294050.218    13770996.94449  10719905.33445  24294049.150    24294056.967
  23528023.234    -9356254.76449  -7265685.79445  23528022.619    23528032.576
  20759556.247    -2330745.33249  -1811657.27447  20759555.569    20759561.960
 03  6 10 17  6  0.0000000  0 10G16G26G21G29G18G15G 6G10G23G17
  23410524.165    -7919344.49149  -6158459.20645  23410523.711    23410530.076
  21572226.580   -10703051.97049  -8326103.63846  21572226.499    21572233.230
  20745971.213    -6165606.76249  -4792800.26547  20745970.573    20745975.072
  22698589.079    -3944953.40249  -3063146.42746  22698588.824    22698595.301
  21614862.778   -14537421.31149 -11305944.08247  21614862.242    21614868.158
  22784237.863   -12105142.03049  -9417861.49746  22784237.051    22784244.712
  20471826.449     -560462.46949   -341725.58148  20471826.150    20471832.176
  24314061.578    13876157.76949  10801848.80145  24314060.697    24314068.420
  23510940.797    -9446022.92349  -7335634.83245  23510940.205    23510950.137
  20759810.272    -2329410.27949  -1810616.98847  20759809.613    20759816.020
 03  6 10 17  6 30.0000000  0 10G16G26G21G29G18G15G 6G10G23G17
  23406389.834    -7941070.61449  -6175388.66445  23406389.404    23406395.776
  21566031.145   -10735609.41849  -8351473.06746  21566031.097    21566037.756
  20741529.347    -6188948.93549  -4810988.97147  20741528.689    20741533.194
  22701541.871    -3929436.32849  -3051055.20546  22701541.580    22701548.082
  21601348.179   -14608440.76249 -11361283.87947  21601347.668    21601353.582
  22770800.668   -12175754.76149  -9472884.35846  22770799.853    22770807.540
  20478268.590     -526608.89649   -315346.21247  20478268.280    20478274.337
  24334079.917    13981354.83449  10883820.50045  24334079.087    24334086.951
  23493905.298    -9535544.71449  -7405391.89245  23493904.669    23493914.627
  20760100.552    -2327884.82649  -1809428.34247  20760099.902    20760106.333
 03  6 10 17  7  0.0000000  0 10G16G26G21G29G18G15G 6G10G23G17
  23402358.862    -7962253.61249  -6191894.92345  23402358.404    23402364.827
  21559951.892   -10767555.85549  -8376366.38446  21559951.856    21559958.555
  20737126.398    -6212086.54449  -4829018.27747  20737125.747    20737130.237
  22704599.422    -3913368.45249  -3038534.78346  22704599.203    22704605.699
  21587903.886   -14679090.63949 -11416335.69647  21587903.376    21587909.280
  22757382.180   -12246269.06849  -9527830.51246  22757381.412    22757389.059
  20484803.803     -492266.16449   -288585.68247  20484803.526    20484809.563
  24354105.065    14086586.85649  10965819.39345  24354104.144    24354112.132
  23476917.019    -9624818.17449  -7474955.47845  23476916.379    23476926.278
  20760427.323    -2326167.68449  -1808090.32647  20760426.666    20760433.105
 03  6 10 17  7 30.0000000  0 10G16G26G21G29G18G15G 6G10G23G17
  23398431.285    -7982893.08949  -6207977.65245  23398430.794    23398437.297
  21553989.318   -10798889.26049  -8400782.00546  21553989.274    21553995.980
  20732762.466    -6235019.21949  -4846887.89447  20732761.808    20732766.315
  22707761.872    -3896749.84349  -3025585.21146  22707761.594    22707768.046
  21574530.170   -14749369.82549 -11471098.66147  21574529.644    21574535.562
  22743982.527   -12316684.66549  -9582699.78446  22743981.739    22743989.393
  20491432.109     -457434.22649   -261443.94247  20491431.817    20491437.871
  24374136.432    14191851.91649  11047844.08245  24374135.457    24374143.496
  23459976.261    -9713841.77349  -7544324.36545  23459975.617    23459985.471
  20760790.688    -2324258.38749  -1806602.57547  20760790.014    20760796.486
 03  6 10 17  8  0.0000000  0 10G16G26G21G29G18G15G 6G10G23G17
  23394607.262    -8002988.31249  -6223636.28845  23394606.800    23394613.363
  21548143.860   -10829607.40149  -8424718.20646  21548143.831    21548150.494
  20728437.612    -6257746.35849  -4864597.35347  20728436.962    20728441.490
  22711029.052    -3879580.54349  -3012206.53346  22711028.812    22711035.270
  21561227.291   -14819276.94549 -11525571.70147  21561226.743    21561232.644
  22730601.815   -12387000.84949  -9637491.57846  22730601.022    22730608.641
  20498153.561     -422112.96349   -233920.90847  20498153.274    20498159.335
  24394173.699    14297148.31049  11129893.15345  24394172.686    24394180.660
  23443083.407    -9802613.74649  -7613497.18645  23443082.692    23443092.553
  20761190.520    -2322157.23449  -1804965.32047  20761189.867    20761196.304
 03  6 10 17  8 30.0000000  0 10G16G26G21G29G18G15G 6G10G23G17
  23390886.947    -8022539.29349  -6238870.83545  23390886.506    23390892.947
  21542415.761   -10859708.91849  -8448173.90746  21542415.666    21542422.353
  20724151.936    -6280267.76749  -4882146.49847  20724151.299    20724155.805
  22714400.994    -3861861.06149  -2998399.14546  22714400.698    22714407.154
  21547995.359   -14888811.07849 -11579754.10047  21547994.814    21548000.700
  22717239.881   -12457218.04349  -9692206.22546  22717239.143    22717246.708
  20504968.025     -386303.00149   -206017.08148  20504967.726    20504973.787
  24414216.528    14402473.68749  11211964.80245  24414215.510    24414223.456
  23426238.580    -9891133.17149  -7682473.22145  23426237.863    23426247.700
  20761626.876    -2319864.29049  -1803178.62447  20761626.215    20761632.639
 03  6 10 17  9  0.0000000  0 10G16G26G21G29G18G15G 6G10G23G17
  23387270.186    -8041545.86949  -6253681.19645  23387269.730    23387276.090
  21536805.271   -10889191.84849  -8471147.59446  21536805.210    21536811.863
  20719905.412    -6302583.44249  -4899535.33447  20719904.778    20719909.264
  22717877.524    -3843591.72049  -2984163.30046  22717877.261    22717883.679
  21534834.553   -14957971.56949 -11633645.34847  21534833.985    21534839.886
  22703896.848   -12527335.83249  -9746843.42646  22703896.110    22703903.657
  20511875.425     -350004.41549   -177732.51547  20511875.134    20511881.198
  24434264.507    14507825.98649  11294057.42045  24434263.401    24434271.456
  23409442.221    -9979398.44549  -7751251.22745  23409441.511    23409451.299
  20762099.851    -2317378.81649  -1801241.89947  20762099.178    20762105.633
 03  6 10 17  9 30.0000000  0 10G16G26G21G29G18G15G 6G10G23G17
  23383757.070    -8060007.62749  -6268067.01045  23383756.562    23383762.996
  21531312.980   -10918054.15349  -8493637.67546  21531312.902    21531319.563
  20715698.181    -6324692.65649  -4916763.28747  20715697.531    20715702.038
  22721458.691    -3824772.38449  -2969498.88346  22721458.481    22721464.912
  21521745.076   -15026756.91449 -11687244.27047  21521744.526    21521750.421
  22690572.873   -12597353.59249  -9801402.68246  22690572.074    22690579.704
  20518875.926     -313216.94149   -149066.98047  20518875.618    20518881.676
  24454317.240    14613203.77049  11376169.89745  24454316.070    24454324.181
  23392694.455   -10067407.88849  -7819829.88545  23392693.825    23392703.476
  20762609.540    -2314700.39549  -1799154.82647  20762608.865    20762615.320
 03  6 10 17 10  0.0000000  0 10G16G26G21G29G18G15G 6G10G23G17
  23380347.582    -8077924.63949  -6282028.37545  23380347.082    23380353.574
  21525939.015   -10946294.43249  -8515643.04747  21525938.983    21525945.665
  20711530.155    -6346595.63349  -4933830.54247  20711529.517    20711534.035
  22725144.460    -3805403.82849  -2954406.51146  22725144.200    22725150.640
  21508727.156   -15095166.31149 -11740550.25747  21508726.628    21508732.502
  22677267.832   -12667271.53349  -9855884.15946  22677267.075    22677274.751
  20525969.229     -275941.35149   -120021.10547  20525968.947    20525975.009
  24474374.365    14718604.64049  11458300.39345  24474373.155    24474381.153
  23375995.665   -10155160.54049  -7888208.48145  23375995.015    23376004.478
  20763155.886    -2311829.40949  -1796917.70647  20763155.217    20763161.672
 03  6 10 17 10 30.0000000  0 10G16G26G21G29G18G15G 6G10G23G17
  23377041.836    -8095296.40649  -6295564.84745  23377041.331    23377047.876
  21520683.758   -10973910.95549  -8537162.37547  21520683.701    21520690.439
  20707401.513    -6368291.76149  -4950736.60947  20707400.885    20707405.408
  22728934.610    -3785486.16449  -2938886.25346  22728934.336    22728940.824
  21495780.943   -15163199.00649 -11793562.70947  21495780.421    21495786.246
  22663981.925   -12737089.16149  -9910287.45146  22663981.192    22663988.865
  20533155.458     -238177.83249    -90595.01747  20533155.152    20533161.225
  24494435.479    14824026.60249  11540447.28845  24494434.426    24494442.524
  23359345.950   -10242655.10249  -7956385.96545  23359345.302    23359354.684
  20763738.907    -2308765.66749  -1794530.38347  20763738.233    20763744.674
 03  6 10 17 11  0.0000000  0 10G16G26G21G29G18G15G 6G10G23G17
  23373839.977    -8112122.57949  -6308676.17745  23373839.507    23373845.989
  21515547.569   -11000901.52049  -8558193.94347  21515547.546    21515554.258
  20703312.330    -6389780.32449  -4967480.94147  20703311.725    20703316.256
  22732829.222    -3765019.65749  -2922938.33646  22732828.950    22732835.521
  21482906.711   -15230853.47149 -11846280.44147  21482906.203    21482912.025
  22650715.255   -12806805.92449  -9964612.16046  22650714.497    22650722.160
  20540434.444     -199926.35249    -60788.71047  20540434.163    20540440.252
  24514500.374    14929468.07649  11622609.39645  24514499.145    24514507.341
  23342745.649   -10329889.73449  -8024360.90445  23342744.994    23342754.455
  20764358.737    -2305508.47549  -1791992.32347  20764358.074    20764364.499
 03  6 10 17 11 30.0000000  0 10G16G26G21G29G18G15G 6G10G23G17
  23370741.831    -8128403.62949  -6321362.74445  23370741.352    23370747.883
  21510530.780   -11027264.97649  -8578736.85947  21510530.690    21510537.452
  20699262.623    -6411061.63749  -4984063.78147  20699262.019    20699266.548
  22736828.231    -3744005.00449  -2906563.28146  22736827.942    22736834.528
  21470104.464   -15298129.47649 -11898703.25747  21470103.956    21470109.795
  22637467.688   -12876422.13349 -10018858.52046  22637466.958    22637474.580
  20547806.204     -161187.72049    -30602.80447  20547805.910    20547812.022
  24534568.509    15034926.57749  11704784.78645  24534567.502    24534575.198
  23326194.948   -10416863.58749  -8092132.62945  23326194.262    23326203.744
  20765015.334    -2302058.25849  -1789303.85247  20765014.669    20765021.096
 03  6 10 17 12  0.0000000  0 10G16G26G21G29G18G15G 6G10G23G17
  23367747.523    -8144139.12149  -6333624.17445  23367747.045    23367753.516
  21505633.567   -11052999.61849  -8598789.78547  21505633.520    21505640.235
  20695252.458    -6432135.31349  -5000484.82247  20695251.835    20695256.362
  22740931.399    -3722442.52349  -2889761.35146  22740931.111    22740937.807
  21457374.475   -15365025.83349 -11950830.25647  21457373.959    21457379.805
  22624239.276   -12945937.32649 -10073026.15146  22624238.546    22624246.244
  20555270.632     -121962.11349       -37.43647  20555270.312    20555276.454
  24554639.539    15140400.56149  11786972.26745  24554638.558    24554646.161
  23309694.223   -10503575.24949  -8159700.06945  23309693.505    23309702.991
  20765708.713    -2298414.64949  -1786464.67947  20765708.019    20765714.477
 03  6 10 17 12 30.0000000  0 10G16G26G21G29G18G15G 6G10G23G17
  23364856.978    -8159329.12549  -6345460.54645  23364856.496    23364862.947
  21500856.398   -11078103.92049  -8618351.53647  21500856.317    21500863.001
  20691281.818    -6453001.21649  -5016743.97147  20691281.194    20691285.714
  22745138.767    -3700333.02649  -2872533.17746  22745138.449    22745145.134
  21444716.871   -15431541.78449 -12002660.83147  21444716.382    21444722.199
  22611030.194   -13015351.32449 -10127114.94546  22611029.460    22611037.207
  20562827.603      -82250.02549     30907.00247  20562827.301    20562833.442
  24574713.165    15245887.77649  11869170.05445  24574712.200    24574720.077
  23293243.567   -10590023.56849  -8227062.30345  23293242.884    23293252.332
  20766438.866    -2294577.56749  -1783474.74847  20766438.184    20766444.656
 03  6 10 17 13  0.0000000  0 10G16G26G21G29G18G15G 6G10G23G17
  23362070.217    -8173973.67649  -6356871.92645  23362069.726    23362076.206
  21496199.424   -11102576.40949  -8637420.96047  21496199.371    21496206.020
  20687350.841    -6473658.76049  -5032840.76047  20687350.215    20687354.719
  22749450.079    -3677676.71649  -2854878.91546  22749449.794    22749456.479
  21432131.939   -15497676.05349 -12054193.99147  21432131.424    21432137.227
  22597840.416   -13084663.86449 -10181124.67346  22597839.721    22597847.477
  20570477.122      -42051.77149     62230.27547  20570476.805    20570482.971
  24594789.002    15351386.36849  11951376.73645  24594788.082    24594795.857
  23276843.232   -10676207.36049  -8294218.40245  23276842.488    23276851.928
  20767205.808    -2290547.31249  -1780334.29847  20767205.123    20767211.599
 03  6 10 17 13 30.0000000  0 10G16G26G21G29G18G15G 6G10G23G17
  23359387.230    -8188072.68849  -6367858.24245  23359386.793    23359393.263
  21491662.975   -11126415.42849  -8655996.77347  21491662.921    21491669.551
  20683459.591    -6494107.31049  -5048774.69647  20683458.979    20683463.479
  22753865.467    -3654473.85749  -2836798.76046  22753865.197    22753871.859
  21419619.778   -15563427.81949 -12105429.09847  21419619.266    21419625.067
  22584670.127   -13153874.39349 -10235054.91446  22584669.428    22584677.104
  20578219.093       -1367.61849     93932.17947  20578218.806    20578224.969
  24614866.686    15456894.43349  12033590.78745  24614865.693    24614873.580
  23260493.369   -10762125.11949  -8361167.20845  23260492.706    23260502.223
  20768009.680    -2286322.92949  -1777042.58147  20768009.016    20768015.500
 03  6 10 17 14  0.0000000  0 10G16G26G21G29G18G15G 6G10G23G17
  23356808.156    -8201626.06849  -6378419.30545  23356807.668    23356814.172
  21487247.309   -11149619.58249  -8674077.89247  21487247.278    21487253.927
  20679608.073    -6514347.15549  -5064546.00547  20679607.466    20679611.991
  22758384.638    -3630725.54149  -2818293.59346  22758384.358    22758390.958
  21407180.517   -15628796.36649 -12156365.59647  21407179.998    21407185.792
  22571519.228   -13222983.10449 -10288905.82046  22571518.513    22571526.121
  20586053.417       39801.85449    126012.24447  20586053.112    20586059.303
  24634945.527    15562409.62949  12115810.33045  24634944.543    24634952.620
  23244194.499   -10847775.76149  -8427907.88045  23244193.849    23244203.328
  20768850.441    -2281904.59449  -1773599.72947  20768849.765    20768856.278
 03  6 10 17 14 30.0000000  0 10G16G26G21G29G18G15G 6G10G23G17
  23354332.926    -8214633.74349  -6388555.14845  23354332.452    23354339.006
  21482952.834   -11172187.01849  -8691662.86747  21482952.771    21482959.441
  20675796.425    -6534377.46649  -5080154.04247  20675795.814    20675800.345
  22763007.612    -3606431.59549  -2799363.23746  22763007.338    22763013.946
  21394814.416   -15693780.63749 -12207002.66147  21394813.909    21394819.720
  22558387.735   -13291989.11849 -10342676.70746  22558387.044    22558394.651
  20593980.036       81456.52049    158470.38447  20593979.744    20593985.952
  24655025.568    15667930.92449  12198034.72045  24655024.642    24655032.617
  23227946.814   -10933157.70949  -8494439.17545  23227946.108    23227955.603
  20769728.304    -2277291.48549  -1770005.10447  20769727.627    20769734.155
 03  6 10 17 15  0.0000000  0 10G16G26G21G29G18G15G 6G10G23G17
  23351961.393    -8227096.36649  -6398266.31845  23351960.864    23351967.468
  21478779.712   -11194116.85849  -8708751.02147  21478779.640    21478786.305
  20672024.569    -6554198.60049  -5095599.08247  20672023.986    20672028.488
  22767734.211    -3581593.47349  -2780008.85846  22767733.906    22767740.491
  21382521.453   -15758380.30349 -12257340.03047  21382520.949    21382526.743
  22545275.800   -13360892.93249 -10396367.94046  22545275.101    22545282.634
  20601998.840      123595.38949    191305.82547  20601998.533    20602004.746
  24675106.364    15773455.96149  12280262.04945  24675105.419    24675113.507
  23211750.393   -11018270.35849  -8560760.62446  23211749.700    23211759.140
  20770643.120    -2272484.03249  -1766259.04447  20770642.473    20770648.976
 03  6 10 17 15 30.0000000  0 10G16G26G21G29G18G15G 6G10G23G17
  23349693.615    -8239013.58449  -6407552.50345  23349693.135    23349699.707
  21474728.202   -11215407.40649  -8725341.01847  21474728.165    21474734.810
  20668292.735    -6573809.86849  -5110880.58947  20668292.119    20668296.610
  22772564.243    -3556211.13749  -2760230.41946  22772563.942    22772570.573
  21370301.993   -15822593.95949 -12307376.62247  21370301.498    21370307.248
  22532183.349   -13429693.92349 -10449979.06946  22532182.654    22532190.219
  20610109.715      166218.21049    224518.37347  20610109.438    20610115.666
  24695187.552    15878982.82049  12362490.72745  24695186.509    24695194.522
  23195605.455   -11103112.16049  -8626871.03646  23195604.807    23195614.166
  20771594.918    -2267482.27749  -1762361.58047  20771594.274    20771600.772
 03  6 10 17 16  0.0000000  0 10G16G26G21G29G18G15G 6G10G23G17
  23347529.729    -8250385.08549  -6416413.43945  23347529.262    23347535.811
  21470798.671   -11236057.08649  -8741431.65247  21470798.616    21470805.282
  20664600.876    -6593210.60249  -5125998.05047  20664600.255    20664604.764
  22777497.801    -3530285.21049  -2740028.39846  22777497.556    22777504.152
  21358156.156   -15886420.67549 -12357111.70147  21358155.656    21358161.409
  22519110.590   -13498391.61549 -10503509.69646  22519109.885    22519117.446
  20618312.674      209324.79849    258107.87747  20618312.369    20618318.610
  24715268.603    15984509.77949  12444719.51845  24715267.746    24715275.550
  23179512.342   -11187681.75849  -8692769.33546  23179511.708    23179521.035
  20772583.855    -2262285.48149  -1758312.13247  20772583.220    20772589.685
 03  6 10 17 16 30.0000000  0  9G16G26G21G29G18G15G 6G23G17
  23345469.736    -8261210.29449  -6424848.70445  23345469.227    23345475.883
  21466991.537   -11256063.52049  -8757021.05147  21466991.471    21466998.151
  20660949.363    -6612399.56349  -5140950.48947  20660948.753    20660953.244
  22782534.817    -3503815.25149  -2719402.45746  22782534.550    22782541.264
  21346084.260   -15949858.77749 -12406543.96347  21346083.774    21346089.501
  22506057.738   -13566984.68849 -10556958.79946  22506057.001    22506064.618
  20626607.771      252915.67649    292074.75147  20626607.477    20626613.737
  23163471.437   -11271976.99749  -8758453.85946  23163470.753    23163480.070
  20773610.155    -2256892.20849  -1754109.58847  20773609.529    20773616.010
 03  6 10 17 17  0.0000000  0  9G16G26G21G29G18G15G 6G23G17
  23343513.601    -8271489.93649  -6432858.83945  23343513.062    23343519.741
  21463306.912   -11275426.24149  -8772108.85947  21463306.851    21463313.511
  20657338.000    -6631377.20549  -5155738.26347  20657337.423    20657341.899
  22787675.094    -3476802.79149  -2698353.79646  22787674.841    22787681.559
  21334086.356   -16012908.04149 -12455673.23447  21334085.850    21334091.627
  22493024.682   -13635473.55949 -10610326.71246  22493023.964    22493031.544
  20634994.817      296989.67949    326418.07947  20634994.530    20635000.777
  23147482.817   -11355997.32549  -8823924.16145  23147482.132    23147491.421
  20774673.724    -2251303.25049  -1749754.55947  20774673.073    20774679.565
 03  6 10 17 17 30.0000000  0  9G16G26G21G29G18G15G 6G23G17
  23341661.045    -8281225.50549  -6440445.04445  23341660.534    23341667.210
  21459744.808   -11294145.08549  -8786694.94047  21459744.748    21459751.382
  20653766.773    -6650144.28349  -5170361.96747  20653766.175    20653770.637
  22792918.349    -3449249.67949  -2676883.83546  22792918.051    22792924.745
  21322162.325   -16075568.98449 -12504499.91747  21322161.845    21322167.616
  22480011.281   -13703859.33649 -10663614.28546  22480010.593    22480018.068
  20643473.431      341544.86349    361136.35947  20643473.131    20643479.389
  23131546.463   -11439743.01349  -8889180.45045  23131545.764    23131555.027
  20775774.411    -2245519.18549  -1745247.50547  20775773.771    20775780.273
 03  6 10 17 18  0.0000000  0  9G16G26G21G29G18G15G 6G23G17
  23339912.046    -8290416.72949  -6447607.07945  23339911.585    23339918.179
  21456305.576   -11312218.27849  -8800777.92147  21456305.489    21456312.142
  20650235.831    -6668699.71349  -5184820.74647  20650235.200    20650239.678
  22798264.346    -3421156.16149  -2654992.78746  22798264.100    22798270.733
  21310312.506   -16137840.39249 -12553023.06047  21310311.998    21310317.749
  22467017.685   -13772140.90049 -10716820.66046  22467017.028    22467024.535
  20652043.606      386581.20949    396229.57047  20652043.318    20652049.570
  23115662.680   -11523212.06949  -8954221.17245  23115662.001    23115671.310
  20776912.282    -2239539.61149  -1740588.10547  20776911.663    20776918.162
 03  6 10 17 18 30.0000000  0  9G16G26G21G29G18G15G 6G23G17
  23338266.697    -8299063.40949  -6454344.79245  23338266.225    23338272.827
  21452989.446   -11329644.34049  -8814356.64947  21452989.395    21452996.015
  20646745.130    -6687043.37349  -5199114.51147  20646744.506    20646748.981
  22803713.181    -3392522.60949  -2632680.93146  22803712.918    22803719.481
  21298537.015   -16199720.95649 -12601241.65747  21298536.520    21298542.227
  22454044.038   -13840317.86149 -10769945.52746  22454043.319    22454050.888
  20660705.270      432098.45149    431697.50447  20660704.972    20660711.236
  23099831.920   -11606403.14449  -9019045.30945  23099831.240    23099840.460
  20778087.457    -2233364.00149  -1735775.95447  20778086.820    20778093.319
 03  6 10 17 19  0.0000000  0  9G16G26G21G29G18G15G 6G23G17
  23336724.811    -8307166.28449  -6460658.75545  23336724.342    23336730.965
  21449796.677   -11346422.45249  -8827430.48847  21449796.635    21449803.244
  20643294.762    -6705175.05749  -5213243.09947  20643294.185    20643298.665
  22809264.505    -3363350.24449  -2609949.23146  22809264.235    22809270.795
  21286835.914   -16261210.74249 -12649155.74747  21286835.401    21286841.123
  22441090.182   -13908390.48749 -10822989.09746  22441089.457    22441096.980
  20669458.225      478095.50449    467539.31447  20669457.942    20669464.229
  23084054.167   -11689315.70849  -9083652.43346  23084053.482    23084062.586
  20779299.965    -2226992.47749  -1730811.14147  20779299.320    20779305.822
 03  6 10 17 19 30.0000000  0  9G16G26G21G29G18G15G 6G23G17
  23335286.336    -8314725.27549  -6466548.92945  23335285.908    23335292.613
  21446727.485   -11362551.20749  -8839998.34347  21446727.449    21446734.024
  20639884.909    -6723093.98149  -5227205.89747  20639884.335    20639888.802
  22814918.312    -3333639.65449  -2586798.13546  22814918.001    22814924.560
  21275209.314   -16322308.51949 -12696764.37747  21275208.829    21275214.581
  22428156.377   -13976357.83149 -10875950.62246  22428155.681    22428163.207
  20678302.512      524572.26049    503754.92047  20678302.219    20678308.512
  23068329.781   -11771948.10549  -9148041.25046  23068329.088    23068338.080
  20780549.758    -2220424.74349  -1725693.44147  20780549.115    20780555.627
 03  6 10 17 20  0.0000000  0  9G16G26G21G29G18G15G 6G23G17
  23333951.435    -8321740.48249  -6472015.35445  23333950.952    23333957.610
  21443782.089   -11378029.09449  -8852059.01847  21443782.068    21443788.659
  20636515.675    -6740799.68149  -5241002.55047  20636515.058    20636519.531
  22820674.336    -3303391.17449  -2563227.89146  22820674.046    22820680.641
  21263657.510   -16383013.41949 -12744066.87647  21263657.027    21263662.776
  22415242.722   -14044219.51449 -10928829.81746  22415242.000    22415249.517
  20687237.975      571528.15649    540343.87447  20687237.683    20687243.984
  23052658.833   -11854299.12549  -9212210.80346  23052658.177    23052667.103
  20781836.917    -2213660.62949  -1720422.71647  20781836.274    20781842.761
 03  6 10 17 20 30.0000000  0  9G16G26G21G29G18G15G 6G23G17
  23332719.909    -8328212.35749  -6477058.42645  23332719.434    23332726.051
  21440960.752   -11392855.14449  -8863611.77547  21440960.742    21440967.343
  20633187.086    -6758291.56349  -5254632.58647  20633186.472    20633190.941
  22826532.607    -3272605.92849  -2539239.39546  22826532.310    22826538.935
  21252180.626   -16443324.73949 -12791062.68747  21252180.162    21252185.878
  22402349.197   -14111975.29449 -10981626.49146  22402348.517    22402356.004
  20696264.450      618962.52949    577305.67847  20696264.164    20696270.492
  23037041.685   -11936367.56049  -9276160.15046  23037041.038    23037049.948
  20783161.662    -2206699.25249  -1714998.28047  20783161.007    20783167.487
 03  6 10 17 21  0.0000000  0  9G16G26G21G29G18G15G 6G23G17
  23331591.759    -8334141.15449  -6481678.29745  23331591.255    23331597.877
  21438263.657   -11407028.51549  -8874655.94847  21438263.649    21438270.296
  20629899.202    -6775569.66349  -5268096.03847  20629898.558    20629903.043
  22832492.837    -3241284.62549  -2514833.19846  22832492.525    22832499.143
  21240778.775   -16503241.99549 -12837751.43047  21240778.285    21240783.987
  22389475.887   -14179624.85249 -11034340.39546  22389475.189    22389482.642
  20705381.864      666874.63849    614639.73447  20705381.572    20705387.904
  23021478.491   -12018152.63049  -9339888.67846  23021477.853    23021486.717
  20784523.877    -2199540.68449  -1709420.18547  20784523.214    20784529.697
 03  6 10 17 21 30.0000000  0  9G16G26G21G29G18G15G 6G23G17
  23330566.705    -8339527.69049  -6485875.63845  23330566.285    23330572.953
  21435690.929   -11420548.21149  -8885190.76747  21435690.930    21435697.558
  20626651.955    -6792633.95249  -5281392.88947  20626651.336    20626655.813
  22838554.802    -3209428.71949  -2490010.42246  22838554.568    22838561.148
  21229451.927   -16562764.69049 -12884132.72547  21229451.457    21229457.168
  22376622.790   -14247168.20549 -11086971.55046  22376622.117    22376629.513
  20714589.970      715263.47149    652345.26647  20714589.688    20714596.037
  23005969.366   -12099653.46449  -9403395.73346  23005968.759    23005977.554
  20785923.703    -2192184.64049  -1703688.21847  20785923.035    20785929.520
 03  6 10 17 22  0.0000000  0  9G16G26G21G29G18G15G 6G23G17
  23329644.939    -8344371.89449  -6489650.38845  23329644.473    23329651.160
  21433242.860   -11433413.07749  -8895215.32847  21433242.815    21433249.467
  20623445.594    -6809483.42749  -5294522.34747  20623444.986    20623449.465
  22844718.550    -3177038.38049  -2464771.19446  22844718.310    22844724.824
  21218200.382   -16621891.81049 -12930205.77547  21218199.896    21218205.630
  22363790.101   -14314604.44049 -11139519.22846  22363789.431    22363796.784
  20723888.765      764128.74749    690422.05247  20723888.490    20723894.847
  22990514.535   -12180868.58749  -9466680.15446  22990513.919    22990522.754
  20787361.242    -2184630.43349  -1697801.83147  20787360.580    20787367.067
 03  6 10 17 22 30.0000000  0  9G16G26G21G29G18G15G 6G23G17
  23328826.227    -8348674.01249  -6493002.73045  23328825.790    23328832.510
  21430919.633   -11445621.73149  -8904728.55747  21430919.573    21430926.181
  20620280.212    -6826117.68449  -5307484.10647  20620279.598    20620284.077
  22850983.688    -3144114.59149  -2439116.30546  22850983.433    22850990.049
  21207024.309   -16680622.32449 -12975969.78447  21207023.833    21207029.565
  22350977.840   -14381933.11349 -11191983.09746  22350977.160    22350984.562
  20733278.147      813469.90949    728869.65247  20733277.870    20733284.250
  22975114.335   -12261796.59849  -9529740.85146  22975113.760    22975122.593
  20788836.439    -2176878.08449  -1691761.05747  20788835.788    20788842.269
 03  6 10 17 23  0.0000000  0  9G16G26G21G29G18G15G 6G23G17
  23328110.671    -8352434.64849  -6495933.13945  23328110.225    23328116.922
  21428721.382   -11457173.42149  -8913729.87447  21428721.365    21428727.986
  20617155.849    -6842536.31949  -5320277.85147  20617155.220    20617159.721
  22857350.240    -3110658.29549  -2413046.47646  22857349.986    22857356.556
  21195923.809   -16738955.83949 -13021424.44547  21195923.298    21195929.003
  22338186.055   -14449154.12949 -11244363.07746  22338185.356    22338192.815
  20742757.878      863286.07349    767687.39047  20742757.608    20742764.010
  22959769.042   -12342436.60949  -9592577.13146  22959768.433    22959777.203
  20790349.398    -2168927.50849  -1685565.81647  20790348.751    20790355.244
 03  6 10 17 23 30.0000000  0  9G16G26G21G29G18G15G 6G23G17
  23327497.986    -8355654.70749  -6498442.32945  23327497.519    23327504.196
  21426648.219   -11468067.89749  -8922219.07047  21426648.230    21426654.784
  20614072.463    -6858739.54249  -5332903.74247  20614071.845    20614076.352
  22863817.799    -3076671.03149  -2386562.89746  22863817.558    22863824.147
  21184898.834   -16796892.26449 -13066569.68047  21184898.340    21184904.038
  22325414.776   -14516267.49249 -11296659.16246  22325414.047    22325421.520
  20752327.723      913575.82949    806874.16147  20752327.453    20752333.872
  22944478.612   -12422788.11049  -9655188.60846  22944477.989    22944486.759
  20791900.136    -2160778.53349  -1679215.97847  20791899.478    20791905.986
 03  6 10 17 24  0.0000000  0  9G16G26G21G29G18G15G 6G23G17
  23326988.172    -8358334.08749  -6500530.20645  23326987.643    23326994.396
  21424700.490   -11478303.38349  -8930194.77447  21424700.469    21424707.014
  20611030.308    -6874726.15149  -5345360.84847  20611029.691    20611034.219
  22870386.335    -3042153.16649  -2359665.86446  22870386.052    22870392.722
  21173949.703   -16854430.38849 -13111404.55247  21173949.180    21173954.860
  22312664.166   -14583272.23249 -11348870.60646  22312663.435    22312670.949
  20761987.704      964339.13749    846429.93047  20761987.445    20761993.866
  22929243.290   -12502849.61649  -9717574.11046  22929242.666    22929251.420
  20793488.804    -2152430.13549  -1672710.74647  20793488.148    20793494.633
 03  6 10 17 24 30.0000000  0  9G16G26G21G29G18G15G 6G23G17
  23326581.036    -8360473.68349  -6502197.46945  23326580.574    23326587.329
  21422878.176   -11487879.56949  -8937656.74147  21422878.190    21422884.730
  20608029.354    -6890496.32149  -5357649.29247  20608028.748    20608033.276
  22877055.637    -3007105.86149  -2332356.28346  22877055.364    22877061.989
  21163076.397   -16911569.84749 -13155928.77847  21163075.897    21163081.554
  22299934.191   -14650168.30749 -11400997.38146  22299933.527    22299941.012
  20771737.574     1015574.85749    886353.81947  20771737.296    20771743.754
  22914063.360   -12582620.42249  -9779733.07546  22914062.745    22914071.457
  20795115.302    -2143883.01649  -1666050.66547  20795114.632    20795121.100
 03  6 10 17 25  0.0000000  0 10G 2G16G26G21G29G18G15G 6G23G17
  25217929.384    -6924619.56149  -5378357.37145  25217928.313    25217937.516
  23326276.264    -8362075.48749  -6503445.67645  23326275.845    23326282.502
  21421181.209   -11496797.21249  -8944605.56047  21421181.225    21421187.775
  20605069.401    -6906051.06249  -5369769.87847  20605068.798    20605073.326
  22883825.159    -2971532.03149  -2304636.43446  22883824.898    22883831.478
  21152278.800   -16968311.72249 -13200143.19547  21152278.283    21152283.940
  22287224.735   -14716956.98949 -11453040.48446  22287224.056    22287231.480
  20781576.867     1067280.52649    926643.89647  20781576.604    20781583.059
  22898938.641   -12662101.00249  -9841665.90746  22898938.035    22898946.715
  20796779.437    -2135137.88349  -1659236.29047  20796778.760    20796785.247
 03  6 10 17 25 30.0000000  0 10G 2G16G26G21G29G18G15G 6G23G17
  25211135.100    -6960323.50749  -5406178.63645  25211134.024    25211143.255
  23326074.211    -8363137.73749  -6504273.44445  23326073.725    23326080.399
  21419610.192   -11505053.01249  -8951038.65347  21419610.202    21419616.730
  20602150.946    -6921387.58649  -5381720.41547  20602150.338    20602154.863
  22890695.129    -2935430.06849  -2276505.04246  22890694.862    22890701.459
  21141557.295   -17024653.32249 -13244045.71047  21141556.795    21141562.458
  22274536.205   -14783635.77049 -11504997.93446  22274535.530    22274542.936
  20791505.943     1119457.79649    967301.46347  20791505.670    20791512.147
  22883869.761   -12741288.08249  -9903370.02046  22883869.147    22883877.882
  20798481.676    -2126192.63949  -1652265.98547  20798481.021    20798487.522
 03  6 10 17 26  0.0000000  0 10G 2G16G26G21G29G18G15G 6G23G17
  25204419.100    -6995616.02649  -5433679.32045  25204418.135    25204427.436
  23325974.605    -8363661.32649  -6504681.49645  23325974.164    23325980.844
  21418165.236   -11512646.48549  -8956955.65147  21418165.223    21418171.742
  20599274.058    -6936505.78449  -5393500.83147  20599273.470    20599277.981
  22897665.314    -2898801.50449  -2247963.31946  22897665.066    22897671.622
  21130912.087   -17080594.28749 -13287636.04547  21130911.574    21130917.209
  22261868.587   -14850204.31949 -11556869.49446  22261867.920    22261875.309
  20801524.514     1172105.46049   1008325.56347  20801524.254    20801530.734
  22868856.872   -12820180.81649  -9964844.77946  22868856.291    22868865.026
  20800222.113    -2117046.72749  -1645139.31947  20800221.446    20800227.951
 03  6 10 17 26 30.0000000  0 10G 2G16G26G21G29G18G15G 6G23G17
  25197781.678    -7030496.38249  -5460858.84845  25197780.938    25197789.969
  23325977.338    -8363646.90349  -6504670.29545  23325976.843    23325983.720
  21416846.407   -11519576.98149  -8962356.04147  21416846.386    21416852.869
  20596438.785    -6951405.22749  -5405110.79347  20596438.183    20596442.706
  22904735.554    -2861647.35249  -2219012.04646  22904735.291    22904741.907
  21120343.187   -17136133.98549 -13330913.70647  21120342.681    21120348.333
  22249222.058   -14916662.24749 -11608654.85046  22249221.385    22249228.757
  20811632.404     1225222.58949   1049715.48847  20811632.137    20811638.604
  22853900.241   -12898778.15549 -10026089.36046  22853899.644    22853908.423
  20802000.740    -2107699.95049  -1637856.12847  20802000.095    20802006.588
 03  6 10 17 27  0.0000000  0 10G 2G16G26G21G29G18G15G 6G23G17
  25191222.744    -7064964.15649  -5487716.85745  25191222.079    25191230.994
  23326082.359    -8363095.38949  -6504240.58945  23326081.860    23326088.703
  21415653.795   -11525844.08449  -8967239.50047  21415653.791    21415660.283
  20593645.139    -6966085.93749  -5416550.31347  20593644.557    20593649.063
  22911905.497    -2823968.97649  -2189652.26846  22911905.268    22911911.897
  21109850.755   -17191272.02349 -13373878.38547  21109850.255    21109855.885
  22236596.479   -14983009.63249 -11660354.06346  22236595.845    22236603.183
  20821829.422     1278807.94549   1091470.26347  20821829.157    20821835.625
  22838999.941   -12977079.65949 -10087103.43446  22838999.300    22839008.057
  20803817.691    -2098151.92249  -1630416.12247  20803817.047    20803823.552
 03  6 10 17 27 30.0000000  0 10G 2G16G26G21G29G18G15G 6G23G17
  25184742.328    -7099018.58349  -5514252.80045  25184741.715    25184750.675
  23326289.520    -8362007.08849  -6503392.60045  23326288.966    23326295.843
  21414587.583   -11531447.05749  -8971605.46147  21414587.569    21414594.093
  20590893.261    -6980547.28149  -5427818.90147  20590892.662    20590897.193
  22919175.012    -2785767.32549  -2159884.76346  22919174.785    22919181.385
  21099434.851   -17246007.84849 -13416529.65347  21099434.356    21099440.031
  22223992.142   -15049245.89449 -11711966.69546  22223991.481    22223998.817
  20832115.400     1332860.83449   1133589.34447  20832115.117    20832121.591
  22824156.063   -13055084.10749 -10147886.02746  22824155.387    22824164.167
  20805672.943    -2088402.66849  -1622819.31847  20805672.283    20805678.819
 03  6 10 17 28  0.0000000  0 10G 2G16G26G21G29G18G15G 6G23G17
  25178340.905    -7132659.20649  -5540466.32645  25178340.068    25178348.899
  23326598.611    -8360383.10849  -6502127.21245  23326598.112    23326604.842
  21413647.855   -11536385.42949  -8975453.54547  21413647.840    21413654.377
  20588183.112    -6994789.34149  -5438916.61747  20588182.498    20588187.026
  22926543.882    -2747043.98349  -2129710.73846  22926543.564    22926550.217
  21089095.510   -17300341.47949 -13458867.52547  21089095.013    21089100.669
  22211408.933   -15115370.89349 -11763492.63246  22211408.262    22211415.643
  20842490.064     1387380.01449   1176071.76747  20842489.804    20842496.291
  22809368.796   -13132790.94949 -10208436.71846  22809368.193    22809377.023
  20807566.416    -2078452.41849  -1615065.89547  20807565.752    20807572.294
 03  6 10 17 28 30.0000000  0 10G 2G16G26G21G29G18G15G 6G23G17
  25172018.193    -7165885.51049  -5566357.04545  25172017.434    25172026.259
  23327009.521    -8358224.07949  -6500444.89845  23327008.978    23327015.711
  21412834.665   -11540658.89749  -8978783.52647  21412834.633    21412841.148
  20585514.873    -7008811.15349  -5449842.70847  20585514.235    20585518.767
  22934011.717    -2707800.18549  -2099131.16446  22934011.405    22934018.031
  21078832.772   -17354272.31249 -13500891.52747  21078832.288    21078837.907
  22198846.943   -15181384.33849 -11814931.63746  22198846.219    22198853.647
  20852953.336     1442364.57049   1218916.82847  20852953.051    20852959.537
  22794638.408   -13210199.44049 -10268754.91446  22794637.801    22794646.587
  20809498.254    -2068300.63949  -1607155.43347  20809497.594    20809504.129
 03  6 10 17 29  0.0000000  0 10G 2G16G26G21G29G18G15G 6G23G17
  25165774.484    -7198696.59949  -5591924.19545  25165773.717    25165782.258
  23327521.969    -8355530.84049  -6498346.31245  23327521.523    23327528.161
  21412148.229   -11544266.47349  -8981594.62547  21412148.168    21412154.657
  20582888.675    -7022611.88949  -5460596.53247  20582888.043    20582892.566
  22941578.447    -2668036.75349  -2068146.68246  22941578.136    22941584.762
  21068646.948   -17407799.29249 -13542600.84147  21068646.450    21068652.053
  22186306.391   -15247285.33249 -11866283.02746  22186305.650    22186313.112
  20863505.022     1497813.96849   1262124.11047  20863504.756    20863511.286
  22779964.980   -13287308.21649 -10328839.58146  22779964.369    22779973.153
  20811468.616    -2057946.41749  -1599087.22447  20811467.960    20811474.509
 03  6 10 17 29 30.0000000  0 10G 2G16G26G21G29G18G15G 6G23G17
  25159609.799    -7231092.41349  -5617167.72145  25159609.065    25159617.596
  23328136.065    -8352304.32049  -6495832.19245  23328135.568    23328142.148
  21411588.521   -11547207.93949  -8983886.68047  21411588.446    21411594.911
  20580304.473    -7036192.01649  -5471178.45147  20580303.842    20580308.366
  22949243.764    -2627755.26449  -2036758.53246  22949243.439    22949250.092
  21058537.877   -17460922.73349 -13583995.70647  21058537.378    21058542.974
  22173787.196   -15313073.97149 -11917546.86946  22173786.457    22173793.864
  20874144.922     1553726.69249   1305692.41347  20874144.640    20874151.178
  22765348.776   -13364116.70949 -10388690.28846  22765348.127    22765356.857
  20813477.388    -2047390.35849  -1590861.74347  20813476.710    20813483.273
 03  6 10 17 30  0.0000000  0 10G 2G16G26G21G29G18G15G 6G23G17
  25153524.457    -7263071.63649  -5642086.60645  25153523.636    25153532.306
  23328851.533    -8348544.60649  -6492902.59045  23328851.013    23328857.633
  21411155.756   -11549482.05849  -8985658.71247  21411155.695    21411162.181
  20577762.459    -7049550.33549  -5481587.53047  20577761.852    20577766.356
  22957007.558    -2586956.22849  -2004967.10346  22957007.265    22957013.928
  21048505.849   -17513641.29249 -13625075.08447  21048505.343    21048510.931
  22161289.626   -15378749.13849 -11968722.28346  22161288.899    22161296.291
  20884872.892     1610102.50349   1349621.56447  20884872.633    20884879.180
  22750790.049   -13440623.21549 -10448305.65346  22750789.356    22750798.113
  20815524.805    -2036631.15849  -1582477.97447  20815524.152    20815530.700
 03  6 10 17 30 30.0000000  0 10G 2G16G26G21G29G18G15G 6G23G17
  25147518.158    -7294634.80549  -5666681.35045  25147517.455    25147526.092
  23329668.124    -8344253.61749  -6489558.99745  23329667.607    23329674.302
  21410849.915   -11551089.43549  -8986911.21747  21410849.857    21410856.323
  20575262.579    -7062687.35049  -5491824.16647  20575261.962    20575266.441
  22964869.442    -2545641.90049  -1972774.13446  22964869.142    22964875.837
  21038550.733   -17565955.61349 -13665839.46947  21038550.245    21038555.832
  22148813.527   -15444311.34949 -12019809.69146  22148812.796    22148820.185
  20895688.627     1666939.22749   1393909.86047  20895688.346    20895694.912
  22736288.652   -13516828.10649 -10507685.99946  22736287.986    22736296.747
  20817610.720    -2025669.63449  -1573936.54947  20817610.058    20817616.620
 03  6 10 17 31  0.0000000  0 10G 2G16G26G21G29G18G15G 6G23G17
  25141591.370    -7325780.58249  -5690950.83745  25141590.529    25141599.329
  23330585.847    -8339431.19049  -6485801.32945  23330585.362    23330591.977
  21410671.142   -11552028.80549  -8987643.19047  21410671.071    21410677.573
  20572805.042    -7075601.80849  -5501887.37947  20572804.444    20572808.929
  22972829.231    -2503812.76949  -1940180.04246  22972828.961    22972835.690
  21028672.799   -17617864.61849 -13706288.03047  21028672.293    21028677.862
  22136359.149   -15509759.57549 -12070808.26846  22136358.398    22136365.787
  20906591.997     1724236.72049   1438557.20547  20906591.728    20906598.353
  22721845.056   -13592729.60649 -10566829.95546  22721844.394    22721853.073
  20819735.400    -2014504.45749  -1565236.43347  20819734.727    20819741.284
 03  6 10 17 31 30.0000000  0 10G 2G16G26G21G29G18G15G 6G23G17
  25135744.112    -7356508.80649  -5714894.96945  25135743.267    25135751.970
  23331604.463    -8334078.78049  -6481630.66945  23331603.976    23331610.654
  21410619.533   -11552300.18349  -8987854.65147  21410619.437    21410625.939
  20570389.877    -7088293.58649  -5511777.07847  20570389.276    20570393.761
  22980886.729    -2461470.55249  -1907186.13846  22980886.403    22980893.150
  21018871.948   -17669368.25949 -13746420.72547  21018871.458    21018877.037
  22123926.367   -15575093.92449 -12121718.11746  22123925.675    22123933.020
  20917582.773     1781993.50649   1483562.43247  20917582.499    20917589.134
  22707459.233   -13668327.37849 -10625737.23946  22707458.544    22707467.167
  20821898.841    -2003135.63549  -1556377.63047  20821898.170    20821904.731
 03  6 10 17 32  0.0000000  0 10G 2G16G26G21G29G18G15G 6G23G17
  25129976.335    -7386818.65849  -5738513.06845  25129975.380    25129984.205
  23332723.776    -8328196.67549  -6477047.27845  23332723.371    23332730.001
  21410695.135   -11551902.86349  -8987545.03647  21410695.064    21410701.590
  20568017.256    -7100761.95649  -5521492.69047  20568016.648    20568021.157
  22989041.543    -2418616.38149  -1873793.29446  22989041.298    22989048.071
  21009148.465   -17720465.65949 -13786236.86447  21009147.960    21009153.526
  22111515.522   -15640313.32449 -12172538.39946  22111514.826    22111522.117
  20928660.837     1840208.88949   1528925.02247  20928660.570    20928667.216
  22693131.417   -13743620.16249 -10684406.86446  22693130.743    22693139.348
  20824101.173    -1991562.45949  -1547359.59047  20824100.485    20824107.062
 03  6 10 17 32 30.0000000  0 10G 2G16G26G21G29G18G15G 6G23G17
  25124288.311    -7416709.55849  -5761804.70745  25124287.438    25124296.281
  23333943.788    -8321785.86049  -6472051.89145  23333943.337    23333950.031
  21410897.961   -11550836.64549  -8986714.21147  21410897.913    21410904.479
  20565687.191    -7113006.43049  -5531033.84447  20565686.581    20565691.104
  22997293.688    -2375251.41149  -1840002.42146  22997293.445    22997300.193
  20999502.288   -17771156.53149 -13825736.23647  20999501.797    20999507.336
  22099126.602   -15705417.47149 -12223268.86746  22099125.884    22099133.135
  20939825.927     1898881.73349   1574644.07247  20939825.660    20939832.333
  22678861.835   -13818607.05249 -10742838.14946  22678861.172    22678869.752
  20826342.414    -1979784.76349  -1538182.18747  20826341.734    20826348.302
 03  6 10 17 33  0.0000000  0 10G 2G16G26G21G29G18G15G 6G23G17
  25118679.909    -7446181.96349  -5784770.20645  25118679.120    25118687.719
  23335264.012    -8314848.13349  -6466645.92745  23335263.623    23335270.350
  21411228.091   -11549101.92049  -8985362.46947  21411228.035    21411234.612
  20563399.708    -7125027.16749  -5540400.65447  20563399.105    20563403.635
  23005642.555    -2331377.68149  -1805815.12346  23005642.306    23005649.128
  20989933.383   -17821441.32849 -13864919.17847  20989932.892    20989938.432
  22086759.584   -15770406.62549 -12273909.73546  22086758.846    22086766.128
  20951077.713     1958010.17949   1620718.12747  20951077.451    20951084.141
  22664650.464   -13893288.05549 -10801031.06546  22664649.789    22664658.342
  20828622.518    -1967802.81749  -1528845.62847  20828621.835    20828628.425
 03  6 10 17 33 30.0000000  0 10G 2G16G26G21G29G18G15G 6G23G17
  25113151.551    -7475233.66849  -5807407.89645  25113150.757    25113159.354
  23336684.690    -8307382.71649  -6460828.75945  23336684.289    23336690.975
  21411685.791   -11546696.64949  -8983488.22347  21411685.719    21411692.329
  20561155.243    -7136821.97749  -5549591.41847  20561154.629    20561159.160
  23014088.354    -2286994.97049  -1771231.20546  23014088.118    23014094.831
  20980442.131   -17871318.06449 -13903784.15747  20980441.643    20980447.184
  22074414.797   -15835278.64449 -12324459.33246  22074414.052    22074421.386
  20962416.319     2017594.76349   1667147.61847  20962416.081    20962422.790
  22650497.726   -13967660.75949 -10858983.76846  22650497.057    22650505.610
  20830941.846    -1955614.77149  -1519348.47247  20830941.179    20830947.752
 03  6 10 17 34  0.0000000  0 10G 2G16G26G21G29G18G15G 6G23G17
  25107703.073    -7503865.71549  -5829718.57645  25107702.369    25107710.882
  23338205.405    -8299391.69749  -6454602.05245  23338204.987    23338211.649
  21412270.871   -11543621.85449  -8981092.26847  21412270.813    21412277.402
  20558953.573    -7148391.72949  -5558606.81047  20558952.953    20558957.497
  23022630.431    -2242106.01549  -1736252.81046  23022630.185    23022636.958
  20971028.359   -17920787.75249 -13942331.94447  20971027.879    20971033.418
  22062092.176   -15900034.33649 -12374918.28646  22062091.422    22062098.828
  20973841.277     2077632.98349   1713930.59747  20973841.022    20973847.728
  22636403.543   -14041725.79149 -10916696.71346  22636402.914    22636411.499
  20833300.245    -1943221.33349  -1509691.26547  20833299.587    20833306.161
 03  6 10 17 34 30.0000000  0 10G 2G16G26G21G29G18G15G 6G23G17
  25102334.480    -7532077.86449  -5851702.08245  25102333.826    25102342.387
  23339825.871    -8290876.42249  -6447966.80945  23339825.435    23339832.144
  21412983.378   -11539877.73149  -8978174.75247  21412983.310    21412989.900
  20556794.788    -7159736.34049  -5567446.76747  20556794.168    20556798.715
  23031268.528    -2196712.49949  -1700881.25946  23031268.284    23031275.073
  20961692.070   -17969850.06449 -13980562.29547  20961691.583    20961697.133
  22049791.678   -15964673.57849 -12425286.50146  22049790.947    22049798.303
  20985352.272     2138123.51549   1761066.02147  20985352.023    20985358.758
  22622368.060   -14115482.42149 -10974169.35746  22622367.441    22622375.979
  20835697.753    -1930622.53749  -1499874.03547  20835697.077    20835703.665
 03  6 10 17 35  0.0000000  0 10G 2G16G26G21G29G18G15G 6G23G17
  25097046.033    -7559868.84249  -5873357.42345  25097045.427    25097054.009
  23341546.015    -8281837.04949  -6440923.20545  23341545.604    23341552.362
  21413823.442   -11535463.19649  -8974734.85047  21413823.379    21413829.923
  20554679.048    -7170854.53049  -5576110.29647  20554678.422    20554683.003
  23040002.609    -2150814.80449  -1665116.82346  23040002.338    23040009.127
  20952433.530   -18018503.93649 -14018474.37847  20952433.042    20952438.590
  22037513.655   -16029194.96349 -12475562.87846  22037512.947    22037520.285
  20996949.326     2199066.06249   1808553.66747  20996949.055    20996955.784
  22608391.616   -14188929.06449 -11031400.46446  22608391.007    22608399.431
  20838134.573    -1917816.86549  -1489895.61247  20838133.900    20838140.503
 03  6 10 17 35 30.0000000  0 10G 2G16G26G21G29G18G15G 6G23G17
  25091837.731    -7587238.55449  -5894684.52345  25091837.023    25091845.785
  23343365.674    -8272274.71849  -6433472.09145  23343365.304    23343372.056
  21414791.085   -11530378.12949  -8970772.45147  21414791.049    21414797.562
  20552606.506    -7181745.73949  -5584596.95847  20552605.907    20552610.506
  23048832.242    -2104414.63749  -1628960.86046  23048831.966    23048838.806
  20943252.714   -18066749.36149 -14056068.19647  20943252.238    20943257.796
  22025258.144   -16093597.98349 -12525747.01546  22025257.432    22025264.788
  21008632.069     2260459.27349   1856392.47947  21008631.827    21008638.566
  22594474.344   -14262064.91249 -11088389.38546  22594473.702    22594482.068
  20840610.770    -1904804.38149  -1479756.03647  20840610.106    20840616.705
 03  6 10 17 36  0.0000000  0 10G 2G16G26G21G29G18G15G 6G23G17
  25086709.629    -7614187.26449  -5915683.45545  25086708.863    25086717.526
  23345284.492    -8262191.64749  -6425615.20645  23345284.066    23345290.860
  21415886.113   -11524623.62149  -8966288.40947  21415886.051    21415892.600
  20550577.047    -7192410.66749  -5592907.29447  20550576.452    20550581.047
  23057757.116    -2057514.45249  -1592415.26646  23057756.817    23057763.617
  20934149.450   -18114587.08849 -14093344.31747  20934149.000    20934154.554
  22013025.005   -16157883.34449 -12575839.47146  22013024.310    22013031.624
  21020400.258     2322301.02149   1904580.79847  21020399.990    21020406.737
  22580616.041   -14334890.61649 -11145136.63046  22580615.425    22580623.710
  20843126.247    -1891585.65749  -1469455.74747  20843125.574    20843132.164
 03  6 10 17 36 30.0000000  0 10G 2G16G26G21G29G18G15G 6G23G17
  25081661.911    -7640713.34849  -5936353.15845  25081661.136    25081669.827
  23347302.536    -8251587.06449  -6417351.95445  23347302.079    23347308.937
  21417108.869   -11518197.86349  -8961281.31547  21417108.854    21417115.404
  20548591.042    -7202847.10649  -5601039.59147  20548590.457    20548595.064
  23066777.119    -2010114.02149  -1555479.86646  23066776.803    23066783.610
  20925124.175   -18162015.15949 -14130301.22747  20925123.718    20925129.271
  22000814.701   -16222048.86649 -12625838.54846  22000813.984    22000821.285
  21032253.774     2384591.65249   1953118.89847  21032253.524    21032260.290
  22566817.229   -14407403.69049 -11201640.26446  22566816.618    22566824.890
  20845681.283    -1878158.98449  -1458993.42547  20845680.615    20845687.184
 03  6 10 17 37  0.0000000  0 10G 2G16G26G21G29G18G15G 6G23G17
  25076694.478    -7666817.34149  -5956693.99445  25076693.766    25076702.568
  23349419.364    -8240463.16149  -6408684.03345  23349418.934    23349425.849
  21418459.170   -11511101.74449  -8955751.86547  21418459.140    21418465.709
  20546648.485    -7213055.31249  -5608994.04847  20546647.902    20546652.530
  23075891.815    -1962216.06849  -1518156.79446  23075891.503    23075898.313
  20916176.735   -18209034.32249 -14166939.51147  20916176.262    20916181.795
  21988627.083   -16286095.13849 -12675744.70846  21988626.381    21988633.642
  21044192.375     2447328.97649   2002005.05847  21044192.109    21044198.870
  22553077.784   -14479604.38949 -11257900.48346  22553077.210    22553085.499
  20848275.780    -1864524.89049  -1448369.48047  20848275.129    20848281.692
 03  6 10 17 37 30.0000000  0 10G 2G16G26G21G29G18G15G 6G23G17
  25071807.491    -7692498.33449  -5976705.22445  25071806.929    25071815.640
  23351634.875    -8228820.54249  -6399611.93345  23351634.489    23351641.396
  21419937.137   -11503334.91149  -8949699.77947  21419937.126    21419943.679
  20544749.496    -7223034.66949  -5616770.17747  20544748.906    20544753.522
  23085100.987    -1913821.43249  -1480446.69846  23085100.678    23085107.520
  20907307.233   -18255643.80249 -14203258.56047  20907306.753    20907312.317
  21976462.314   -16350021.44049 -12725557.37646  21976461.593    21976468.876
  21056215.768     2510512.30849   2051238.76747  21056215.515    21056222.286
  22539398.093   -14551491.33549 -11313916.22346  22539397.490    22539405.789
  20850910.027    -1850682.09249  -1437582.90247  20850909.366    20850915.951
 03  6 10 17 38  0.0000000  0 10G 2G16G26G21G29G18G15G 6G23G17
  25067001.102    -7717756.46449  -5996386.91645  25067000.507    25067009.196
  23353948.910    -8216660.58349  -6390136.70445  23353948.497    23353955.455
  21421542.719   -11494897.58949  -8943125.24047  21421542.674    21421549.223
  20542894.141    -7232784.71249  -5624367.62047  20542893.551    20542898.141
  23094404.315    -1864931.93749  -1442350.97646  23094404.046    23094410.905
  20898515.667   -18301843.71149 -14239258.46447  20898515.189    20898520.742
  21964320.449   -16413827.32649 -12775276.22646  21964319.728    21964326.992
  21068323.790     2574140.11449   2100818.81447  21068323.523    21068330.306
  22525778.196   -14623064.13649 -11369687.18446  22525777.629    22525785.914
  20853583.883    -1836630.73549  -1426633.81447  20853583.255    20853589.845
 03  6 10 17 38 30.0000000  0 10G 2G16G26G21G29G18G15G 6G23G17
  25062275.090    -7742591.81549  -6015739.11045  25062274.557    25062283.161
  23356361.005    -8203985.01649  -6380259.69745  23356360.558    23356367.531
  21423275.811   -11485790.41949  -8936028.73747  21423275.755    21423282.248
  20541082.436    -7242305.55049  -5631786.46447  20541081.845    20541086.396
  23103801.474    -1815549.74149  -1403871.34646  23103801.162    23103808.046
  20889801.936   -18347634.47349 -14274939.54747  20889801.471    20889807.046
  21952201.508   -16477512.81749 -12824901.25746  21952200.768    21952207.989
  21080515.997     2638210.36549   2150743.62447  21080515.723    21080522.550
  22512218.058   -14694322.86849 -11425213.42046  22512217.467    22512225.741
  20856297.467    -1822370.78149  -1415522.17747  20856296.826    20856303.463
 03  6 10 17 39  0.0000000  0 10G 2G16G26G21G29G18G15G 6G23G17
  25057629.667    -7767003.62549  -6034761.35545  25057629.054    25057637.770
  23358871.196    -8190794.38249  -6369981.34845  23358870.750    23358877.740
  21425136.450   -11476012.59149  -8928409.63147  21425136.407    21425142.864
  20539314.467    -7251596.33949  -5639026.04947  20539313.859    20539318.399
  23113292.200    -1765675.60049  -1365008.37846  23113291.931    23113298.752
  20881166.321   -18393015.02649 -14310300.99347  20881165.840    20881171.381
  21940105.697   -16541076.62349 -12874431.46546  21940104.991    21940112.195
  21092792.239     2702722.43049   2201012.70447  21092791.994    21092798.854
  22498717.952   -14765266.16049 -11480493.85346  22498717.342    22498725.630
  20859050.915    -1807901.19749  -1404247.19347  20859050.320    20859056.951
 03  6 10 17 39 30.0000000  0 10G 2G16G26G21G29G18G15G 6G23G17
  25053064.970    -7790991.78849  -6053453.47845  25053064.454    25053073.014
  23361478.940    -8177090.33849  -6359302.94245  23361478.555    23361485.512
  21427124.600   -11465564.68249  -8920268.40047  21427124.580    21427131.045
  20537590.422    -7260656.28549  -5646085.75947  20537589.842    20537594.350
  23122876.172    -1715311.51949  -1325763.63846  23122875.896    23122882.682
  20872608.591   -18437985.90949 -14345343.22047  20872608.134    20872613.675
  21928033.084   -16604518.38449 -12923866.56846  21928032.359    21928039.611
  21105152.314     2767674.83249   2251624.90347  21105152.067    21105158.937
  22485277.942   -14835893.51449 -11535528.11846  22485277.357    22485285.568
  20861844.299    -1793222.02849  -1392808.90047  20861843.696    20861850.327
 03  6 10 17 40  0.0000000  0 10G 2G16G26G21G29G18G15G 6G23G17
  25048580.803    -7814556.35749  -6071815.50945  25048580.260    25048588.951
  23364184.267    -8162873.85749  -6348225.21945  23364183.902    23364190.917
  21429240.269   -11454446.72149  -8911605.04547  21429240.246    21429246.726
  20535910.396    -7269484.92049  -5652965.21947  20535909.805    20535914.303
  23132553.080    -1664458.96149  -1286138.27346  23132552.827    23132559.644
  20864129.051   -18482546.26849 -14380065.55947  20864128.584    20864134.100
  21915983.823   -16667837.60049 -12973206.18746  21915983.101    21915990.351
  21117595.913     2833066.26349   2302579.21047  21117595.673    21117602.585
  22471898.214   -14906204.28249 -11590315.66746  22471897.619    22471905.862
  20864677.702    -1778332.65049  -1381206.80747  20864677.075    20864683.706
 03  6 10 17 40 30.0000000  0 10G 2G16G26G21G29G18G15G 6G23G17
  25044177.294    -7837697.04149  -6089847.27445  25044176.647    25044185.412
  23366987.015    -8148146.11749  -6336749.13545  23366986.601    23366993.638
  21431483.436   -11442658.85149  -8902419.68547  21431483.403    21431489.892
  20534274.583    -7278081.23349  -5659663.66047  20534273.998    20534278.443
  23142322.729    -1613119.36349  -1246133.39846  23142322.464    23142329.250
  20855727.676   -18526695.79549 -14414467.76947  20855727.220    20855732.708
  21903957.933   -16731033.75649 -13022449.91646  21903957.236    21903964.491
  21130122.920     2898895.58749   2353874.72647  21130122.650    21130129.555
  22458578.912   -14976197.55649 -11644855.83246  22458578.350    22458586.597
  20867551.142    -1763232.60449  -1369440.55747  20867550.525    20867557.163
 03  6 10 17 41  0.0000000  0 10G 2G16G26G21G29G18G15G 6G23G17
  25039854.657    -7860413.00849  -6107548.09445  25039853.940    25039862.798
  23369886.744    -8132908.22749  -6324875.51045  23369886.264    23369893.295
  21433854.077   -11430200.76549  -8892712.08347  21433854.042    21433860.593
  20532683.047    -7286444.98649  -5666180.88447  20532682.460    20532686.887
  23152184.731    -1561294.11249  -1205750.08346  23152184.466    23152191.242
  20847404.548   -18570434.08549 -14448549.53247  20847404.083    20847409.576
  21891955.639   -16794106.11049 -13071597.17846  21891954.925    21891962.206
  21142732.939     2965161.73049   2405510.62847  21142732.691    21142739.610
  22445320.241   -15045872.44149 -11699147.89446  22445319.649    22445327.867
  20870464.846    -1747921.09449  -1357509.52647  20870464.208    20870470.865
 03  6 10 17 41 30.0000000  0 10G 2G16G26G21G29G18G15G 6G23G17
  25035612.724    -7882704.37149  -6124917.98145  25035612.056    25035620.586
  23372883.207    -8117161.71949  -6312605.57645  23372882.750    23372889.839
  21436352.162   -11417073.18349  -8882482.78847  21436352.122    21436358.688
  20531135.844    -7294575.61849  -5672516.45347  20531135.241    20531139.685
  23162138.776    -1508985.34449  -1164990.00846  23162138.515    23162145.293
  20839159.518   -18613761.83149 -14482311.39547  20839159.050    20839164.539
  21879976.970   -16857054.36549 -13120647.74146  21879976.238    21879983.485
  21155425.814     3031862.86749   2457485.47947  21155425.564    21155432.523
  22432122.182   -15115228.66349 -11753191.65646  22432121.595    22432129.808
  20873418.830    -1732397.99249  -1345413.62347  20873418.193    20873424.834
 03  6 10 17 42  0.0000000  0 10G 2G16G26G21G29G18G15G 6G23G17
  25031451.731    -7904571.18049  -6141957.10145  25031451.008    25031459.592
  23375976.273    -8100907.86449  -6299940.30545  23375975.769    23375982.881
  21438977.619   -11403276.40749  -8871732.03947  21438977.595    21438984.152
  20529633.121    -7302472.60749  -5678669.96147  20529632.521    20529636.963
  23172184.587    -1456194.52149  -1123854.29346  23172184.381    23172191.025
  20830992.763   -18656678.52849 -14515752.95847  20830992.294    20830997.756
  21868022.029   -16919877.84849 -13169601.06846  21868021.314    21868028.552
  21168201.200     3098997.76649   2509798.32247  21168200.949    21168207.932
  22418984.840   -15184265.55949 -11806986.59746  22418984.240    22418992.452
  20876413.121    -1716662.89249  -1333152.52347  20876412.470    20876419.128
 03  6 10 17 42 30.0000000  0 10G 2G16G26G21G29G18G15G 6G23G17
  25027371.414    -7926013.04649  -6158665.08445  25027370.801    25027379.458
  23379165.653    -8084147.82149  -6286880.59745  23379165.080    23379172.262
  21441730.397   -11388810.46649  -8860459.86747  21441730.389    21441736.902
  20528174.898    -7310135.49449  -5684641.05447  20528174.311    20528178.767
  23182321.747    -1402923.22449  -1082344.19946  23182321.553    23182328.231
  20822904.231   -18699184.06349 -14548874.13647  20822903.764    20822909.218
  21856091.022   -16982575.90849 -13218456.68046  21856090.274    21856097.484
  21181058.834     3166565.10749   2562448.13547  21181058.588    21181065.592
  22405908.426   -15252982.50449 -11860532.22946  22405907.832    22405915.974
  20879447.902    -1700715.15849  -1320725.73647  20879447.269    20879453.941
 03  6 10 17 43  0.0000000  0 10G 2G16G26G21G29G18G15G 6G23G17
  25023372.059    -7947029.88249  -6175041.85345  25023371.311    25023380.123
  23382451.049    -8066883.05649  -6273427.59645  23382450.466    23382457.716
  21444610.444   -11373675.73949  -8848666.55947  21444610.405    21444616.937
  20526761.380    -7317563.57549  -5690429.17747  20526760.799    20526765.280
  23192550.020    -1349173.16249  -1040461.04446  23192549.841    23192556.505
  20814893.929   -18741278.36949 -14581674.87847  20814893.479    20814898.905
  21844183.922   -17045147.85249 -13267214.01346  21844183.207    21844190.407
  21193998.534     3234563.36449   2615433.72447  21193998.290    21194005.295
  22392893.007   -15321378.83149 -11913828.03846  22392892.403    22392900.528
  20882523.174    -1684554.52149  -1308133.05647  20882522.540    20882529.221
 03  6 10 17 43 30.0000000  0 10G 2G16G26G21G29G18G15G 6G23G17
  25019453.367    -7967622.22549  -6191087.86045  25019452.733    25019461.441
  23385832.156    -8049115.26349  -6259582.63745  23385831.676    23385838.842
  21447617.541   -11357873.12849  -8836352.81847  21447617.524    21447624.065
  20525392.560    -7324756.96349  -5696034.42347  20525391.977    20525396.472
  23202869.060    -1294946.54749   -998206.53446  23202868.838    23202875.529
  20806961.817   -18782961.81449 -14614155.46247  20806961.360    20806966.799
  21832300.920   -17107593.59449 -13315873.00846  21832300.213    21832307.379
  21207019.873     3302990.71749   2668753.66847  21207019.636    21207026.659
  22379938.633   -15389454.42549 -11966873.92046  22379938.021    22379946.149
  20885638.987    -1668180.87349  -1295374.38847  20885638.353    20885645.017
 03  6 10 17 44  0.0000000  0 10G 2G16G26G21G29G18G15G 6G23G17
  25015615.814    -7987789.04549  -6206802.29345  25015615.260    25015623.965
  23389308.823    -8030845.31249  -6245346.38945  23389308.439    23389315.596
  21450751.839   -11341402.18449  -8823518.30047  21450751.824    21450758.353
  20524068.552    -7331714.77849  -5701456.11047  20524067.953    20524072.464
  23213278.482    -1240244.37049   -955581.47046  23213278.272    23213284.987
  20799108.076   -18824233.49849 -14646315.19847  20799107.617    20799113.032
  21820442.118   -17169911.92649 -13364432.72546  21820441.393    21820448.554
  21220122.779     3371846.55749   2722407.50447  21220122.515    21220129.535
  22367045.506   -15457208.02949 -12019668.89446  22367044.897    22367053.029
  20888795.508    -1651593.20449  -1282448.95447  20888794.888    20888801.568
 03  6 10 17 44 30.0000000  0 10G 2G16G26G21G29G18G15G 6G23G17
  25011858.982    -8007531.29149  -6222185.91345  25011858.441    25011867.022
  23392880.715    -8012075.54449  -6230720.66345  23392880.216    23392887.389
  21454013.067   -11324264.32049  -8810164.11347  21454013.046    21454019.600
  20522789.509    -7338436.16349  -5706693.56747  20522788.899    20522793.438
  23223778.031    -1185069.30449   -912587.91546  23223777.763    23223784.401
  20791332.500   -18865094.49949 -14678154.92747  20791332.040    20791337.433
  21808607.514   -17232103.22049 -13412893.45546  21808606.776    21808613.922
  21233306.708     3441128.33649   2776393.23547  21233306.468    21233313.496
  22354213.594   -15524640.01349 -12072213.26446  22354213.010    22354221.147
  20891992.638    -1634792.11049  -1269357.21747  20891992.035    20891998.731
 03  6 10 17 45  0.0000000  0 10G 2G16G26G21G29G18G15G 6G23G17
  25008183.139    -8026847.99949  -6237237.93545  25008182.654    25008191.177
  23396547.502    -7992806.68749  -6215706.04345  23396547.047    23396554.134
  21457401.315   -11306459.13149  -8796289.92847  21457401.280    21457407.816
  20521555.629    -7344920.24849  -5711746.10947  20521555.033    20521559.577
  23234367.256    -1129422.25049   -869226.57246  23234367.062    23234373.634
  20783635.231   -18905543.80849 -14709673.85247  20783634.769    20783640.156
  21796797.316   -17294165.91349 -13461253.96646  21796796.611    21796803.728
  21246571.579     3510835.42349   2830710.37647  21246571.325    21246578.353
  22341443.139   -15591749.12649 -12124506.04146  22341442.522    22341450.644
  20895230.671    -1617776.23849  -1256098.11147  20895230.073    20895236.766
 03  6 10 17 45 30.0000000  0 10G 2G16G26G21G29G18G15G 6G23G17
  25004588.256    -8045739.73749  -6251958.80845  25004587.674    25004596.441
  23400308.976    -7973040.56049  -6200303.94345  23400308.464    23400315.592
  21460916.296   -11287987.73749  -8781896.62347  21460916.277    21460922.799
  20520366.866    -7351167.37049  -5716614.00947  20520366.256    20520370.820
  23245045.987    -1073305.53549   -825499.25346  23245045.740    23245052.293
  20776016.164   -18945582.18049 -14740872.56447  20776015.694    20776021.098
  21785011.635   -17356100.01049 -13509514.28246  21785010.911    21785018.007
  21259916.968     3580965.60049   2885357.19147  21259916.706    21259923.755
  22328734.099   -15658535.34449 -12176547.21046  22328733.509    22328741.608
  20898509.615    -1600545.56049  -1242671.62747  20898508.993    20898515.710
 03  6 10 17 46  0.0000000  0 10G 2G16G26G21G29G18G15G 6G23G17
  25001074.228    -8064205.86949  -6266348.05845  25001073.738    25001082.650
  23404164.920    -7952777.70749  -6184514.77645  23404164.374    23404171.526
  21464558.116   -11268849.69549  -8766983.84447  21464558.115    21464564.600
  20519223.435    -7357176.08049  -5721296.13047  20519222.838    20519227.401
  23255813.839    -1016720.06649   -781406.67946  23255813.585    23255820.176
  20768475.542   -18985208.36249 -14771750.08547  20768475.064    20768480.476
  21773250.680   -17417904.06349 -13557673.25846  21773249.973    21773257.047
  21273342.816     3651518.56149   2940333.44947  21273342.581    21273349.636
  22316086.819   -15724997.20549 -12228335.64346  22316086.235    22316094.285
  20901829.612    -1583098.81949  -1229076.78347  20901828.985    20901835.725
 03  6 10 17 46 30.0000000  0 10G 2G16G26G21G29G18G15G 6G23G17
  24997640.976    -8082247.84449  -6280406.78545  24997640.283    24997649.647
  23408114.769    -7932021.37749  -6168341.10145  23408114.250    23408121.336
  21468326.378   -11249047.17849  -8751553.29547  21468326.387    21468332.853
  20518125.264    -7362947.08849  -5725793.02747  20518124.668    20518129.225
  23266670.270     -959669.41349   -736951.61846  23266669.989    23266676.546
  20761012.986   -19024424.13249 -14802307.80047  20761012.520    20761017.923
  21761514.260   -17479579.19849 -13605731.78146  21761513.588    21761520.635
  21286848.517     3722491.13449   2995636.68147  21286848.261    21286855.317
  22303501.014   -15791135.82549 -12279872.18846  22303500.398    22303508.462
  20905190.532    -1565437.15049  -1215314.46247  20905189.918    20905196.667
 03  6 10 17 47  0.0000000  0 10G 2G16G26G21G29G18G15G 6G23G17
  24994288.785    -8099863.92949  -6294133.63745  24994288.165    24994297.281
  23412158.501    -7910771.58349  -6151782.88745  23412158.040    23412165.107
  21472221.311   -11228579.27949  -8735604.27247  21472221.311    21472227.740
  20517072.652    -7368478.54149  -5730103.25647  20517072.047    20517076.623
  23277615.192     -902153.63849   -692134.14346  23277614.922    23277621.443
  20753628.836   -19063227.98449 -14832544.54747  20753628.382    20753633.789
  21749802.851   -17541122.94649 -13653687.91847  21749802.175    21749809.258
  21300434.036     3793883.17449   3051266.75947  21300433.786    21300440.856
  22290977.103   -15856949.15449 -12331155.26546  22290976.538    22290984.575
  20908592.815    -1547558.04649  -1201382.71447  20908592.213    20908598.958
 03  6 10 17 47 30.0000000  0 10G 2G16G26G21G29G18G15G 6G23G17
  24991017.515    -8117054.88249  -6307529.23145  24991016.809    24991026.009
  23416295.786    -7889030.49949  -6134841.85945  23416295.286    23416302.375
  21476242.552   -11207447.48049  -8719137.92347  21476242.537    21476248.991
  20516065.678    -7373770.32549  -5734226.72847  20516065.084    20516069.659
  23288648.078     -844175.51449   -646956.38046  23288647.824    23288654.284
  20746322.908   -19101620.81949 -14862461.02547  20746322.440    20746327.851
  21738116.381   -17602535.78049 -13701542.05947  21738115.686    21738122.768
  21314098.968     3865692.40849   3107221.92247  21314098.706    21314105.746
  22278515.065   -15922437.56149 -12382185.14546  22278514.455    22278522.497
  20912036.314    -1529462.57749  -1187282.37247  20912035.679    20912042.434
 03  6 10 17 48  0.0000000  0 10G 2G16G26G21G29G18G15G 6G23G17
  24987827.104    -8133821.02349  -6320593.82945  24987826.407    24987835.359
  23420526.181    -7866799.92749  -6117519.40945  23420525.707    23420532.780
  21480390.040   -11185652.22649  -8702154.60247  21480390.026    21480396.439
  20515104.443    -7378821.78849  -5738162.93847  20515103.829    20515108.396
  23299768.641     -785736.71449   -601419.66546  23299768.366    23299774.905
  20739095.269   -19139602.36749 -14892057.01847  20739094.783    20739100.192
  21726454.968   -17663816.83049 -13749293.49447  21726454.249    21726461.370
  21327842.987     3937917.31049   3163500.97547  21327842.722    21327849.764
  22266114.926   -15987600.55949 -12432961.46146  22266114.310    22266122.375
  20915521.035    -1511150.31049  -1173013.09547  20915520.407    20915527.176
 03  6 10 17 48 30.0000000  0 10G 2G16G26G21G29G18G15G 6G23G17
  24984717.641    -8150161.56549  -6333326.76845  24984716.940    24984725.839
  23424849.589    -7844080.44049  -6099815.99545  23424849.114    23424856.262
  21484663.802   -11163193.34149  -8684654.16747  21484663.787    21484670.224
  20514189.153    -7383631.58449  -5741910.83347  20514188.553    20514193.120
  23310976.619     -726838.42749   -555524.90746  23310976.367    23310982.873
  20731945.981   -19177171.99949 -14921332.03547  20731945.513    20731950.912
  21714818.892   -17724964.55649 -13796941.04947  21714818.204    21714825.334
  21341665.951     4010557.18849   3220103.39347  21341665.682    21341672.746
  22253776.983   -16052436.87949 -12483483.22946  22253776.341    22253784.397
  20919047.294    -1492619.65949  -1158573.64547  20919046.685    20919053.440
 03  6 10 17 49  0.0000000  0 10G 2G16G26G21G29G18G15G 6G23G17
  24981688.923    -8166077.47449  -6345728.80645  24981688.268    24981697.250
  23429265.565    -7820874.67149  -6081733.68245  23429265.047    23429272.251
  21489063.556   -11140072.57649  -8666637.97547  21489063.501    21489069.947
  20513319.754    -7388200.25749  -5745470.84647  20513319.145    20513323.713
  23322271.534     -667483.28449   -509274.15046  23322271.258    23322277.686
  20724874.859   -19214330.78249 -14950286.91847  20724874.388    20724879.783
  21703208.163   -17785979.31449 -13844484.99847  21703207.482    21703214.608
  21355567.415     4083609.44049   3277027.14047  21355567.129    21355574.219
  22241501.101   -16116946.92049 -12533750.75346  22241500.480    22241508.510
  20922615.000    -1473871.33849  -1143964.58547  20922614.376    20922621.152
 03  6 10 17 49 30.0000000  0 10G 2G16G26G21G29G18G15G 6G23G17
  24978740.985    -8181568.57649  -6357799.85645  24978740.258    24978749.368
  23433773.970    -7797183.55349  -6063273.14345  23433773.416    23433780.551
  21493589.161   -11116290.16549  -8648106.21947  21493589.148    21493595.578
  20512496.475    -7392526.72649  -5748842.12447  20512495.875    20512500.436
  23333653.013     -607672.96049   -462668.70445  23333652.779    23333659.203
  20717882.071   -19251078.13049 -14978921.19647  20717881.609    20717886.992
  21691622.898   -17846860.11749 -13891924.55747  21691622.213    21691629.328
  21369547.115     4157072.84949   3334271.28547  21369546.860    21369553.943
  22229287.415   -16181129.90549 -12583763.41846  22229286.815    22229294.855
  20926224.366    -1454904.09249  -1129184.93047  20926223.747    20926230.521
 03  6 10 17 50  0.0000000  0 10G 2G16G26G21G29G18G15G 6G23G17
  24975874.099    -8196635.15749  -6369540.12345  24975873.123    24975882.289
  23438374.188    -7773009.36749  -6044436.20045  23438373.632    23438380.881
  21498240.495   -11091847.26249  -8629059.80047  21498240.458    21498246.898
  20511719.304    -7396610.86749  -5752024.58047  20511718.703    20511723.231
  23345120.722     -547409.42049   -415710.10945  23345120.479    23345126.977
  20710967.451   -19287414.63049 -15007235.33847  20710966.976    20710972.368
  21680063.151   -17907606.89849 -13939259.69247  21680062.495    21680069.585
  21383604.679     4230945.38049   3391834.21947  21383604.409    21383611.490
  22217136.054   -16244985.71349 -12633521.13246  22217135.437    22217143.478
  20929875.500    -1435717.41349  -1114234.29847  20929874.859    20929881.633
 03  6 10 17 50 30.0000000  0 10G 2G16G26G21G29G18G15G 6G23G17
  24973087.991    -8211276.69349  -6380949.19445  24973086.911    24973096.293
  23443066.176    -7748352.99649  -6025223.54345  23443065.603    23443072.889
  21503017.458   -11066743.88649  -8609498.72447  21503017.451    21503023.877
  20510988.518    -7400451.26149  -5755017.10647  20510987.918    20510992.435
  23356674.495     -486694.05349   -368399.44445  23356674.271    23356680.771
  20704131.108   -19323339.72149 -15035228.90347  20704130.639    20704136.037
  21668529.268   -17968218.10649 -13986489.17847  21668528.570    21668535.670
  21397739.874     4305226.10249   3449715.22547  21397739.613    21397746.746
  22205047.135   -16308513.22749 -12683023.04446  22205046.536    22205054.532
  20933568.535    -1416310.51649  -1099112.07147  20933567.922    20933574.671
 03  6 10 17 51  0.0000000  0 10G 2G16G26G21G29G18G15G 6G23G17
  24970382.278    -8225494.25449  -6392027.85945  24970381.385    24970390.804
  23447849.493    -7723217.13049  -6005637.23545  23447849.022    23447856.202
  21507919.799   -11040981.82149  -8589424.38247  21507919.797    21507926.252
  20510304.062    -7404048.10349  -5757819.83947  20510303.452    20510307.990
  23368313.676     -425529.74449   -320738.95145  23368313.394    23368320.080
  20697372.869   -19358854.38249 -15062902.64947  20697372.417    20697377.805
  21657021.109   -18028693.82149 -14033613.08047  21657020.387    21657027.467
  21411952.291     4379912.54149   3507912.37647  21411952.004    21411959.184
  22193020.597   -16371712.93649 -12732269.52246  22193019.992    22193027.990
  20937303.446    -1396683.63749  -1083818.41847  20937302.807    20937309.562
 03  6 10 17 51 30.0000000  0 10G 2G16G26G21G29G18G15G 6G23G17
  24967757.562    -8239287.58149  -6402775.95045  24967756.741    24967766.151
  23452723.784    -7697602.59549  -5985677.94545  23452723.298    23452730.507
  21512947.471   -11014561.32849  -8568836.98647  21512947.436    21512953.922
  20509666.172    -7407400.10449  -5760431.79847  20509665.594    20509670.134
  23380038.072     -363917.80849   -272729.65745  23380037.796    23380044.480
  20690692.801   -19393958.27049 -15090256.31847  20690692.362    20690697.736
  21645538.961   -18089032.68149 -14080630.35147  21645538.266    21645545.323
  21426241.686     4455003.71749   3566424.89947  21426241.432    21426248.638
  22181056.598   -16434584.04749 -12781259.95146  22181056.034    22181064.016
  20941080.302    -1376836.05649  -1068352.80447  20941079.682    20941086.423
 03  6 10 17 52  0.0000000  0 10G 2G16G26G21G29G18G15G 6G23G17
  24965213.641    -8252656.77049  -6413193.54645  24965212.573    24965222.277
  23457688.854    -7671511.25049  -5965347.12445  23457688.430    23457695.706
  21518100.219   -10987483.37049  -8547737.28247  21518100.209    21518106.707
  20509075.013    -7410506.72849  -5762852.55547  20509074.433    20509078.980
  23391847.162     -301860.23249   -224373.12045  23391846.922    23391853.623
  20684090.916   -19428651.40349 -15117289.91947  20684090.472    20684095.833
  21634082.998   -18149234.25349 -14127540.64647  21634082.287    21634089.365
  21440607.790     4530497.82749   3625251.40647  21440607.536    21440614.769
  22169155.227   -16497126.21349 -12829994.05846  22169154.634    22169162.575
  20944899.270    -1356767.40049  -1052714.91547  20944898.648    20944905.393
 03  6 10 17 52 30.0000000  0 10G 2G16G26G21G29G18G15G 6G23G17
  24962750.148    -8265602.63949  -6423281.28945  24962749.018    24962759.044
  23462744.171    -7644945.57649  -5944646.69645  23462743.790    23462751.084
  21523377.829   -10959749.34249  -8526126.35747  21523377.806    21523384.345
  20508530.600    -7413367.91649  -5765082.06147  20508530.000    20508534.528
  23403740.565     -239359.66549   -175671.38945  23403740.318    23403747.130
  20677567.048   -19462934.56849 -15144004.06247  20677566.589    20677571.972
  21622653.194   -18209298.09449 -14174343.61847  21622652.489    21622659.581
  21455050.153     4606392.68249   3684390.18247  21455049.868    21455057.146
  22157316.375   -16559339.46949 -12878471.87046  22157315.760    22157323.731
  20948760.263    -1336477.77049  -1036904.83947  20948759.656    20948766.433
 03  6 10 17 53  0.0000000  0 10G 2G16G26G21G29G18G15G 6G23G17
  24960367.322    -8278124.28449  -6433038.49745  24960366.408    24960376.169
  23467889.668    -7617906.28049  -5923577.21245  23467889.288    23467896.611
  21528780.326   -10931359.07249  -8504004.07147  21528780.276    21528786.807
  20508033.149    -7415981.96949  -5767118.99247  20508032.545    20508037.084
  23415718.247     -176416.77849   -126624.99245  23415718.026    23415724.729
  20671121.315   -19496806.94849 -15170398.11147  20671120.871    20671126.248
  21611249.961   -18269222.63649 -14221038.04347  21611249.244    21611256.344
  21469568.596     4682687.58449   3743840.67147  21469568.367    21469575.682
  22145540.443   -16621222.31849 -12926692.22446  22145539.812    22145547.773
  20952663.625    -1315965.53049  -1020921.29647  20952663.043    20952669.803
 03  6 10 17 53 30.0000000  0 10G 2G16G26G21G29G18G15G 6G23G17
  24958064.991    -8290222.91949  -6442466.05645  24958064.192    24958073.748
  23473124.763    -7590396.03149  -5902140.75445  23473124.345    23473131.722
  21534307.333   -10902314.71349  -8481372.11147  21534307.259    21534313.786
  20507582.661    -7418349.33849  -5768963.70547  20507582.076    20507586.599
  23427779.439     -113034.74249    -77236.40345  23427779.206    23427785.977
  20664753.584   -19530269.62249 -15196472.90747  20664753.129    20664758.508
  21599873.096   -18329008.21849 -14267624.18847  21599872.399    21599879.489
  21484162.725     4759379.88749   3803600.83047  21484162.484    21484169.829
  22133827.180   -16682775.58949 -12974655.76246  22133826.591    22133834.549
  20956609.329    -1295230.76049  -1004764.35647  20956608.732    20956615.530
 03  6 10 17 54  0.0000000  0 10G 2G16G26G21G29G18G15G 6G23G17
  24955843.275    -8301898.64549  -6451564.07545  24955842.340    24955851.909
  23478449.174    -7562416.34949  -5880338.50145  23478448.758    23478456.183
  21539958.602   -10872616.97449  -8458231.01747  21539958.547    21539965.066
  20507179.247    -7420469.29249  -5770615.62347  20507178.656    20507183.197
  23439923.941      -49215.19649    -27506.89145  23439923.718    23439930.321
  20658463.796   -19563322.54249 -15222228.41447  20658463.343    20658468.732
  21588522.885   -18388653.86849 -14314101.30047  21588522.197    21588529.269
  21498832.150     4836467.90449   3863669.33347  21498831.898    21498839.256
  22122176.732   -16743998.75749 -13022362.07846  22122176.146    22122184.098
  20960597.515    -1274272.74249   -988433.45747  20960596.931    20960603.718
 03  6 10 17 54 30.0000000  0 10G 2G16G26G21G29G18G15G 6G23G17
  24953701.973    -8313151.41849  -6460332.54145  24953701.131    24953710.538
  23483862.598    -7533968.86349  -5858171.71445  23483862.220    23483869.680
  21545734.106   -10842266.51849  -8434581.32947  21545734.069    21545740.565
  20506823.027    -7422341.15749  -5772074.22947  20506822.462    20506827.043
  23452151.338       15039.96549     22562.05345  23452151.063    23452157.667
  20652252.048   -19595965.52749 -15247664.49847  20652251.604    20652256.980
  21577199.527   -18448158.57349 -14360468.58947  21577198.826    21577205.881
  21513576.653     4913950.36449   3924045.19647  21513576.391    21513583.748
  22110589.291   -16804891.20749 -13069810.69846  22110588.678    22110596.617
  20964628.328    -1253090.93249   -971928.18247  20964627.730    20964634.534
 03  6 10 17 55  0.0000000  0 10G 2G16G26G21G29G18G15G 6G23G17
  24951641.027    -8323982.08349  -6468772.08045  24951640.339    24951649.768
  23489364.615    -7505056.15649  -5835642.43245  23489364.151    23489371.645
  21551633.505   -10811265.17949  -8410424.43647  21551633.454    21551639.940
  20506514.063    -7423964.82449  -5773339.43547  20506513.496    20506518.081
  23464461.201       79728.12949     72968.40946  23464460.921    23464467.493
  20646118.127   -19628199.46549 -15272781.84347  20646117.670    20646123.049
  21565902.939   -18507522.28749 -14406726.01847  21565902.247    21565909.273
  21528395.755     4991824.83649   3984726.51247  21528395.502    21528402.874
  22099064.634   -16865453.26649 -13117001.87346  22099064.046    22099071.956
  20968701.622    -1231685.68049   -955248.79147  20968700.990    20968707.817
 03  6 10 17 55 30.0000000  0 10G 2G16G26G21G29G18G15G 6G23G17
  24949660.507    -8334390.62149  -6476882.71645  24949659.690    24949669.211
  23494954.911    -7475679.37049  -5812751.53145  23494954.501    23494961.975
  21557656.660   -10779613.36949  -8385760.70747  21557656.605    21557663.078
  20506252.566    -7425338.98149  -5774410.22147  20506251.997    20506256.594
  23476853.016      144847.72549    123710.92445  23476852.753    23476859.407
  20640062.134   -19660024.04649 -15297580.21347  20640061.683    20640067.038
  21554633.494   -18566743.69249 -14452872.55347  21554632.778    21554639.749
  21543289.139     5070090.02649   4045712.29247  21543288.921    21543296.302
  22087603.059   -16925684.17549 -13163935.01446  22087602.471    22087610.346
  20972817.659    -1210055.94749   -938394.48447  20972817.021    20972823.857
 03  6 10 17 56  0.0000000  0 10G 2G16G26G21G29G18G15G 6G23G17
  24947760.104    -8344377.50449  -6484664.75045  24947759.316    24947768.781
  23500633.062    -7445840.73049  -5789500.74645  23500632.670    23500640.207
  21563803.333   -10747312.44249  -8360591.15347  21563803.289    21563809.751
  20506038.709    -7426462.83149  -5775285.95647  20506038.135    20506042.738
  23489326.584      210396.63149    174787.98345  23489326.188    23489332.945
  20634083.911   -19691439.76949 -15322059.98747  20634083.451    20634088.795
  21543391.146   -18625822.27349 -14498907.79547  21543390.471    21543397.453
  21558256.570     5148744.00349   4107001.03147  21558256.320    21558263.734
  22076204.497   -16985583.84749 -13210610.04646  22076203.902    22076211.766
  20976976.518    -1188201.13649   -921364.79147  20976975.862    20976982.726
 03  6 10 17 56 30.0000000  0 10G 2G16G26G21G29G18G15G 6G23G17
  24945939.948    -8353942.84049  -6492118.34345  24945939.166    24945948.695
  23506398.949    -7415541.52949  -5765891.08945  23506398.469    23506405.966
  21570073.401   -10714363.14649  -8334916.39147  21570073.319    21570079.776
  20505872.631    -7427335.60249  -5775966.05147  20505872.040    20505876.691
  23501881.352      276373.12549    226198.21445  23501881.096    23501887.904
  20628183.498   -19722446.53149 -15346221.09147  20628183.056    20628188.417
  21532176.250   -18684756.87949 -14544830.84747  21532175.585    21532182.538
  21573297.718     5227785.40249   4168591.65847  21573297.477    21573304.914
  22064869.133   -17045151.41049 -13257026.29046  22064868.510    22064876.410
  20981178.370    -1166120.35549   -904159.01547  20981177.723    20981184.599
 03  6 10 17 57  0.0000000  0 10G 2G16G26G21G29G18G15G 6G23G17
  24944199.991    -8363087.12149  -6499243.81445  24944199.050    24944208.592
  23512252.002    -7384784.20749  -5741924.43645  23512251.427    23512258.952
  21576466.537   -10680766.96349  -8308737.54447  21576466.503    21576472.956
  20505754.424    -7427956.88649  -5776450.18447  20505753.852    20505758.461
  23514517.176      342774.86349    277939.79845  23514516.899    23514523.766
  20622360.853   -19753044.85649 -15370063.93547  20622360.377    20622365.732
  21520988.863   -18743547.15849 -14590641.44447  21520988.160    21520995.108
  21588412.094     5307211.89649   4230482.34547  21588411.883    21588419.353
  22053596.906   -17104387.02549 -13303183.87646  22053596.293    22053604.203
  20985423.280    -1143813.36649   -886776.97547  20985422.644    20985429.523
 03  6 10 17 57 30.0000000  0 10G 2G16G26G21G29G18G15G 6G23G17
  24942539.978    -8371811.06049  -6506041.73645  24942538.999    24942548.687
  23518191.712    -7353570.94949  -5717602.53645  23518191.115    23518198.780
  21582982.510   -10646525.45649  -8282055.85447  21582982.452    21582988.918
  20505684.101    -7428326.49849  -5776738.20747  20505683.531    20505688.124
  23527233.413      409599.18249    330010.65945  23527233.175    23527240.089
  20616615.770   -19783235.40949 -15393589.03547  20616615.314    20616620.656
  21509828.977   -18802192.66449 -14636339.22447  21509828.266    21509835.216
  21603599.448     5387021.43549   4292671.52247  21603599.209    21603606.675
  22042387.859   -17163290.81449 -13349082.90746  22042387.253    22042395.149
  20989711.176    -1121280.32149   -869218.78647  20989710.526    20989717.412
 03  6 10 17 58  0.0000000  0 10G 2G16G26G21G29G18G15G 6G23G17
  24940959.858    -8380114.54449  -6512512.07445  24940958.834    24940968.519
  23524217.948    -7321903.10549  -5692926.40845  23524217.442    23524225.077
  21589621.117   -10611639.20949  -8254871.77047  21589621.086    21589627.523
  20505661.905    -7428443.28249  -5776829.22447  20505661.316    20505665.892
  23540029.870      476844.76749    382409.79645  23540029.646    23540036.421
  20610948.386   -19813017.64049 -15416795.96447  20610947.908    20610953.281
  21498696.959   -18860691.86449 -14681923.00647  21498696.252    21498703.178
  21618859.439     5467213.08549   4355158.43747  21618859.215    21618866.703
  22031242.139   -17221861.86049 -13394722.65246  22031241.539    22031249.368
  20994042.344    -1098519.93849   -851483.45447  20994041.717    20994048.587
 03  6 10 17 58 30.0000000  0 10G 2G16G26G21G29G18G15G 6G23G17
  24939459.950    -8387998.06149  -6518655.18845  24939458.702    24939468.390
  23530330.286    -7289782.83549  -5667897.72845  23530329.891    23530337.492
  21596382.161   -10576109.66649  -8227186.40447  21596382.156    21596388.627
  20505687.892    -7428306.76149  -5776722.86047  20505687.308    20505691.886
  23552906.004      544509.29649    435135.36645  23552905.812    23552912.657
  20605358.565   -19842392.12049 -15439685.16047  20605358.107    20605363.484
  21487592.823   -18919044.32049 -14727392.44647  21487592.120    21487599.107
  21634191.786     5547784.67049   4417941.39447  21634191.560    21634199.026
  22020159.740   -17280100.11949 -13440103.07446  22020159.151    22020166.984
  20998416.879    -1075531.63949   -833570.52847  20998416.279    20998423.169
 03  6 10 17 59  0.0000000  0 10G 2G16G26G21G29G18G15G 6G23G17
  24938039.468    -8395462.87149  -6524472.02245  24938038.385    24938047.872
  23536528.315    -7257212.69549  -5642518.50445  23536527.970    23536535.417
  21603265.266   -10539938.83549  -8199001.34747  21603265.241    21603271.678
  20505762.055    -7427916.89549  -5776419.08647  20505761.487    20505766.077
  23565861.403      612590.01149    488185.24545  23565861.243    23565868.058
  20599846.135   -19871360.18849 -15462257.67347  20599845.664    20599851.039
  21476516.687   -18977249.72449 -14772747.29347  21476515.997    21476522.948
  21649595.933     5628733.51749   4481018.32747  21649595.686    21649603.144
  22009140.580   -17338006.19949 -13485224.65746  22009139.980    22009147.826
  21002834.660    -1052316.04349   -815480.48547  21002834.080    21002840.949
 03  6 10 17 59 30.0000000  0 10G 2G16G26G21G29G18G15G 6G23G17
  24936698.409    -8402508.67849  -6529962.27645  24936697.683    24936707.238
  23542811.628    -7224193.96349  -5616789.74345  23542811.281    23542818.821
  21610270.228   -10503127.30649  -8170317.03647  21610270.221    21610276.685
  20505884.742    -7427272.21349  -5775916.75147  20505884.182    20505888.794
  23578895.661      681085.60549    541558.40445  23578895.500    23578902.365
  20594411.164   -19899921.08049 -15484512.90847  20594410.716    20594416.095
  21465468.876   -19035306.51649 -14817986.33647  21465468.166    21465475.105
  21665071.591     5710058.67349   4544388.48547  21665071.403    21665078.881
  21998184.825   -17395579.10949 -13530086.62647  21998184.224    21998192.030
  21007296.051    -1028871.48649   -797212.02947  21007295.462    21007302.329
 03  6 10 18  0  0.0000000  0 10G 2G16G26G21G29G18G15G 6G23G17
  24935437.752    -8409136.04949  -6535126.54145  24935436.707    24935446.181
  23549179.929    -7190728.72049  -5590713.03545  23549179.552    23549187.225
  21617396.901   -10465676.34549  -8141134.47346  21617396.897    21617403.367
  20506056.026    -7426372.26649  -5775215.51347  20506055.453    20506060.089
  23592008.536      749993.75749    595253.04545  23592008.342    23592015.231
  20589053.623   -19928075.18249 -15506451.16047  20589053.165    20589058.518
  21454449.358   -19093214.35549 -14863109.32047  21454448.654    21454455.611
  21680618.618     5791758.11549   4608050.27947  21680618.370    21680625.877
  21987292.468   -17452818.74749 -13574688.90047  21987291.884    21987299.654
  21011801.035    -1005197.84149   -778765.06847  21011800.433    21011807.336
 03  6 10 18  0 30.0000000  0 10G 2G16G26G21G29G18G15G 6G23G17
  24934256.088    -8415346.07249  -6539965.64745  24934255.134    24934264.504
  23555632.672    -7156819.59649  -5564290.45345  23555632.295    23555640.008
  21624644.878   -10427587.93249  -8111455.18946  21624644.870    21624651.361
  20506275.938    -7425216.69349  -5774315.08547  20506275.361    20506280.005
  23605199.362      819311.75349    649267.04745  23605199.101    23605205.990
  20583773.274   -19955823.45449 -15528073.18047  20583772.821    20583778.188
  21443458.309   -19150972.80749 -14908115.89247  21443457.573    21443464.518
  21696236.337     5873829.34549   4672001.78347  21696236.088    21696243.642
  21976463.470   -17509725.46649 -13619031.76547  21976462.862    21976470.599
  21016349.675     -981294.67049   -760139.25347  21016349.064    21016355.985
 03  6 10 18  1  0.0000000  0 11G 2G16G26G 3G21G29G18G15G 6G23G17
  24933153.726    -8421138.31049  -6544479.14345  24933152.908    24933162.288
  23562169.610    -7122467.88149  -5537522.98745  23562169.250    23562177.052
  21632014.018   -10388862.73449  -8081279.71446  21632014.008    21632020.517
  24618786.493    -4260195.60549  -3048760.08045  24618786.129    24618794.603
  20506544.697    -7423804.39949  -5773214.61847  20506544.115    20506548.776
  23618467.899      889038.23349    703599.34745  23618467.635    23618474.588
  20578570.270   -19983165.42549 -15549378.60647  20578569.813    20578575.170
  21432495.966   -19208580.19849 -14953004.76147  21432495.252    21432502.192
  21711924.535     5956271.32049   4736242.18947  21711924.307    21711931.930
  21965697.987   -17566298.28849 -13663114.44647  21965697.394    21965705.095
  21020942.183     -957161.00949   -741333.84147  21020941.585    21020948.507
 03  6 10 18  1 30.0000000  0 11G 2G16G26G 3G21G29G18G15G 6G23G17
  24932130.521    -8426515.32449  -6548669.08345  24932129.726    24932139.210
  23568790.094    -7087677.42249  -5510413.65545  23568789.707    23568797.599
  21639503.758   -10349504.02449  -8050610.59446  21639503.733    21639510.254
  24599916.823    -4359356.67649  -3126028.44745  24599916.452    24599924.817
  20506862.091    -7422136.35649  -5771914.86347  20506861.515    20506866.177
  23631813.338      959169.09749    758246.74245  23631813.176    23631820.115
  20573444.128   -20010103.47049 -15570369.28047  20573443.681    20573449.041
  21421562.157   -19266037.66849 -14997776.80347  21421561.462    21421568.372
  21727682.716     6039080.34749   4800768.61547  21727682.428    21727690.074
  21954995.682   -17622539.05549 -13706938.37947  21954995.073    21955002.812
  21025578.320     -932798.11449   -722349.80147  21025577.715    21025584.616
 03  6 10 18  2  0.0000000  0 11G 2G16G26G 3G21G29G18G15G 6G23G17
  24931186.636    -8431475.17749  -6552533.97445  24931185.959    24931195.394
  23575494.122    -7052448.01749  -5482962.29445  23575493.715    23575501.528
  21647114.187   -10309510.88949  -8019447.11946  21647114.165    21647120.673
  24581079.253    -4458348.67449  -3203165.08745  24581078.854    24581087.114
  20507228.804    -7420209.41349  -5770413.36547  20507228.221    20507232.869
  23645235.847     1029704.47149    813209.34445  23645235.654    23645242.466
  20568395.296   -20036635.35649 -15591043.47047  20568394.837    20568400.202
  21410657.509   -19323341.95049 -15042429.48347  21410656.801    21410663.707
  21743510.702     6122256.84949   4865581.39447  21743510.450    21743518.112
  21944357.072   -17678445.12049 -13750501.50247  21944356.458    21944364.213
  21030258.700     -908202.91649   -703184.74747  21030258.085    21030264.982
 03  6 10 18  2 30.0000000  0 11G 2G16G26G 3G21G29G18G15G 6G23G17
  24930322.120    -8436019.05049  -6556074.75145  24930321.437    24930330.925
  23582281.198    -7016782.40349  -5455171.02845  23582280.746    23582288.583
  21654844.942   -10268885.40749  -7987790.91046  21654844.923    21654851.448
  24562274.094    -4557170.03949  -3280168.76245  24562273.661    24562282.171
  20507644.703    -7418023.89449  -5768710.38547  20507644.113    20507648.765
  23658734.806     1100641.87049    868485.19745  23658734.570    23658741.407
  20563423.524   -20062762.13549 -15611401.99247  20563423.078    20563428.406
  21399782.073   -19380492.72149 -15086962.53947  21399781.369    21399788.263
  21759408.126     6205798.22049   4930678.48547  21759407.905    21759415.617
  21933782.065   -17734016.96849 -13793804.20647  21933781.469    21933789.221
  21034983.153     -883375.78249   -683838.96647  21034982.535    21034989.442
 03  6 10 18  3  0.0000000  0 11G 2G16G26G 3G21G29G18G15G 6G23G17
  24929536.809    -8440147.75749  -6559292.00345  24929535.902    24929545.268
  23589150.819    -6980683.22649  -5427041.89545  23589150.400    23589158.174
  21662695.697   -10227629.49849  -7955643.45446  21662695.708    21662702.190
  24543501.917    -4655818.64649  -3357037.79145  24543501.408    24543509.797
  20508109.944    -7415579.30649  -5766805.53147  20508109.351    20508113.992
  23672309.616     1171978.23349    924071.94345  23672309.371    23672316.175
  20558528.623   -20088484.87949 -15631445.67748  20558528.187    20558533.515
  21388935.881   -19437489.64749 -15131375.71747  21388935.188    21388942.068
  21775374.615     6289702.13349   4996058.06847  21775374.362    21775382.109
  21923270.587   -17789254.97349 -13836846.77347  21923270.006    21923277.767
  21039751.780     -858316.57049   -664312.33647  21039751.173    21039758.102
 03  6 10 18  3 30.0000000  0 11G 2G16G26G 3G21G29G18G15G 6G23G17
  24928830.006    -8443862.22349  -6562186.45045  24928829.061    24928838.445
  23596102.546    -6944152.24849  -5398576.32145  23596102.188    23596109.842
  21670666.176   -10185744.53949  -7923005.83046  21670666.170    21670672.630
  24524762.991    -4754291.92249  -3433770.14745  24524762.470    24524770.939
  20508624.603    -7412874.85549  -5764698.18347  20508624.025    20508628.659
  23685960.112     1243711.66149    979968.08245  23685959.801    23685966.623
  20553710.590   -20113803.79149 -15651174.69448  20553710.143    20553715.485
  21378119.193   -19494331.80549 -15175668.29547  21378118.457    21378125.334
  21791409.640     6373966.54049   5061718.55747  21791409.391    21791417.184
  21912822.653   -17844158.94849 -13879629.04847  21912822.099    21912829.862
  21044564.727     -833024.60149   -644604.34047  21044564.121    21044571.053
 03  6 10 18  4  0.0000000  0 11G 2G16G26G 3G21G29G18G15G 6G23G17
  24928201.941    -8447162.85049  -6564758.46945  24928200.985    24928210.562
  23603135.944    -6907191.80049  -5369776.08645  23603135.599    23603143.332
  21678755.971   -10143232.29349  -7889879.41946  21678755.980    21678762.453
  24506058.056    -4852587.41349  -3510364.02345  24506057.638    24506065.904
  20509188.736    -7409910.25149  -5762388.12547  20509188.164    20509192.812
  23699685.677     1315839.91949   1036171.89045  23699685.409    23699692.278
  20548969.355   -20138719.24749 -15670589.33048  20548968.905    20548974.231
  21367332.072   -19551018.36749 -15219839.63347  21367331.354    21367338.227
  21807512.953     6458589.65749   5127658.55547  21807512.713    21807520.510
  21902438.277   -17898728.75749 -13922150.93747  21902437.748    21902445.532
  21049422.093     -807499.10049   -624714.37547  21049421.479    21049428.415
 03  6 10 18  4 30.0000000  0 11G 2G16G26G 3G21G29G18G15G 6G23G17
  24927652.503    -8450049.78649  -6567008.04845  24927651.616    24927661.148
  23610250.720    -6869803.75749  -5340642.66445  23610250.394    23610258.171
  21686964.948   -10100093.75549  -7856264.98746  21686964.957    21686971.428
  24487387.326    -4950702.43249  -3586817.24345  24487386.925    24487394.965
  20509802.648    -7406684.20949  -5759874.34447  20509802.070    20509806.740
  23713486.034     1388361.24649   1092681.98745  23713485.815    23713492.689
  20544304.862   -20163231.32049 -15689689.63948  20544304.414    20544309.736
  21356574.795   -19607548.13749 -15263888.79947  21356574.111    21356580.957
  21823684.213     6543569.76249   5193876.72947  21823683.978    21823691.760
  21892117.635   -17952964.11249 -13964412.20747  21892117.073    21892124.840
  21054324.056     -781739.28349   -604641.82147  21054323.425    21054330.376
 03  6 10 18  5  0.0000000  0 11G 2G16G26G 3G21G29G18G15G 6G23G17
  24927181.709    -8452524.69949  -6568936.63545  24927180.911    24927190.303
  23617446.284    -6831991.04649  -5311178.33245  23617445.932    23617453.816
  21695292.676   -10056331.49149  -7822164.53646  21695292.671    21695299.119
  24468751.214    -5048635.26549  -3663128.49745  24468750.976    24468758.888
  20510466.335    -7403196.62349  -5757156.76647  20510465.760    20510470.449
  23727360.465     1461272.28649   1149495.76345  23727360.270    23727367.120
  20539716.840   -20187341.38349 -15708476.69248  20539716.390    20539721.736
  21345847.421   -19663920.89449 -15307815.61647  21345846.728    21345853.619
  21839922.855     6628904.01949   5260370.86347  21839922.636    21839930.388
  21881860.508   -18006865.63849 -14006413.35847  21881859.954    21881867.707
  21059270.533     -755745.49849   -584386.96047  21059269.911    21059276.855
 03  6 10 18  5 30.0000000  0 11G 2G16G26G 3G21G29G18G15G 6G23G17
  24926789.272    -8454587.56349  -6570544.12445  24926788.334    24926797.861
  23624722.481    -6793755.03649  -5281384.14845  23624722.125    23624729.974
  21703738.870   -10011946.47949  -7787578.82746  21703738.874    21703745.295
  24450150.341    -5146383.12049  -3739295.62845  24450150.163    24450158.078
  20511179.925    -7399446.57849  -5754234.67747  20511179.376    20511184.066
  23741308.914     1534571.51849   1206612.00645  23741308.634    23741315.571
  20535205.416   -20211049.12349 -15726950.24848  20535204.973    20535210.298
  21335150.197   -19720135.49049 -15351619.18647  21335149.463    21335156.352
  21856228.587     6714590.99349   5327139.82247  21856228.348    21856236.147
  21871667.023   -18060432.76649 -14048153.94047  21871666.421    21871674.189
  21064261.682     -729516.96949   -563949.18447  21064261.065    21064268.014
 03  6 10 18  6  0.0000000  0 11G 2G16G26G 3G21G29G18G15G 6G23G17
  24926474.986    -8456239.13049  -6571831.14545  24926474.200    24926483.675
  23632078.689    -6755098.20349  -5251262.05945  23632078.242    23632086.252
  21712303.270    -9966940.36249  -7752509.13746  21712303.255    21712309.721
  24431585.254    -5243943.15349  -3815316.42645  24431584.916    24431593.095
  20511943.669    -7395433.20749  -5751107.39847  20511943.107    20511947.799
  23755330.723     1608256.74949   1264029.05045  23755330.457    23755337.491
  20530770.419   -20234355.10849 -15745110.75048  20530769.984    20530775.317
  21324483.216   -19776190.73049 -15395298.58247  21324482.508    21324489.392
  21872601.055     6800628.80749   5394182.17347  21872600.864    21872608.697
  21861537.142   -18113665.32649 -14089633.82847  21861536.553    21861544.276
  21069297.703     -703052.74449   -543327.74947  21069297.079    21069304.017
 03  6 10 18  6 30.0000000  0 11G 2G16G26G 3G21G29G18G15G 6G23G17
  24926238.903    -8457480.17349  -6572798.27745  24926238.224    24926247.566
  23639514.616    -6716022.62849  -5220813.66045  23639514.195    23639522.227
  21720985.513    -9921314.89949  -7716956.84246  21720985.475    21720991.978
  24413056.412    -5341312.88049  -3891188.90445  24413056.062    24413064.211
  20512757.623    -7391156.09549  -5747774.60947  20512757.044    20512761.712
  23769425.624     1682325.59649   1321745.00845  23769425.329    23769432.404
  20526411.793   -20257259.89549 -15762958.62748  20526411.361    20526416.668
  21313846.755   -19832085.80249 -15438853.17347  21313846.021    21313852.926
  21889039.962     6887015.36449   5461496.26847  21889039.773    21889047.618
  21851471.001   -18166563.34649 -14130853.03347  21851470.382    21851478.089
  21074378.617     -676352.51749   -522522.41547  21074377.992    21074384.922
 03  6 10 18  7  0.0000000  0 11G 2G16G26G 3G21G29G18G15G 6G23G17
  24926080.503    -8458312.50049  -6573446.91145  24926079.894    24926089.315
  23647029.624    -6676531.86449  -5190041.75945  23647029.072    23647037.199
  21729785.113    -9875072.80249  -7680924.04646  21729785.093    21729791.609
  24394563.745    -5438491.25049  -3966912.26745  24394563.466    24394571.896
  20513621.700    -7386615.56149  -5744236.55347  20513621.116    20513625.775
  23783592.846     1756774.82949   1379757.36345  23783592.511    23783599.593
  20522129.232   -20279764.84049 -15780494.93648  20522128.806    20522134.106
  21303240.668   -19887820.92149 -15482283.12047  21303239.964    21303246.861
  21905544.679     6973747.48049   5529079.63947  21905544.467    21905552.305
  21841468.300   -18219127.89649 -14171812.39347  21841467.667    21841475.324
  21079504.368     -649416.48549   -501533.33247  21079503.753    21079510.684
 03  6 10 18  7 30.0000000  0 11G 2G16G26G 3G21G29G18G15G 6G23G17
  24926000.161    -8458735.34449  -6573776.48745  24925999.490    24926009.016
  23654623.435    -6636626.59649  -5158946.85745  23654622.935    23654630.977
  21738701.983    -9828214.27049  -7644410.91346  21738701.960    21738708.503
  24376108.246    -5535474.54549  -4042483.63345  24376107.972    24376116.653
  20514536.334    -7381809.20249  -5740491.35947  20514535.742    20514540.416
  23797832.363     1831603.35049   1438065.27345  23797831.994    23797839.040
  20517922.929   -20301869.13549 -15797719.04848  20517922.478    20517927.784
  21292665.513   -19943393.70249 -15525586.56747  21292664.805    21292671.677
  21922115.002     7060824.67449   5596931.89547  21922114.815    21922122.633
  21831529.342   -18271357.47349 -14212510.73647  21831528.717    21831536.337
  21084675.306     -622243.10049   -480359.30547  21084674.703    21084681.658
 03  6 10 18  8  0.0000000  0 11G 2G16G26G 3G21G29G18G15G 6G23G17
  24925997.516    -8458750.19749  -6573788.14845  24925996.502    24926006.315
  23662295.536    -6596310.06349  -5127531.48545  23662295.123    23662303.196
  21747735.661    -9780741.91149  -7607419.47846  21747735.626    21747742.228
  24357690.310    -5632260.77049  -4117901.43445  24357690.183    24357698.644
  20515501.447    -7376737.44049  -5736539.36047  20515500.864    20515505.580
  23812143.513     1906808.55849   1496666.70045  23812143.186    23812150.127
  20513792.554   -20323574.34549 -15814632.18548  20513792.097    20513797.423
  21282121.336   -19998803.83049 -15568763.27747  21282120.615    21282127.480
  21938750.475     7148244.21949   5665050.92147  21938750.269    21938758.135
  21821653.911   -18323252.88249 -14252948.69047  21821653.294    21821660.944
  21089891.450     -594832.38649   -459000.35447  21089890.832    21089897.776
 03  6 10 18  8 30.0000000  0 11G 2G16G26G 3G21G29G18G15G 6G23G17
  24926072.175    -8458358.03649  -6573482.63245  24926071.099    24926081.232
  23670045.379    -6555584.34549  -5095797.29545  23670045.009    23670053.236
  21756885.806    -9732657.84949  -7569951.38346  21756885.771    21756892.343
  24339310.412    -5728847.62349  -4193163.86145  24339310.336    24339318.811
  20516517.271    -7371399.48449  -5732379.93447  20516516.681    20516521.407
  23826525.770     1982387.68449   1555559.48645  23826525.439    23826532.433
  20509738.060   -20344880.82549 -15831234.62548  20509737.594    20509742.948
  21271608.126   -20054050.95449 -15611812.97447  21271607.413    21271614.273
  21955450.656     7236003.79049   5733434.90646  21955450.428    21955458.348
  21811842.086   -18374814.35549 -14293126.43247  21811841.457    21811849.069
  21095152.753     -567184.37249   -437456.48847  21095152.130    21095159.116
 03  6 10 18  9  0.0000000  0 11G 2G16G26G 3G21G29G18G15G 6G23G17
  24926224.342    -8457558.46849  -6572859.72545  24926223.135    24926233.665
  23677872.923    -6514450.66549  -5063745.20245  23677872.560    23677880.828
  21766152.213    -9683962.52649  -7532006.98546  21766152.196    21766158.763
  24320969.112    -5825231.62149  -4268268.20945  24320968.964    24320977.565
  20517584.080    -7365793.41649  -5728011.59147  20517583.492    20517588.207
  23840978.963     2058339.39749   1614742.60245  23840978.604    23840985.595
  20505759.538   -20365787.98549 -15847525.91248  20505759.078    20505764.417
  21261126.339   -20109132.98649 -15654734.02347  21261125.649    21261132.491
  21972215.290     7324102.43349   5802083.09446  21972215.092    21972223.006
  21802094.009   -18426040.75849 -14333043.08247  21802093.375    21802100.947
  21100459.559     -539297.11949   -415726.20647  21100458.926    21100465.910
 03  6 10 18  9 30.0000000  0 11G 2G16G26G 3G21G29G18G15G 6G23G17
  24926453.498    -8456353.61749  -6571920.96845  24926452.435    24926462.874
  23685777.468    -6472912.42749  -5031377.85445  23685777.068    23685785.387
  21775534.385    -9634659.15549  -7493588.78146  21775534.322    21775540.884
  24302666.715    -5921411.43649  -4343213.53345  24302666.564    24302675.111
  20518701.757    -7359920.08549  -5723434.99547  20518701.169    20518705.882
  23855502.227     2134660.41949   1674213.47945  23855502.039    23855508.871
  20501856.771   -20386297.24949 -15863507.15048  20501856.310    20501861.642
  21250675.880   -20164050.29549 -15697526.72747  21250675.174    21250682.056
  21989043.899     7412536.83249   5870992.90746  21989043.692    21989051.625
  21792409.462   -18476933.30649 -14372699.58947  21792408.829    21792416.420
  21105811.857     -511170.85949   -393809.68747  21105811.191    21105818.200
 03  6 10 18 10  0.0000000  0 11G 2G16G26G 3G21G29G18G15G 6G23G17
  24926759.820    -8454743.52349  -6570666.43445  24926758.824    24926769.479
  23693758.609    -6430971.72449  -4998696.89945  23693758.232    23693766.552
  21785032.029    -9584748.77749  -7454697.58446  21785032.006    21785038.523
  24284403.922    -6017383.54549  -4417996.93445  24284403.757    24284412.197
  20519870.589    -7353777.86049  -5718648.87047  20519870.020    20519874.715
  23870095.604     2211349.04449   1733970.79945  23870095.387    23870102.311
  20498029.635   -20406409.03549 -15879178.66748  20498029.180    20498034.484
  21240257.175   -20218801.06249 -15740189.65047  21240256.466    21240263.350
  22005936.149     7501305.71249   5940163.36546  22005935.938    22005943.874
  21782788.538   -18527491.37849 -14412095.45747  21782787.930    21782795.498
  21111209.725     -482804.82349   -371706.32347  21111209.094    21111216.082
 03  6 10 18 10 30.0000000  0 11G 2G16G26G 3G21G29G18G15G 6G23G17
  24927143.091    -8452729.67949  -6569097.30545  24927142.198    24927152.563
  23701815.803    -6388631.26849  -4965704.45745  23701815.445    23701823.723
  21794644.697    -9534233.95349  -7415335.39446  21794644.681    21794651.179
  24266180.955    -6113146.32249  -4492617.23845  24266180.813    24266189.093
  20521090.553    -7347366.94349  -5713653.37447  20521089.985    20521094.699
  23884758.400     2288402.44049   1794012.39545  23884758.216    23884765.059
  20494277.918   -20426124.43849 -15894541.31448  20494277.457    20494282.758
  21229870.171   -20273385.06649 -15782722.62847  21229869.457    21229876.329
  22022891.423     7590406.18149   6009592.19846  22022891.250    22022899.248
  21773231.168   -18577715.59949 -14451231.18347  21773230.556    21773238.144
  21116653.273     -454198.91749   -349416.04347  21116652.646    21116659.658
 03  6 10 18 11  0.0000000  0 11G 2G16G26G 3G21G29G18G15G 6G23G17
  24927603.104    -8450313.09349  -6567214.33445  24927602.190    24927612.614
  23709948.645    -6345893.35949  -4932402.32445  23709948.234    23709956.646
  21804372.012    -9483116.55249  -7375503.66046  21804372.007    21804378.507
  24247998.102    -6208697.62349  -4567072.76745  24247997.921    24248006.327
  20522361.747    -7340686.82649  -5708448.11147  20522361.175    20522365.910
  23899490.172     2365818.09149   1854336.23245  23899489.808    23899496.825
  20490601.561   -20445443.73249 -15909595.30648  20490601.102    20490606.398
  21219515.053   -20327801.51249 -15825125.03847  21219514.336    21219521.198
  22039909.457     7679836.07349   6079277.71346  22039909.248    22039917.317
  21763737.310   -18627606.11349 -14490106.87847  21763736.699    21763744.302
  21122142.616     -425352.39849   -326938.27247  21122142.005    21122148.994
 03  6 10 18 11 30.0000000  0 11G 2G16G26G 3G21G29G18G15G 6G23G17
  24928139.692    -8447493.61349  -6565017.41845  24928138.749    24928149.250
  23718156.775    -6302759.70149  -4898791.80545  23718156.482    23718164.788
  21814213.764    -9431397.74449  -7335203.31746  21814213.764    21814220.251
  24229856.309    -6304033.84849  -4641360.73545  24229855.990    24229864.430
  20523684.564    -7333735.62749  -5703031.62747  20523683.979    20523688.713
  23914290.489     2443594.44249   1914941.13945  23914290.141    23914297.275
  20487000.594   -20464367.00949 -15924340.71948  20487000.145    20487005.435
  21209192.265   -20382048.19749 -15867395.17547  21209191.542    21209198.399
  22056989.977     7769594.21549   6149219.01246  22056989.724    22056997.839
  21754307.073   -18677161.98749 -14528721.81947  21754306.477    21754314.053
  21127677.919     -396264.33849   -304272.29847  21127677.313    21127684.332
 03  6 10 18 12  0.0000000  0 11G 2G16G26G 3G21G29G18G15G 6G23G17
  24928752.600    -8444273.58049  -6562508.38645  24928751.783    24928761.868
  23726439.584    -6259234.00749  -4864875.81845  23726439.188    23726447.626
  21824169.391    -9379080.69049  -7294436.81046  21824169.382    21824175.875
  24211755.660    -6399153.71049  -4715480.08245  24211755.321    24211763.692
  20525058.767    -7326514.22849  -5697404.59147  20525058.198    20525062.933
  23929158.887     2521727.90249   1975824.32045  23929158.538    23929165.615
  20483474.583   -20482896.22249 -15938779.07448  20483474.116    20483479.420
  21198901.612   -20436125.76849 -15909533.54547  21198900.916    21198907.735
  22074132.182     7859677.08749   6219413.33846  22074131.996    22074140.174
  21744940.286   -18726384.91549 -14567077.31847  21744939.672    21744947.235
  21133259.017     -366935.47749   -281418.68447  21133258.430    21133265.477
 03  6 10 18 12 30.0000000  0 11G 2G16G26G 3G21G29G18G15G 6G23G17
  24929441.656    -8440652.80949  -6559687.15345  24929440.847    24929450.849
  23734796.698    -6215317.65049  -4830655.42745  23734796.342    23734804.733
  21834238.649    -9326166.34249  -7253204.89346  21834238.641    21834245.155
  24193696.831    -6494053.74049  -4789428.22145  24193696.563    24193704.815
  20526484.750    -7319020.68049  -5691565.50347  20526484.191    20526488.931
  23944094.978     2600217.17849   2036984.71145  23944094.568    23944101.720
  20480023.710   -20501030.68249 -15952909.84348  20480023.265    20480028.558
  21188643.589   -20490032.00649 -15951538.41547  21188642.908    21188649.708
  22091336.138     7950083.73649   6289859.94646  22091335.926    22091344.113
  21735637.019   -18775273.76449 -14605172.51247  21735636.412    21735643.996
  21138886.368     -337363.80649   -258375.88147  21138885.774    21138892.835
 03  6 10 18 13  0.0000000  0 11G 2G16G26G 3G21G29G18G15G 6G23G17
  24930206.776    -8436632.80949  -6556554.80545  24930205.857    24930215.904
  23743227.621    -6171013.58549  -4796132.94645  23743227.295    23743235.693
  21844421.086    -9272657.37349  -7211509.64446  21844421.082    21844427.608
  24175680.222    -6588732.01749  -4863203.53445  24175679.895    24175688.199
  20527962.542    -7311254.92449  -5685514.30747  20527961.978    20527966.714
  23959098.186     2679059.43849   2098420.17645  23959097.822    23959104.944
  20476647.757   -20518771.55449 -15966733.91948  20476647.312    20476652.609
  21178418.252   -20543766.63449 -15993409.56947  21178417.577    21178424.370
  22108601.260     8040811.52549   6360556.78446  22108600.964    22108609.144
  21726397.195   -18823829.18149 -14643007.88947  21726396.579    21726404.157
  21144559.853     -307549.62549   -235144.11147  21144559.266    21144566.324
 03  6 10 18 13 30.0000000  0 11G 2G16G26G 3G21G29G18G15G 6G23G17
  24931047.660    -8432214.43649  -6553112.08345  24931046.876    24931056.892
  23751731.895    -6126323.91249  -4761310.00545  23751731.548    23751739.994
  21854716.361    -9218555.40949  -7169352.33346  21854716.345    21854722.895
  24157706.161    -6683186.30949  -4936804.33945  24157705.808    24157714.026
  20529492.287    -7303216.30149  -5679250.49547  20529491.728    20529496.472
  23974168.155     2758252.22949   2160128.75945  23974167.798    23974174.836
  20473346.559   -20536119.45049 -15980251.78348  20473346.107    20473351.405
  21168225.733   -20597328.63549 -16035146.21147  21168225.063    21168231.860
  22125926.889     8131858.22749   6431502.12446  22125926.679    22125934.868
  21717220.790   -18872051.30749 -14680583.56347  21717220.181    21717227.783
  21150279.638     -277492.04449   -211722.68847  21150279.066    21150286.118
 03  6 10 18 14  0.0000000  0 11G 2G16G26G 3G21G29G18G15G 6G23G17
  24931964.282    -8427398.12349  -6549359.30145  24931963.411    24931973.322
  23760309.141    -6081250.97349  -4726188.45445  23760308.710    23760317.281
  21865124.144    -9163862.37349  -7126734.46746  21865124.110    21865130.668
  24139775.349    -6777413.53649  -5010228.31745  24139775.041    24139783.223
  20531074.164    -7294903.54049  -5672773.08047  20531073.614    20531078.368
  23989304.422     2837793.55749   2222108.90645  23989304.200    23989311.101
  20470120.087   -20553074.70749 -15993463.70748  20470119.651    20470124.923
  21158066.383   -20650716.34949 -16076747.06147  21158065.716    21158072.537
  22143312.986     8223222.16149   6502694.63346  22143312.753    22143320.967
  21708107.914   -18919939.70749 -14717899.20947  21708107.300    21708114.885
  21156045.967     -247190.02649   -188110.81047  21156045.404    21156052.485
 03  6 10 18 14 30.0000000  0 11G 2G16G26G 3G21G29G18G15G 6G23G17
  24932956.380    -8422185.41349  -6545297.63645  24932955.514    24932965.469
  23768958.789    -6035797.50749  -4690770.37645  23768958.372    23768966.958
  21875643.898    -9108580.66849  -7083657.88346  21875643.877    21875650.461
  24121888.171    -6871411.11449  -5083473.06145  24121887.994    24121895.987
  20532708.291    -7286316.36749  -5666081.82547  20532707.732    20532712.488
  24004506.574     2917680.66449   2284358.50245  24004506.306    24004513.263
  20466968.161   -20569638.32349 -16006370.44748  20466967.723    20466972.987
  21147940.291   -20703929.53549 -16118211.90647  21147939.616    21147946.429
  22160758.950     8314900.71949   6574132.31246  22160758.676    22160766.920
  21699058.414   -18967495.15049 -14754955.40147  21699057.795    21699065.382
  21161858.773     -216643.86149   -164308.67847  21161858.170    21161865.262
 03  6 10 18 15  0.0000000  0 11G 2G16G26G 3G21G29G18G15G 6G23G17
  24934023.629    -8416577.63649  -6540928.07945  24934022.815    24934032.730
  23777680.313    -5989966.32249  -4655057.92645  23777679.894    23777688.528
  21886275.251    -9052712.79149  -7040124.51646  21886275.197    21886281.846
  24104045.017    -6965177.51549  -5156537.77645  24104044.747    24104052.869
  20534394.667    -7277454.56549  -5659176.56947  20534394.085    20534398.881
  24019773.934     2997911.02149   2346875.59845  24019773.627    24019780.653
  20463890.589   -20585811.33749 -16018972.80948  20463890.144    20463895.408
  21137847.519   -20756967.31349 -16159540.05047  21137846.853    21137853.666
  22178264.227     8406891.27149   6645813.12246  22178263.987    22178272.282
  21690072.168   -19014718.10649 -14791752.49747  21690071.546    21690079.151
  21167718.012     -185853.46949   -140316.22147  21167717.424    21167724.552
 03  6 10 18 15 30.0000000  0 11G 2G16G26G 3G21G29G18G15G 6G23G17
  24935166.054    -8410574.58749  -6536250.52445  24935165.195    24935175.190
  23786473.449    -5943758.60249  -4619052.07845  23786473.047    23786481.696
  21897017.960    -8996259.44949  -6996134.95146  21897017.920    21897024.601
  24086246.685    -7058708.61449  -5229419.19045  24086246.280    24086254.538
  20536133.656    -7268316.40449  -5652055.95547  20536133.071    20536137.873
  24035106.345     3078483.09449   2409658.98045  24035106.042    24035113.123
  20460887.344   -20601593.45449 -16031270.56948  20460886.913    20460892.192
  21127788.614   -20809827.47949 -16200729.79047  21127787.917    21127794.769
  22195828.738     8499192.89249   6717736.33546  22195828.537    22195836.846
  21681149.415   -19061607.54549 -14828289.70347  21681148.793    21681156.385
  21173624.143     -154816.80449   -116131.85247  21173623.555    21173630.728
 03  6 10 18 16  0.0000000  0 11G 2G16G26G 3G21G29G18G15G 6G23G17
  24936383.222    -8404178.86749  -6531266.95245  24936382.201    24936392.489
  23795337.487    -5897178.87449  -4582756.33145  23795337.021    23795345.727
  21907871.392    -8939224.61649  -6951692.25846  21907871.356    21907878.014
  24068493.131    -7152003.92549  -5302116.78345  24068492.679    24068500.901
  20537925.094    -7258902.53049  -5644720.50047  20537924.511    20537929.313
  24050503.002     3159392.85349   2472705.51245  24050502.643    24050509.858
  20457958.108   -20616986.74049 -16043265.33848  20457957.670    20457962.965
  21117763.279   -20862510.75749 -16241781.69147  21117762.587    21117769.439
  22213451.792     8591801.58049   6789898.83246  22213451.527    22213459.816
  21672289.764   -19108165.39649 -14864568.52147  21672289.136    21672296.709
  21179576.844     -123535.33149    -91756.72247  21179576.244    21179583.464
 03  6 10 18 16 30.0000000  0 11G 2G16G26G 3G21G29G18G15G 6G23G17
  24937675.234    -8397389.73049  -6525976.80545  24937674.407    24937684.564
  23804272.141    -5850227.53549  -4546171.01645  23804271.645    23804280.485
  21918835.363    -8881608.63549  -6906796.71646  21918835.346    21918842.003
  24050785.336    -7245058.91349  -5374627.14045  24050784.938    24050793.134
  20539769.436    -7249210.60449  -5637168.37247  20539768.864    20539773.670
  24065963.844     3240639.94249   2536014.90945  24065963.540    24065970.739
  20455103.087   -20631990.05549 -16054956.22748  20455102.637    20455107.922
  21107772.168   -20915014.46649 -16282693.66147  21107771.454    21107778.364
  22231133.103     8684717.17149   6862300.47846  22231132.877    22231141.181
  21663493.522   -19154389.94249 -14900587.61547  21663492.886    21663500.448
  21185576.611      -92006.68049    -67188.97847  21185575.981    21185583.224
 03  6 10 18 17  0.0000000  0 11G 2G16G26G 3G21G29G18G15G 6G23G17
  24939041.624    -8390209.91349  -6520382.21645  24939040.841    24939051.087
  23813276.715    -5802908.63349  -4509299.27345  23813276.262    23813285.144
  21929909.281    -8823415.11549  -6861451.13746  21929909.230    21929915.893
  24033123.471    -7337872.59849  -5446949.44045  24033123.105    24033131.234
  20541666.592    -7239241.27449  -5629400.08647  20541666.000    20541670.801
  24081488.091     3322220.14149   2599583.88345  24081487.773    24081494.994
  20452321.829   -20646605.64249 -16066344.98948  20452321.393    20452326.683
  21097815.148   -20967339.05449 -16323466.05247  21097814.417    21097821.343
  22248872.021     8777935.80349   6934938.25846  22248871.876    22248880.193
  21654760.364   -19200282.86949 -14936348.30347  21654759.762    21654767.286
  21191623.313      -60231.42249    -42429.06647  21191622.685    21191629.895
 03  6 10 18 17 30.0000000  0 11G 2G16G26G 3G21G29G18G15G 6G23G17
  24940482.314    -8382639.43649  -6514483.22645  24940481.574    24940491.822
  23822350.975    -5755223.77349  -4472142.36445  23822350.430    23822359.486
  21941092.876    -8764645.31549  -6815656.51846  21941092.847    21941099.481
  24015508.134    -7430441.52449  -5519081.01745  24015507.740    24015515.895
  20543616.737    -7228993.15849  -5621414.56747  20543616.150    20543620.962
  24097075.517     3404132.23749   2663411.48445  24097075.252    24097082.439
  20449614.393   -20660833.25149 -16077431.43448  20449613.957    20449619.275
  21087892.581   -21019482.24949 -16364097.09747  21087891.886    21087898.812
  22266668.500     8871456.29049   7007811.24446  22266668.276    22266676.690
  21646090.495   -19245843.41949 -14971849.99847  21646089.884    21646097.391
  21197717.195      -28207.97149    -17475.76147  21197716.546    21197723.781
 03  6 10 18 18  0.0000000  0 11G 2G16G26G 3G21G29G18G15G 6G23G17
  24941996.964    -8374680.11549  -6508281.25845  24941996.166    24942006.624
  23831494.274    -5707176.24249  -4434702.87145  23831493.759    23831502.777
  21952385.544    -8705302.13349  -6769415.11046  21952385.530    21952392.130
  23997939.700    -7522764.19949  -5591020.71645  23997939.383    23997947.471
  20545619.991    -7218466.26849  -5613211.82147  20545619.404    20545624.224
  24112725.389     3486372.90049   2727495.10345  24112725.137    24112732.303
  20446980.497   -20674674.48749 -16088216.80848  20446980.050    20446985.392
  21078004.615   -21071443.86149 -16404586.65347  21078003.902    21078010.854
  22284521.885     8965275.69049   7080917.15046  22284521.597    22284530.084
  21637483.627   -19291072.64549 -15007093.52547  21637483.022    21637490.523
  21203858.189        4063.00549      7670.41947  21203857.535    21203864.786
 03  6 10 18 18 30.0000000  0 11G 2G16G26G 3G21G29G18G15G 6G23G17
  24943585.414    -8366333.02649  -6501777.11445  24943584.606    24943595.372
  23840706.043    -5658768.45549  -4396982.64745  23840705.613    23840714.651
  21963786.924    -8645387.64949  -6722728.52746  21963786.897    21963793.529
  23980418.703    -7614837.79949  -5662766.34545  23980418.332    23980426.440
  20547676.384    -7207659.86849  -5604791.27747  20547675.800    20547680.628
  24128437.399     3568939.88849   2791833.00945  24128437.131    24128444.350
  20444420.022   -20688129.81149 -16098701.47148  20444419.573    20444424.922
  21068151.399   -21123222.92449 -16444933.95947  21068150.713    21068157.618
  22302431.662     9059391.97449   7154254.39846  22302431.438    22302439.974
  21628939.818   -19335970.56249 -15042078.88947  21628939.217    21628946.711
  21210046.433       36582.34649     33010.13147  21210045.801    21210053.048
 03  6 10 18 19  0.0000000  0 11G 2G16G26G 3G21G29G18G15G 6G23G17
  24945247.717    -8357598.33149  -6494970.94945  24945246.905    24945257.553
  23849986.107    -5610001.98749  -4358982.93745  23849985.688    23849994.758
  21975296.740    -8584903.25449  -6675597.85946  21975296.729    21975303.348
  23962945.665    -7706658.96049  -5734315.26245  23962945.319    23962953.375
  20549786.264    -7196572.35249  -5596151.68047  20549785.689    20549790.545
  24144211.202     3651831.66849   2856424.00145  24144211.000    24144218.098
  20441933.078   -20701198.88449 -16108885.15748  20441932.654    20441937.962
  21058333.267   -21174817.35849 -16485137.39947  21058332.590    21058339.527
  22320397.689     9153803.56349   7227821.76246  22320397.480    22320406.015
  21620459.129   -19380536.56749 -15076805.61747  21620458.548    21620466.058
  21216282.259       69351.70449     58544.65747  21216281.634    21216288.895
 03  6 10 18 19 30.0000000  0 11G 2G16G26G 3G21G29G18G15G 6G23G17
  24946983.188    -8348478.83949  -6487864.92445  24946982.403    24946992.685
  23859333.575    -5560881.18149  -4320707.12045  23859333.068    23859342.184
  21986914.302    -8523852.77649  -6628026.08446  21986914.276    21986920.911
  23945520.843    -7798226.48549  -5805666.52345  23945520.411    23945528.643
  20551949.571    -7185204.30849  -5587293.49047  20551949.002    20551953.846
  24160046.046     3735044.21149   2921264.93345  24160045.799    24160052.872
  20439519.165   -20713884.05449 -16118769.69548  20439518.726    20439524.047
  21048550.217   -21226227.63749 -16525197.34147  21048549.533    21048556.442
  22338419.262     9248506.64349   7301616.24646  22338419.004    22338427.572
  21612041.307   -19424772.42949 -15111275.09847  21612040.716    21612048.249
  21222565.441      102369.78649     84272.99747  21222564.804    21222572.075
 03  6 10 18 20  0.0000000  0 11G 2G16G26G 3G21G29G18G15G 6G23G17
  24948791.801    -8338974.57049  -6480459.12745  24948791.181    24948801.415
  23868748.343    -5511407.01949  -4282155.96345  23868747.840    23868756.923
  21998639.393    -8462237.26449  -6580014.00646  21998639.359    21998645.982
  23928145.118    -7889536.66249  -5876817.25945  23928144.670    23928152.867
  20554166.543    -7173554.05149  -5578215.39347  20554165.977    20554170.814
  24175941.772     3818576.45949   2986354.97645  24175941.374    24175948.573
  20437178.334   -20726185.13849 -16128354.93748  20437177.906    20437183.232
  21038802.643   -21277451.47549 -16565111.99847  21038801.960    21038808.838
  22356496.041     9343500.28749   7375637.15846  22356495.760    22356504.411
  21603686.516   -19468677.01449 -15145486.43547  21603685.929    21603693.453
  21228896.206      135638.09049    110196.32047  21228895.581    21228902.842
 03  6 10 18 20 30.0000000  0 11G 2G16G26G 3G21G29G18G15G 6G23G17
  24950673.492    -8329086.67349  -6472754.37345  24950672.779    24950683.060
  23878229.728    -5461582.43649  -4243331.74945  23878229.185    23878238.324
  22010471.532    -8400059.11149  -6531563.53346  22010471.498    22010478.111
  23910818.747    -7980587.29149  -5947765.77645  23910818.295    23910826.436
  20556437.360    -7161620.98549  -5568916.93247  20556436.775    20556441.640
  24191897.612     3902425.54349   3051691.89345  24191897.328    24191904.502
  20434910.446   -20738102.89149 -16137641.48948  20434910.006    20434915.334
  21029090.750   -21328487.87149 -16604880.60447  21029090.054    21029096.953
  22374627.542     9438782.10249   7449882.60446  22374627.328    22374636.003
  21595394.666   -19512250.87449 -15179440.07447  21595394.070    21595401.599
  21235274.680      169157.17749    136315.05047  21235274.076    21235281.335
 03  6 10 18 21  0.0000000  0 11G 2G16G26G 3G21G29G18G15G 6G23G17
  24952627.762    -8318816.96449  -6464752.10045  24952627.056    24952637.414
  23887777.165    -5411410.62249  -4204236.97545  23887776.636    23887785.867
  22022410.146    -8337321.34249  -6482676.97746  22022410.133    22022416.754
  23893542.096    -8071376.56249  -6018510.62445  23893541.655    23893549.734
  20558761.994    -7149405.03749  -5559398.04347  20558761.426    20558766.299
  24207913.312     3986588.66649   3117273.50345  24207913.001    24207920.160
  20432715.318   -20749638.38949 -16146630.17848  20432714.896    20432720.205
  21019414.573   -21379336.45149 -16644502.85747  21019413.892    21019420.758
  22392813.447     9534349.15849   7524350.31546  22392813.228    22392821.921
  21587165.555   -19555494.96949 -15213136.74447  21587164.977    21587172.496
  21241700.900      202927.01949    162629.17747  21241700.277    21241707.562
 03  6 10 18 21 30.0000000  0 11G 2G16G26G 3G21G29G18G15G 6G23G17
  24954654.619    -8308166.29349  -6456452.96645  24954653.862    24954664.348
  23897390.277    -5360893.92749  -4164873.46345  23897389.761    23897399.049
  22034454.890    -8274025.91349  -6433355.88346  22034454.864    22034461.478
  23876315.741    -8161901.63249  -6089049.62145  23876315.391    23876323.373
  20561140.668    -7136905.21549  -5549657.95347  20561140.099    20561144.979
  24223988.302     4071063.54149   3183098.06445  24223988.141    24223995.071
  20430592.810   -20760792.27949 -16155321.51248  20430592.355    20430597.681
  21009774.371   -21429995.94149 -16683977.76647  21009773.686    21009780.574
  22411053.308     9630199.42549   7599038.72146  22411053.050    22411061.746
  21578999.249   -19598409.14549 -15246576.33047  21578998.660    21579006.170
  21248175.038      236948.64449    189139.49247  21248174.405    21248181.711
 03  6 10 18 22  0.0000000  0 11G 2G16G26G 3G21G29G18G15G 6G23G17
  24956753.871    -8297135.67449  -6447857.80045  24956753.038    24956763.486
  23907068.467    -5310034.86149  -4125243.15945  23907068.010    23907077.177
  22046605.345    -8210175.04049  -6383601.98046  22046605.322    22046611.942
  23859140.237    -8252159.75249  -6159380.58545  23859139.831    23859147.837
  20563573.544    -7124120.53849  -5539695.89947  20563572.974    20563577.833
  24240122.273     4155847.95549   3249163.80945  24240122.033    24240129.082
  20428542.769   -20771565.28249 -16163716.05448  20428542.305    20428547.636
  21000170.460   -21480464.87349 -16723304.19247  21000169.755    21000176.646
  22429346.614     9726330.90349   7673946.24346  22429346.386    22429355.086
  21570895.705   -19640993.57449 -15279758.97747  21570895.100    21570902.595
  21254697.179      271222.66349    215846.47547  21254696.550    21254703.889
 03  6 10 18 22 30.0000000  0 11G 2G16G26G 3G21G29G18G15G 6G23G17
  24958924.994    -8285726.90049  -6438967.93645  24958924.106    24958934.645
  23916811.295    -5258836.54149  -4085348.52945  23916810.895    23916820.057
  22058860.895    -8145771.75849  -6333417.62146  22058860.848    22058867.498
  23842015.876    -8342149.06449  -6229502.15345  23842015.426    23842023.508
  20566060.639    -7111050.89749  -5529511.78747  20566060.053    20566064.942
  24256314.545     4240938.90549   3315468.41245  24256314.513    24256321.361
  20426564.950   -20781958.75949 -16171814.85748  20426564.484    20426569.839
  20990602.863   -21530742.79549 -16762481.77747  20990602.169    20990609.063
  22447692.805     9822740.58349   7749070.54346  22447692.596    22447701.370
  21562854.706   -19683249.22949 -15312685.43847  21562854.107    21562861.579
  21261267.313      305748.72749    242749.85847  21261266.671    21261274.033
 03  6 10 18 23  0.0000000  0 11G 2G16G26G 3G21G29G18G15G 6G23G17
  24961167.860    -8273940.66849  -6429783.97445  24961167.083    24961177.509
  23926618.218    -5207300.98249  -4045191.11845  23926617.757    23926627.174
  22071221.206    -8080817.64349  -6282804.03846  22071221.231    22071227.831
  23824943.212    -8431866.30249  -6299411.68345  23824942.735    23824950.908
  20568602.188    -7097695.09549  -5519104.69747  20568601.613    20568606.492
  24272564.819     4326334.60649   3382010.50145  24272564.753    24272571.591
  20424659.328   -20791972.67449 -16179617.90748  20424658.893    20424664.229
  20981071.923   -21580827.96249 -16801509.16147  20981071.227    20981078.136
  22466091.721     9919426.94449   7824410.43746  22466091.468    22466100.262
  21554876.340   -19725175.70749 -15345355.39647  21554875.750    21554883.230
  21267885.823      340528.76549    269851.13447  21267885.169    21267892.523
 03  6 10 18 23 30.0000000  0 11G 2G16G26G 3G21G29G18G15G 6G23G17
  24963482.272    -8261778.93549  -6420307.40645  24963481.491    24963491.932
  23936488.736    -5155431.51649  -4004773.50045  23936488.303    23936497.622
  22083685.804    -8015315.92549  -6231763.76546  22083685.773    22083692.441
  23807922.646    -8521309.85649  -6369108.00645  23807922.288    23807930.341
  20571198.177    -7084053.18649  -5508474.66747  20571197.606    20571202.495
  24288872.473     4412031.70249   3448787.42645  24288872.404    24288879.239
  20422825.647   -20801608.71449 -16187126.50248  20422825.202    20422830.545
  20971577.754   -21630720.01249 -16840386.07047  20971577.089    20971583.990
  22484542.733    10016386.96049   7899963.56946  22484542.464    22484551.227
  21546960.395   -19766774.10549 -15377769.71147  21546959.810    21546967.306
  21274552.507      375562.23249    297149.89047  21274551.874    21274559.213
 03  6 10 18 24  0.0000000  0 10G16G26G 3G21G29G18G15G 6G23G17
  23946422.816    -5103228.09249  -3964095.66745  23946422.456    23946431.757
  22096254.673    -7949266.10349  -6180296.40446  22096254.681    22096261.377
  23790955.208    -8610474.07549  -6438586.64845  23790954.875    23790963.036
  20573849.282    -7070121.57849  -5497618.89547  20573848.711    20573853.612
  24305237.645     4498030.68649   3515799.60045  24305237.563    24305244.400
  20421064.253   -20810864.81449 -16194339.04048  20421063.822    20421069.165
  20962121.154   -21680414.79749 -16879109.26447  20962120.466    20962127.390
  22503045.833    10113621.26749   7975730.43846  22503045.605    22503054.422
  21539107.393   -19808041.80649 -15409926.34247  21539106.827    21539114.281
  21281267.957      410852.21549    324648.52147  21281267.365    21281274.713
 03  6 10 18 24 30.0000000  0 10G16G26G 3G21G29G18G15G 6G23G17
  23956419.439    -5050695.90249  -3923161.64845  23956418.966    23956428.502
  22108926.855    -7882673.39949  -6128406.00146  22108926.868    22108933.616
  23774040.958    -8699359.09549  -6507847.73445  23774040.624    23774048.811
  20576555.157    -7055902.37749  -5486539.02747  20576554.588    20576559.501
  24321659.174     4584326.34549   3583042.93945  24321659.026    24321665.940
  20419374.522   -20819744.44249 -16201258.23048  20419374.101    20419379.434
  20952701.738   -21729914.24149 -16917680.24847  20952701.047    20952707.918
  22521600.152    10211124.66949   8051706.97946  22521599.941    22521608.867
  21531316.741   -19848981.95849 -15441827.74247  21531316.170    21531323.608
  21288031.869      446396.51949    352345.33447  21288031.282    21288038.611
 03  6 10 18 25  0.0000000  0 10G16G26G 3G21G29G18G15G 6G23G17
  23966477.842    -4997839.17349  -3881974.75145  23966477.423    23966486.835
  22121701.650    -7815541.40849  -6076095.38346  22121701.675    22121708.451
  23757180.126    -8787963.66849  -6576890.18245  23757179.806    23757187.952
  20579315.630    -7041395.99949  -5475235.38347  20579315.067    20579319.979
  24338136.459     4670914.88749   3650514.52845  24338136.258    24338143.017
  20417756.007   -20828249.93449 -16207885.88248  20417755.582    20417760.889
  20943319.500   -21779218.26549 -16956098.95647  20943318.802    20943325.693
  22540205.095    10308893.59749   8127890.43346  22540204.871    22540213.768
  21523588.045   -19889596.26049 -15473475.22847  21523587.470    21523594.960
  21294844.110      482194.88249    380240.10747  21294843.487    21294850.887
 03  6 10 18 25 30.0000000  0 10G16G26G 3G21G29G18G15G 6G23G17
  23976597.792    -4944658.91549  -3840535.74045  23976597.496    23976606.866
  22134578.826    -7747871.45649  -6023365.57046  22134578.810    22134585.619
  23740373.289    -8876284.14749  -6645711.18845  23740372.912    23740381.124
  20582131.200    -7026600.38349  -5463706.36447  20582130.637    20582135.543
  24354669.337     4757795.38949   3718213.60745  24354669.303    24354675.843
  20416208.788   -20836380.58749 -16214221.45848  20416208.353    20416213.673
  20933974.954   -21828324.10149 -16994363.23547  20933974.271    20933981.117
  22558860.421    10406927.14149   8204280.07946  22558860.176    22558869.068
  21515921.607   -19929883.58149 -15504867.92747  21515921.048    21515928.510
  21301704.959      518248.89249    408334.08047  21301704.367    21301711.784
 03  6 10 18 26  0.0000000  0 10G16G26G 3G21G29G18G15G 6G23G17
  23986778.700    -4891158.69949  -3798847.41845  23986778.388    23986787.649
  22147557.759    -7679666.66649  -5970219.00246  22147557.705    22147564.549
  23723620.855    -8964318.81649  -6714309.54745  23723620.410    23723628.662
  20585001.726    -7011515.77549  -5451952.15047  20585001.150    20585006.051
  24371256.964     4844964.35749   3786137.45345  24371256.850    24371263.594
  20414732.640   -20844137.78649 -16220266.02348  20414732.195    20414737.512
  20924668.155   -21877231.64549 -17032472.99947  20924667.454    20924674.306
  22577565.469    10505222.25649   8280873.54246  22577565.246    22577574.116
  21508317.164   -19969845.16049 -15536006.81047  21508316.592    21508324.048
  21308614.450      554558.29249    436627.06447  21308613.844    21308621.295
 03  6 10 18 26 30.0000000  0 10G16G26G 3G21G29G18G15G 6G23G17
  23997020.208    -4837339.89649  -3756910.82845  23997019.909    23997029.224
  22160638.229    -7610928.16049  -5916656.54546  22160638.209    22160645.064
  23706923.531    -9052063.96149  -6782682.35545  23706923.139    23706931.291
  20587927.582    -6996140.24649  -5439971.23947  20587927.025    20587931.940
  24387899.485     4932420.74749   3854285.26745  24387899.369    24387906.048
  20413327.619   -20851521.30949 -16226019.41248  20413327.168    20413332.491
  20915399.519   -21925938.58349 -17070426.44647  20915398.821    20915405.671
  22596320.060    10603777.92449   8357670.02746  22596319.873    22596328.796
  21500774.897   -20009479.91549 -15566891.01647  21500774.344    21500781.789
  21315572.936      591125.00449    465120.54447  21315572.336    21315579.790
 03  6 10 18 27  0.0000000  0 11G16G26G 3G21G29G18G15G 6G14G23G17
  24007321.037    -4783208.92749  -3714731.01045  24007320.737    24007330.214
  22173819.167    -7541662.14149  -5862683.03046  22173819.125    22173825.964
  23690281.104    -9139520.38049  -6850830.16045  23690280.800    23690288.779
  20590908.318    -6980476.55149  -5427765.78347  20590907.741    20590912.708
  24404595.457     5020158.62049   3922652.41845  24404595.230    24404602.106
  20411992.832   -20858535.57049 -16231485.06048  20411992.382    20411997.708
  20906168.619   -21974447.22749 -17108225.37847  20906167.931    20906174.777
  22615123.046    10702588.08349   8434664.81946  22615122.906    22615131.890
  24661955.815    -4574611.72749  -3255270.43245  24661955.354    24661967.776
  21493294.081   -20048791.81949 -15597523.64647  21493293.513    21493300.937
  21322579.809      627946.13749    493812.28447  21322579.196    21322586.685
 03  6 10 18 27 30.0000000  0 11G16G26G 3G21G29G18G15G 6G14G23G17
  24017681.113    -4728767.24349  -3672309.07545  24017680.935    24017690.219
  22187100.196    -7471869.94749  -5808299.50446  22187100.190    22187106.977
  23673694.285    -9226684.42349  -6918750.15745  23673693.973    23673701.943
  20593944.296    -6964522.36449  -5415333.97547  20593943.739    20593948.682
  24421344.638     5108176.65749   3991237.87745  24421344.605    24421351.507
  20410728.406   -20865180.26349 -16236662.73648  20410727.947    20410733.277
  20896975.924   -22022755.17549 -17145867.92147  20896975.235    20896982.077
  22633974.318    10801651.63749   8511857.06646  22633974.175    22633983.184
  24640173.420    -4689078.12349  -3344464.86845  24640172.934    24640185.449
  21485874.802   -20087780.20649 -15627904.18647  21485874.239    21485881.694
  21329635.321      665022.99549    522703.28747  21329634.721    21329642.215
 03  6 10 18 28  0.0000000  0 11G16G26G 3G21G29G18G15G 6G14G23G17
  24028100.637    -4674013.32049  -3629643.83645  24028100.322    24028109.841
  22200481.677    -7401550.01849  -5753504.77546  22200481.646    22200488.433
  23657164.433    -9313549.28349  -6986437.01245  23657164.047    23657172.124
  20597036.357    -6948273.72149  -5402672.71547  20597035.789    20597040.730
  24438147.698     5196476.32249   4060042.79945  24438147.542    24438154.463
  20409534.898   -20871452.16449 -16241549.92648  20409534.433    20409539.777
  20887822.432   -22070857.03949 -17183349.88547  20887821.752    20887828.600
  22652874.211    10900970.35849   8589248.14546  22652874.032    22652882.977
  24618392.970    -4803533.84249  -3433651.00645  24618392.541    24618405.118
  21478517.868   -20126441.30249 -15658029.69947  21478517.302    21478524.737
  21336740.432      702360.34049    551797.26347  21336739.822    21336747.323
 03  6 10 18 28 30.0000000  0 11G16G26G 3G21G29G18G15G 6G14G23G17
  24038578.654    -4618951.52049  -3586738.67745  24038578.538    24038588.070
  22213962.714    -7330706.64349  -5698302.15746  22213962.714    22213969.494
  23640691.610    -9400114.26149  -7053890.20345  23640691.240    23640699.288
  20600184.327    -6931731.05749  -5389782.35047  20600183.770    20600188.721
  24455003.299     5285053.59949   4129064.04045  24455003.175    24455010.237
  20408411.864   -20877353.60949 -16246148.45248  20408411.411    20408416.733
  20878708.040   -22118753.41249 -17220671.72547  20878707.371    20878714.235
  22671821.824    11000540.37449   8666835.02746  22671821.635    22671830.617
  24596614.887    -4917977.69749  -3522827.91445  24596614.638    24596626.790
  21471222.776   -20164777.20149 -15687901.81347  21471222.222    21471229.628
  21343894.922      739957.19349    581093.45547  21343894.309    21343901.803
 03  6 10 18 29  0.0000000  0 11G16G26G 3G21G29G18G15G 6G14G23G17
  24049114.740    -4563584.51549  -3543595.71045  24049114.645    24049124.187
  22227542.975    -7259342.04049  -5642693.38846  22227542.933    22227549.759
  23624276.249    -9486376.96849  -7121107.86445  23624275.845    23624283.974
  20603388.348    -6914893.88749  -5376662.49847  20603387.791    20603392.763
  24471911.115     5373906.22849   4198299.76645  24471911.178    24471918.340
  20407359.217   -20882885.33349 -16250458.88348  20407358.760    20407364.102
  20869632.997   -22166442.97849 -17257832.41547  20869632.314    20869639.189
  22690816.831    11100359.38649   8744615.93346  22690816.624    22690825.731
  24574839.695    -5032407.31149  -3611993.77045  24574839.343    24574851.375
  21463989.546   -20202788.15449 -15717520.72047  21463988.970    21463996.362
  21351098.918      777814.22549    610592.39247  21351098.332    21351105.827
 03  6 10 18 29 30.0000000  0 11G16G26G 3G21G29G18G15G 6G14G23G17
  24059708.089    -4507916.36949  -3500218.09545  24059707.811    24059717.459
  22241221.635    -7187460.11349  -5586681.50946  22241221.623    22241228.452
  23607918.648    -9572335.88649  -7188088.78645  23607918.268    23607926.568
  20606648.367    -6897762.49349  -5363313.38347  20606647.804    20606652.785
  24488871.120     5463030.34049   4267747.11245  24488870.968    24488878.082
  20406376.488   -20888049.48649 -16254482.89648  20406376.050    20406381.381
  20860597.335   -22213925.64749 -17294831.88747  20860596.649    20860603.533
  22709858.550    11200423.91549   8822588.13846  22709858.352    22709867.581
  24553067.343    -5146821.20949  -3701147.39345  24553066.955    24553078.944
  21456817.844   -20240475.72049 -15746887.63647  21456817.254    21456824.637
  21358352.272      815930.53449    640293.35947  21358351.701    21358359.166
 03  6 10 18 30  0.0000000  0 11G16G26G 3G21G29G18G15G 6G14G23G17
  24070358.503    -4451948.75349  -3456607.09845  24070358.098    24070367.843
  22254998.426    -7115062.48549  -5530267.78946  22254998.365    22255005.276
  23591619.540    -9657987.52949  -7254830.28145  23591619.192    23591627.503
  20609964.701    -6880335.20949  -5349733.69847  20609964.139    20609969.111
  24505882.144     5552424.59949   4337404.95445  24505882.101    24505889.294
  20405463.742   -20892846.09349 -16258220.50648  20405463.292    20405468.618
  20851601.425   -22261199.28549 -17331668.47447  20851600.757    20851607.630
  22728946.753    11300732.34049   8900750.39846  22728946.548    22728955.784
  24531298.801    -5261215.72149  -3790285.90645  24531298.326    24531310.163
  21449707.773   -20277839.43349 -15776002.18747  21449707.177    21449714.547
  21365655.331      854307.93049    670197.77347  21365654.725    21365662.192
 03  6 10 18 30 30.0000000  0 11G16G26G 3G21G29G18G15G 6G14G23G17
  24081065.199    -4395685.55649  -3412765.79245  24081064.825    24081074.644
  22268872.649    -7042153.01449  -5473455.22546  22268872.640    22268879.487
  23575379.331    -9743330.59449  -7321331.30845  23575379.025    23575387.251
  20613337.251    -6862612.44349  -5335923.76747  20613336.684    20613341.646
  24522944.019     5642085.43149   4407270.51745  24522943.919    24522951.469
  20404620.528   -20897277.18349 -16261673.30148  20404620.085    20404625.409
  20842645.376   -22308263.77949 -17368342.09247  20842644.687    20842651.552
  22748080.730    11401281.21849   8979100.02346  22748080.481    22748089.778
  24509534.268    -5375589.45449  -3879408.26545  24509533.753    24509545.492
  21442659.008   -20314880.74149 -15804865.51447  21442658.426    21442665.791
  21373007.898      892945.92549    700305.24647  21373007.315    21373014.799
 03  6 10 18 31  0.0000000  0 11G16G26G 3G21G29G18G15G 6G14G23G17
  24091827.650    -4339129.05949  -3368695.93745  24091827.205    24091837.204
  22282843.909    -6968733.68349  -5416245.36546  22282843.899    22282850.718
  23559198.373    -9828362.09049  -7387589.59945  23559198.087    23559206.221
  20616766.210    -6844593.27649  -5321882.86847  20616765.620    20616770.623
  24540056.384     5732010.47749   4477341.90645  24540056.093    24540063.619
  20403846.829   -20901342.98949 -16264841.45448  20403846.371    20403851.708
  20833729.366   -22355117.59849 -17404851.54847  20833728.700    20833735.533
  22767260.032    11502068.72249   9057635.58846  22767259.784    22767269.109
  24487774.251    -5489939.33649  -3968512.01445  24487773.558    24487785.177
  21435671.572   -20351599.80449 -15833477.73847  21435670.984    21435678.348
  21380410.158      931844.72049    730615.94747  21380409.550    21380417.074
 03  6 10 18 31 30.0000000  0 11G16G26G 3G21G29G18G15G 6G14G23G17
  24102645.289    -4282282.61749  -3324400.14145  24102645.016    24102654.846
  22296911.519    -6894807.81849  -5358640.81246  22296911.519    22296918.342
  23543077.115    -9913079.77749  -7453603.31545  23543076.827    23543084.855
  20620251.579    -6826277.52749  -5307610.87547  20620250.997    20620256.015
  24557218.360     5822197.14349   4547617.27645  24557218.082    24557225.383
  20403142.335   -20905045.21949 -16267726.30548  20403141.889    20403147.203
  20824853.635   -22401759.96749 -17441196.23547  20824852.964    20824859.785
  22786484.218    11603091.92049   9136354.80946  22786484.005    22786493.327
  24466019.029    -5604263.26349  -4057595.55445  24466018.188    24466030.101
  21428745.319   -20387997.54049 -15861839.58547  21428744.719    21428752.063
  21387862.046      971004.61949    761130.10247  21387861.451    21387869.006
 03  6 10 18 32  0.0000000  0 11G16G26G 3G21G29G18G15G 6G14G23G17
  24113517.669    -4225148.80949  -3279880.43545  24113517.179    24113527.158
  22311075.192    -6820377.62549  -5300643.26646  22311075.174    22311081.965
  23527016.068    -9997481.32349  -7519370.72245  23527015.806    23527023.696
  20623793.610    -6807664.11249  -5293106.92947  20623793.045    20623798.036
  24574429.681     5912642.96649   4618094.51345  24574429.287    24574436.697
  20402506.926   -20908384.22749 -16270328.12248  20402506.489    20402511.789
  20816018.447   -22448189.28449 -17477374.90747  20816017.771    20816024.579
  22805752.877    11704348.75549   9215256.08946  22805752.676    22805762.058
  24444269.235    -5718558.28049  -4146656.57445  24444268.496    24444280.179
  21421880.152   -20424074.13149 -15889951.18247  21421879.561    21421886.896
  21395363.877     1010426.94449    791848.74647  21395363.268    21395370.868
 03  6 10 18 32 30.0000000  0 11G16G26G 3G21G29G18G15G 6G14G23G17
  24124444.270    -4167729.87049  -3235138.54345  24124443.905    24124453.762
  22325334.234    -6745445.86849  -5242254.88046  22325334.192    22325340.983
  23511015.688   -10081563.73349  -7584889.46145  23511015.433    23511023.348
  20627392.478    -6788752.05049  -5278370.27247  20627391.914    20627396.891
  24591689.793     6003345.80149   4688772.06145  24591689.478    24591696.929
  20401940.495   -20911360.84449 -16272647.56348  20401940.051    20401945.360
  20807224.012   -22494404.16449 -17513386.48747  20807223.369    20807230.156
  22825065.691    11805837.04949   9294337.71246  22825065.396    22825074.835
  24422525.621    -5832821.72949  -4235693.00445  24422524.748    24422536.470
  21415076.025   -20459829.90749 -15917812.79847  21415075.422    21415082.757
  21402915.694     1050111.88349    822772.02347  21402915.110    21402922.741
 03  6 10 18 33  0.0000000  0 11G16G26G 3G21G29G18G15G 6G14G23G17
  24135424.502    -4110029.39249  -3190177.26145  24135424.113    24135434.044
  22339688.171    -6670015.40549  -5183477.92046  22339688.165    22339694.988
  23495076.370   -10165325.11449  -7650158.03845  23495076.128    23495083.934
  20631048.154    -6769541.33449  -5263400.90247  20631047.583    20631052.577
  24608998.195     6094302.61249   4759647.43145  24608998.095    24609005.499
  20401442.746   -20913976.55649 -16274685.77448  20401442.315    20401447.610
  20798470.545   -22540403.82049 -17549230.36047  20798469.879    20798476.680
  22844421.900    11907553.91249   9373597.44346  22844421.556    22844431.004
  24400788.428    -5947051.16849  -4324702.89645  24400787.457    24400799.378
  21408332.742   -20495265.85549 -15945425.19747  21408332.160    21408339.509
  21410517.563     1090059.65749    853900.10447  21410516.968    21410524.616
 03  6 10 18 33 30.0000000  0 11G16G26G 3G21G29G18G15G 6G14G23G17
  24146457.769    -4052050.02749  -3144998.68645  24146457.255    24146467.221
  22354136.528    -6594088.81749  -5124314.35246  22354136.533    22354143.358
  23479198.721   -10248762.77549  -7715174.38645  23479198.410    23479206.180
  20634760.813    -6750031.20549  -5248198.22547  20634760.243    20634765.243
  24626354.624     6185511.05249   4830718.95945  24626354.440    24626361.638
  20401013.517   -20916232.11149 -16276443.34548  20401013.082    20401018.410
  20789758.352   -22586186.71149 -17584905.32847  20789757.670    20789764.485
  22863821.068    12009497.21849   9453033.63346  22863820.796    22863830.257
  24379058.227    -6061244.03649  -4413684.30145  24379057.290    24379069.197
  21401650.260   -20530382.23449 -15972788.58047  21401649.686    21401657.040
  21418169.490     1130270.87149    885233.46847  21418168.920    21418176.623
 03  6 10 18 34  0.0000000  0 11G16G26G 3G21G29G18G15G 6G14G23G17
  24157543.500    -3993794.72349  -3099605.07845  24157543.100    24157552.895
  22368678.717    -6517669.12349  -5064766.54046  22368678.716    22368685.572
  23463383.025   -10331874.52449  -7779936.77045  23463382.678    23463390.529
  20638530.565    -6730221.17849  -5232761.85647  20638529.993    20638535.026
  24643758.346     6276968.45549   4901984.46245  24643758.043    24643765.640
  20400652.617   -20918128.57849 -16277921.10648  20400652.182    20400657.507
  20781087.581   -22631751.95549 -17620410.69547  20781086.903    20781093.720
  22883262.917    12111664.36649   9532644.24346  22883262.706    22883272.188
  24357335.372    -6175397.75449  -4502635.18145  24357334.508    24357346.556
  21395028.498   -20565179.69649 -15999903.45347  21395027.941    21395035.291
  21425871.692     1170745.92349    916772.41947  21425871.108    21425878.815
 03  6 10 18 34 30.0000000  0 11G16G26G 3G21G29G18G15G 6G14G23G17
  24168681.312    -3935265.81849  -3053998.28945  24168680.841    24168690.661
  22383314.321    -6440758.47149  -5004836.17046  22383314.344    22383321.201
  23447629.973   -10414657.30449  -7844442.81345  23447629.644    23447637.464
  20642357.627    -6710109.94549  -5217090.79047  20642357.043    20642362.074
  24661209.050     6368672.88649   4973442.40645  24661208.880    24661216.536
  20400359.997   -20919666.44849 -16279119.44148  20400359.555    20400364.875
  20772458.546   -22677097.83649 -17655745.14247  20772457.877    20772464.661
  22902747.102    12214053.39549   9612427.72546  22902746.858    22902756.394
  24335620.573    -6289509.35349  -4591553.22645  24335619.761    24335631.830
  21388467.432   -20599658.28549 -16026769.85447  21388466.863    21388474.228
  21433624.270     1211485.70049    948517.64147  21433623.661    21433631.387
 03  6 10 18 35  0.0000000  0 11G16G26G 3G21G29G18G15G 6G14G23G17
  24179870.571    -3876466.22649  -3008180.57045  24179870.084    24179880.023
  22398042.795    -6363360.08949  -4944525.74446  22398042.798    22398049.643
  23431939.833   -10497109.06649  -7908690.87545  23431939.536    23431947.531
  20646242.084    -6689697.26549  -5201184.82947  20646241.494    20646246.526
  24678706.147     6460621.30049   5045090.46345  24678705.907    24678713.726
  20400135.300   -20920847.10349 -16280039.43148  20400134.871    20400140.196
  20763871.374   -22722223.64649 -17690908.10547  20763870.701    20763877.482
  22922272.939    12316661.51149   9692381.90646  22922272.641    22922282.211
  24313914.248    -6403576.58549  -4680436.73345  24313913.608    24313925.474
  21381966.875   -20633818.93949 -16053388.51447  21381966.283    21381973.650
  21441427.176     1252490.00349    980468.99547  21441426.559    21441434.299
 03  6 10 18 35 30.0000000  0 11G16G26G 3G21G29G18G15G 6G14G23G17
  24191110.741    -3817399.21349  -2962154.47445  24191110.232    24191120.226
  22412863.523    -6285476.68949  -4883837.38446  22412863.487    22412870.355
  23416313.176   -10579227.46549  -7972679.20545  23416312.844    23416320.918
  20650183.963    -6668982.62249  -5185043.57347  20650183.376    20650188.414
  24696249.595     6552811.05449   5116926.61945  24696248.942    24696256.710
  20399978.427   -20921671.50949 -16280681.82048  20399977.999    20399983.320
  20755326.346   -22767128.13849 -17725898.61047  20755325.647    20755332.462
  22941839.841    12419486.07849   9772504.77046  22941839.615    22941849.234
  24292216.858    -6517596.95149  -4769283.69245  24292216.269    24292228.096
  21375526.642   -20667662.37749 -16079759.99247  21375526.071    21375533.410
  21449280.530     1293759.62149   1012627.09047  21449279.932    21449287.690
 03  6 10 18 36  0.0000000  0 11G16G26G 3G21G29G18G15G 6G14G23G17
  24202401.311    -3758067.92149  -2915922.42345  24202400.756    24202410.804
  22427775.900    -6207111.49749  -4822773.62146  22427775.944    22427782.740
  23400750.461   -10661010.27749  -8036406.04345  23400750.157    23400758.127
  20654183.382    -6647965.59149  -5168666.69447  20654182.797    20654187.860
  24713838.064     6645239.62449   5188948.87245  24713837.666    24713845.327
  20399889.087   -20922140.94649 -16281047.61148  20399888.661    20399893.972
  20746823.584   -22811810.17749 -17760715.77947  20746822.903    20746829.713
  22961447.497    12522524.46449   9852794.24946  22961447.341    22961456.954
  24270528.898    -6631567.83749  -4858092.08245  24270528.223    24270540.190
  21369146.645   -20701189.40849 -16105884.92147  21369146.058    21369153.392
  21457184.438     1335294.66349   1044992.00747  21457183.801    21457191.567
 03  6 10 18 36 30.0000000  0 11G16G26G 3G21G29G18G15G 6G14G23G17
  24213741.669    -3698474.34849  -2869486.04745  24213741.316    24213751.210
  22442779.643    -6128266.44749  -4761335.91746  22442779.677    22442786.449
  23385252.187   -10742454.16249  -8099868.78445  23385251.887    23385259.769
  20658240.568    -6626645.08849  -5152053.34347  20658239.988    20658245.044
  24731471.370     6737905.16049   5261155.73045  24731471.049    24731478.935
  20399867.246   -20922255.75649 -16281137.06948  20399866.816    20399872.132
  20738363.618   -22856267.67049 -17795357.96847  20738362.940    20738369.756
  22981095.544    12625774.87849   9933248.94546  22981095.389    22981105.008
  24248850.918    -6745486.03449  -4946859.42545  24248850.370    24248862.368
  21362826.923   -20734399.77049 -16131763.09547  21362826.333    21362833.675
  21465138.997     1377096.12749   1077564.52647  21465138.384    21465146.173
 03  6 10 18 37  0.0000000  0 11G16G26G 3G21G29G18G15G 6G14G23G17
  24225131.248    -3638622.25449  -2822848.20745  24225130.911    24225140.909
  22457874.011    -6048945.22049  -4699527.19146  22457873.987    22457880.765
  23369818.708   -10823557.58749  -8163066.22145  23369818.381    23369826.301
  20662355.500    -6605021.07349  -5135203.49447  20662354.919    20662359.979
  24749149.769     6830804.20749   5333544.57645  24749149.410    24749157.104
  20399912.520   -20922017.76849 -16280951.62548  20399912.095    20399917.411
  20729946.412   -22900500.45349 -17829825.07147  20729945.707    20729952.524
  23000783.278    12729234.10549  10013866.32646  23000783.059    23000792.804
  24227183.337    -6859349.77949  -5035584.33545  24227182.771    24227194.592
  21356567.121   -20767294.98749 -16157395.70747  21356566.547    21356573.846
  21473144.288     1419163.87849   1110344.53347  21473143.682    21473151.449
 03  6 10 18 37 30.0000000  0 11G16G26G 3G21G29G18G15G 6G14G23G17
  24236569.582    -3578514.24949  -2776010.94745  24236569.092    24236579.180
  22473058.472    -5969150.32049  -4637349.35946  22473058.486    22473065.276
  23354450.505   -10904317.96049  -8225996.34846  23354450.231    23354458.089
  20666528.322    -6583092.77749  -5118116.54047  20666527.741    20666532.807
  24766872.103     6923934.42949   5406113.56545  24766871.531    24766879.316
  20400024.757   -20921427.89449 -16280491.97848  20400024.317    20400029.622
  20721572.228   -22944506.90649 -17864115.80447  20721571.564    20721578.370
  23020510.442    12832899.94149  10094644.69646  23020510.182    23020520.027
  24205526.640    -6973156.20849  -5124264.58745  24205526.103    24205537.947
  21350367.276   -20799875.38849 -16182783.00547  21350366.689    21350373.998
  21481200.340     1461498.24349   1143332.30547  21481199.715    21481207.453
 03  6 10 18 38  0.0000000  0 11G16G26G 3G21G29G18G15G 6G14G23G17
  24248055.932    -3518153.57949  -2728976.83145  24248055.389    24248065.681
  22488332.439    -5888885.20549  -4574805.12446  22488332.441    22488339.242
  23339147.974   -10984733.26349  -8288657.58646  23339147.594    23339155.522
  20670759.130    -6560859.96049  -5100792.29447  20670758.532    20670763.612
  24784637.358     7017293.23349   5478860.64945  24784637.084    24784644.738
  20400203.779   -20920487.23949 -16279758.99548  20400203.353    20400208.649
  20713241.371   -22988286.02149 -17898229.38947  20713240.682    20713247.507
  23040276.250    12936769.58749  10175581.88646  23040276.009    23040285.914
  24183881.191    -7086903.13749  -5212898.45145  24183880.688    24183892.561
  21344227.173   -20832141.84049 -16207925.66347  21344226.589    21344233.899
  21489307.136     1504099.64749   1176528.15547  21489306.523    21489314.293
 03  6 10 18 38 30.0000000  0 11G16G26G 3G21G29G18G15G 6G14G23G17
  24259589.962    -3457542.24049  -2681747.37345  24259589.475    24259599.741
  22503695.590    -5808151.43549  -4511895.70946  22503695.536    22503702.423
  23323911.752   -11064800.22749  -8351047.40846  23323911.382    23323919.281
  20675048.151    -6538320.88549  -5083229.41047  20675047.592    20675052.662
  24802446.086     7110878.79049   5551784.42345  24802445.933    24802453.451
  20400449.475   -20919195.94949 -16278752.79448  20400449.053    20400454.350
  20704954.144   -23031835.60049 -17932164.12847  20704953.459    20704960.266
  23060080.507    13040841.40049  10256676.61446  23060080.358    23060090.255
  24162247.758    -7200586.74449  -5301482.97945  24162247.295    24162259.111
  21338146.840   -20864094.03249 -16232823.45547  21338146.259    21338153.562
  21497465.071     1546969.63549   1209933.29447  21497464.445    21497472.195
